GFSSGP_prec_cloud_003.txt.gz
Cloud_Cover
72 5 6 0 0 0 0 0 0 6 99 50 3 1 3 5 3 0 0 0 0 0 0 0 1 19 100 100 100 92 5 0 0 46 62 100 4 7 21 10 16 22 100 91 2 97 100 94 91
5 5 5 4 0 0 0 0 5 14 83 7 5 1 5 5 3 0 0 0 0 0 0 0 0 9 100 100 100 95 4 0 5 52 100 100 83 54 38 79 5 4 84 13 0 98 96 12 63
5 12 47 15 1 0 0 0 0 36 4 4 2 0 0 5 0 0 0 0 0 0 0 0 3 32 100 100 100 13 44 5 8 100 32 100 100 100 5 15 0 0 6 0 0 12 100 54 72
0 5 11 19 0 0 0 37 98 100 98 0 0 0 4 5 0 0 0 0 0 0 0 0 3 97 100 15 27 100 100 26 69 100 100 16 100 100 5 2 0 0 0 0 0 0 0 30 89
0 0 2 2 0 0 2 5 88 53 35 0 0 1 0 0 0 0 0 0 0 0 0 0 3 99 99 30 100 13 98 5 6 100 100 100 93 76 88 0 0 0 0 0 0 0 0 61 0
0 0 0 0 0 0 4 58 100 5 5 2 0 5 1 1 2 0 0 0 0 0 0 0 0 16 12 100 100 10 50 50 96 100 98 16 6 0 0 0 0 0 0 1 0 0 0 12 0
0 0 0 0 0 0 31 6 61 5 1 0 0 2 16 12 2 0 0 0 0 0 0 0 4 74 100 100 21 80 58 97 76 92 5 5 3 0 0 0 0 0 20 0 0 0 0 0 0
0 0 0 0 0 0 1 5 68 5 5 0 3 28 99 5 0 0 0 0 0 0 0 0 7 100 100 100 54 100 89 5 5 5 3 0 0 0 0 0 8 0 0 0 0 0 0 0 0
0 0 0 0 0 0 0 2 20 5 5 5 0 0 5 4 5 0 0 0 0 0 0 5 34 100 100 91 95 100 100 5 5 5 1 5 4 0 0 3 2 0 0 0 0 0 0 0 0
1 0 0 0 0 0 0 0 4 0 0 4 3 0 0 0 2 0 0 0 0 0 0 5 100 100 100 100 100 100 100 5 5 5 5 4 0 4 5 0 0 0 0 0 0 0 0 0 0
1 0 0 0 0 0 0 26 2 2 5 2 2 0 0 1 0 0 0 0 0 0 0 0 98 100 100 56 79 13 50 5 5 5 0 3 4 1 0 6 1 2 0 0 0 0 0 0 0
5 0 0 0 0 0 0 68 0 5 5 0 0 0 0 0 0 0 0 0 0 0 0 0 16 100 100 94 39 5 5 5 5 5 5 2 0 0 0 3 9 13 8 13 2 0 0 0 0
5 0 0 0 1 4 1 4 5 12 5 0 0 0 0 0 0 0 0 0 4 5 1 37 48 26 5 5 8 15 55 24 5 5 3 1 0 0 0 0 0 0 0 0 1 0 0 0 0
5 0 0 1 3 5 3 5 5 62 5 0 0 0 1 0 0 0 0 0 4 5 40 31 5 27 73 40 77 81 22 14 7 5 0 0 0 0 0 0 0 0 0 0 0 0 0 0 1
5 1 0 5 0 5 5 5 0 1 5 5 0 0 1 0 0 0 0 5 2 11 5 5 43 100 26 100 100 35 5 2 0 0 0 0 0 0 0 0 0 0 0 0 0 0 0 0 4
5 0 1 0 0 5 68 91 1 0 0 0 0 0 0 0 0 0 0 4 5 5 5 82 87 100 100 100 83 5 1 0 0 0 0 0 0 0 0 0 0 0 2 4 0 0 0 0 0
5 0 0 0 3 52 8 55 0 4 4 0 0 0 0 1 0 0 0 5 5 5 39 100 100 100 58 96 5 0 0 0 0 0 0 0 0 0 0 5 5 5 4 0 0 0 0 0 0
5 0 3 5 38 100 69 64 5 18 6 5 0 0 0 2 4 15 51 41 6 97 100 100 100 26 3 0 0 0 0 0 0 0 0 0 4 5 5 5 1 0 0 0 3 0 0 5 4
1 0 5 5 100 100 69 8 5 95 5 5 5 5 5 11 51 100 98 9 7 9 33 7 5 0 0 0 0 0 0 0 2 5 0 0 0 0 0 0 0 0 0 5 5 3 4 5 5
0 0 5 23 97 100 68 5 5 21 18 24 22 5 5 22 51 9 5 5 3 0 3 0 4 0 0 0 0 0 0 0 0 0 0 0 0 0 0 0 0 5 10 68 80 5 7 5 5
0 0 5 86 86 96 14 46 5 7 100 98 26 33 5 5 7 5 3 0 0 0 0 0 0 0 0 0 1 4 5 5 2 0 0 0 0 0 0 0 5 5 6 5 5 15 22 29 18
0 0 5 5 58 75 6 6 45 5 40 67 100 85 5 7 5 0 0 0 0 0 0 0 0 0 4 5 5 5 5 5 5 5 5 5 5 2 0 1 0 5 5 5 22 81 99 100 100
0 0 5 28 99 23 6 72 5 5 5 5 0 0 0 0 0 0 0 0 0 0 0 0 0 5 0 0 5 5 6 5 5 0 2 5 4 1 5 5 22 11 29 24 56 97 100 100 100
0 0 3 5 99 15 79 39 5 13 2 2 0 0 0 0 0 1 0 0 0 0 5 4 2 5 5 5 5 5 2 5 4 5 5 5 6 6 13 42 45 68 69 56 84 100 100 94 100
0 3 5 5 96 95 81 52 0 0 0 0 0 0 0 0 4 5 5 5 5 5 5 5 5 5 5 5 5 1 5 5 5 5 14 69 73 5 5 5 5 27 95 100 100 100 100 64 12
8 1 8 5 100 100 86 9 0 0 0 0 0 0 0 0 0 0 5 5 5 5 5 5 5 5 5 5 5 5 5 5 5 5 5 5 1 5 5 15 92 97 96 100 72 30 62 11 30
1 76 77 33 100 100 100 15 5 0 0 0 0 5 5 5 5 2 3 5 4 5 5 5 5 5 5 5 5 5 5 4 0 5 5 5 29 12 55 39 67 93 81 97 100 76 72 5 0
74 100 100 100 100 100 53 5 5 4 1 5 16 5 5 5 5 5 1 3 6 10 19 24 34 12 5 5 5 5 5 12 5 5 5 5 20 56 92 100 100 100 100 96 32 16 5 4 3
100 100 100 100 100 100 12 12 5 5 5 61 83 93 11 5 1 4 5 5 46 79 49 5 5 10 64 15 5 5 3 5 5 10 46 63 37 22 10 46 88 58 12 10 4 1 0 0 0
100 100 100 100 100 85 62 19 44 7 40 91 42 5 5 5 6 56 70 43 6 31 100 100 31 12 47 93 49 44 40 34 51 94 99 92 76 49 10 5 5 5 5 0 0 0 0 0 1

GFSSGP_prec_cloud_006.txt.gz
Cloud_Cover
82 26 8 24 91 100 5 0 0 1 4 69 97 27 0 0 0 0 0 0 0 0 0 0 1 16 90 86 100 29 100 65 5 95 96 100 10 13 6 6 71 100 100 94 52 100 100 96 46
59 70 20 5 74 61 5 5 5 0 5 12 33 5 1 0 0 5 0 0 0 0 0 0 0 18 3 29 100 85 100 100 65 15 100 100 100 93 7 55 0 71 100 4 0 50 47 13 100
5 5 5 46 12 4 1 7 5 0 3 5 34 0 0 0 3 0 0 1 0 0 0 0 0 11 2 3 100 100 100 100 96 96 77 100 100 100 20 15 0 0 5 0 5 6 1 0 12
5 3 5 5 6 0 0 5 0 0 3 5 4 0 0 3 0 0 0 5 0 0 0 0 0 3 0 4 100 100 100 100 99 100 100 100 38 65 64 2 0 0 0 2 2 0 0 0 0
5 5 5 0 4 1 1 1 17 4 5 2 5 0 0 0 2 1 1 2 0 0 0 0 0 0 2 5 100 100 100 100 97 99 100 62 100 100 45 4 3 0 0 0 0 0 0 0 0
3 1 1 0 0 0 0 1 76 62 5 5 5 4 0 0 3 5 5 5 0 0 0 0 0 0 4 5 100 100 99 99 6 25 25 10 44 73 30 5 5 2 5 5 2 0 0 0 0
0 0 0 0 0 0 0 1 5 96 5 3 5 5 2 1 0 5 5 4 0 0 0 0 1 0 5 75 100 98 100 100 82 47 90 64 9 5 8 0 5 17 14 5 1 0 0 0 0
5 0 0 0 0 0 3 0 5 12 52 67 5 0 5 0 5 5 1 1 0 0 0 16 0 0 5 15 100 18 100 100 100 6 7 5 0 5 5 10 14 5 5 0 0 0 0 0 0
5 0 0 0 0 0 0 0 5 2 4 2 0 1 5 5 5 5 0 0 0 0 4 16 1 5 8 5 93 100 100 43 100 100 32 5 5 11 5 5 5 5 1 0 0 0 0 0 0
5 0 0 0 0 0 0 0 0 1 1 1 0 1 1 1 5 1 0 0 0 0 0 3 3 36 52 62 99 100 100 100 78 65 5 10 5 5 5 5 5 5 1 0 0 0 0 0 0
5 1 0 0 0 0 0 0 0 0 0 0 0 0 0 0 1 2 0 0 0 0 0 0 1 44 67 98 100 100 100 66 49 60 92 64 5 5 5 8 4 6 0 0 0 0 0 0 0
5 5 4 0 0 0 0 0 0 0 4 0 0 1 5 0 0 0 0 0 0 0 0 0 4 6 84 100 100 100 61 45 32 99 24 5 5 5 2 7 0 2 1 12 11 14 0 0 0
5 5 5 0 0 0 0 0 0 1 5 0 2 5 1 0 0 0 0 0 0 0 0 5 5 4 7 100 98 62 15 9 6 5 5 5 1 0 0 1 4 6 19 17 25 20 0 0 0
5 5 5 0 0 0 0 0 5 60 4 5 0 3 0 0 0 0 0 0 0 0 0 3 5 5 5 5 6 9 5 7 90 47 19 5 2 0 0 0 0 0 2 0 0 1 0 0 0
5 5 5 0 0 0 0 0 0 1 5 5 0 0 0 0 0 0 0 0 0 1 3 0 0 24 5 53 90 42 58 100 100 62 5 0 0 0 0 0 0 0 0 1 0 0 0 0 4
5 5 0 0 0 0 5 1 5 4 4 2 3 0 0 0 0 0 0 0 0 0 0 4 5 2 7 16 18 95 100 100 13 4 0 0 0 2 3 4 5 5 4 1 0 0 4 3 0
50 5 4 0 0 0 5 0 86 5 4 0 0 0 0 0 0 0 0 0 0 2 0 0 2 10 29 90 100 100 100 67 5 0 0 0 4 8 5 5 5 5 4 0 1 0 0 2 4
32 5 2 0 0 0 5 9 100 29 91 45 5 3 0 0 0 0 0 0 0 0 0 0 18 70 100 100 98 100 12 1 0 0 0 0 4 5 8 7 5 3 5 1 5 5 5 4 5
69 17 4 0 0 1 23 14 16 53 100 76 64 52 5 5 0 2 2 1 5 2 0 5 68 100 100 100 16 18 1 0 0 0 0 0 0 5 5 4 0 0 0 5 5 3 0 4 4
81 5 0 0 0 1 70 49 99 15 100 94 82 97 84 48 7 5 7 5 5 8 27 58 88 72 9 5 5 1 0 0 0 1 4 0 4 0 0 0 0 5 5 5 5 1 8 37 75
74 5 0 0 0 0 5 100 100 24 92 100 70 93 100 43 8 5 19 36 42 49 46 5 5 5 4 7 52 0 0 3 1 5 5 5 5 5 5 5 5 5 5 7 5 5 10 99 100
8 0 0 0 0 0 42 100 65 42 66 5 47 100 100 100 100 84 16 5 47 72 100 52 5 2 5 3 2 0 4 4 0 5 5 5 5 5 5 5 5 5 5 5 5 78 36 98 100
3 0 0 0 0 0 7 100 40 100 72 7 5 14 85 98 38 5 5 5 51 65 7 0 0 0 0 0 0 0 5 5 5 13 15 22 19 5 5 5 14 28 22 27 93 94 100 49 82
5 0 0 0 2 5 26 100 55 85 4 0 0 5 4 1 0 1 5 5 7 0 0 0 0 0 0 0 4 5 5 21 46 35 52 44 31 24 5 5 5 5 5 17 16 13 52 84 80
1 0 0 0 4 3 51 100 100 23 4 0 0 4 0 0 0 0 0 0 0 0 0 0 0 3 5 5 5 5 34 44 66 49 15 5 5 5 5 5 5 0 2 5 13 5 7 30 22
0 0 0 0 1 5 50 100 100 44 2 0 0 0 0 0 0 0 0 0 0 0 5 0 5 5 5 16 80 99 100 38 5 5 5 5 5 5 5 5 5 5 2 5 5 16 93 6 5
0 0 0 0 0 2 74 100 100 87 0 3 4 0 0 0 0 0 0 0 5 37 5 5 5 5 5 5 5 5 5 5 5 5 5 5 5 4 5 2 5 5 5 5 5 5 5 13 56
0 0 0 0 3 31 100 100 100 74 30 5 5 0 0 0 0 4 5 5 14 10 5 5 5 5 5 5 5 5 5 4 5 5 6 5 5 6 5 3 2 0 2 4 1 5 5 2 0
5 0 3 3 43 92 100 100 100 89 100 76 5 3 1 0 5 6 12 5 5 5 5 42 46 5 5 26 19 7 45 75 96 90 69 60 18 1 1 3 17 52 55 30 4 0 0 0 0
5 52 65 100 90 100 100 100 100 100 100 100 94 34 5 5 5 5 5 5 5 66 56 80 93 58 28 23 33 56 57 21 14 22 22 51 96 99 54 24 21 2 0 0 0 1 0 0 1

GFSSGP_prec_cloud_009.txt.gz
Cloud_Cover
100 100 100 100 11 96 6 4 0 3 4 5 5 54 6 0 0 0 0 0 0 0 0 0 0 3 23 95 25 0 0 4 5 3 50 24 20 87 12 77 85 100 47 96 100 100 100 99 91
92 94 100 100 5 5 2 0 5 5 3 5 6 48 83 3 0 0 0 0 0 0 0 0 0 8 30 42 2 0 1 5 48 42 74 21 97 91 92 74 5 81 100 96 1 96 100 44 76
83 100 100 96 57 4 1 4 4 1 0 5 8 5 5 1 0 3 0 0 0 0 0 0 0 14 24 7 1 0 43 96 87 100 100 100 100 100 97 3 4 4 26 2 0 53 9 0 0
96 100 100 100 6 12 10 13 5 0 2 0 0 3 0 0 0 5 5 1 1 0 0 0 0 11 28 27 13 0 79 98 100 100 100 100 100 100 100 3 87 24 5 0 0 0 1 0 0
100 100 100 100 21 4 0 1 0 0 4 0 1 0 0 0 0 5 5 5 5 1 4 0 0 2 25 0 0 0 79 100 100 100 100 100 83 100 63 5 5 5 5 5 3 0 0 0 0
100 100 100 100 100 5 1 5 2 4 2 3 10 1 0 0 0 4 5 5 4 0 10 8 0 0 0 4 0 4 88 100 100 100 100 100 100 53 27 19 5 5 5 10 2 0 0 0 0
100 100 99 48 5 1 3 1 0 3 10 5 7 4 1 5 0 4 64 6 4 0 8 20 11 0 0 0 1 25 100 100 100 100 100 97 5 5 10 33 5 5 11 12 5 1 0 0 0
100 86 5 0 0 0 0 2 0 5 5 5 5 0 0 0 1 0 97 7 2 1 5 30 26 6 0 0 5 83 90 100 100 100 100 100 100 5 6 5 5 1 4 2 12 2 0 0 0
27 42 0 0 0 4 0 0 0 0 5 5 3 0 0 0 0 3 62 5 0 9 33 40 37 8 0 0 6 97 90 100 100 100 100 99 37 69 46 4 4 5 3 4 5 9 5 0 0
0 1 0 0 0 0 0 0 0 0 5 4 0 0 0 0 2 18 5 5 2 7 16 42 30 10 0 2 19 39 100 100 100 62 39 6 3 7 3 5 5 5 5 5 4 0 2 0 0
0 0 5 0 0 0 0 0 0 0 5 0 0 0 0 3 48 38 5 5 5 5 0 16 28 10 1 0 9 22 12 23 100 93 77 27 5 5 5 10 10 11 7 11 0 0 0 0 0
0 0 5 3 0 0 0 0 0 0 3 0 0 0 1 5 5 5 5 5 6 41 1 0 5 18 9 1 16 5 6 81 100 40 6 5 18 7 10 7 6 16 22 16 15 21 5 0 0
0 0 3 5 2 0 0 0 0 0 0 7 5 2 0 2 0 0 10 6 13 20 1 0 0 0 3 5 5 5 68 100 100 48 5 19 12 14 5 1 6 13 15 25 25 29 22 16 0
0 0 0 2 0 0 0 0 0 0 0 59 70 5 2 1 3 0 3 9 4 1 0 0 4 4 1 0 5 5 18 23 5 5 8 11 100 47 5 1 2 23 29 24 18 10 7 5 6
3 1 0 0 5 0 0 0 0 0 36 98 89 34 5 30 5 0 0 0 0 0 0 0 5 5 0 0 0 1 5 5 13 33 96 100 79 38 1 0 0 0 5 27 64 8 10 13 8
3 36 4 3 5 0 0 0 0 0 64 86 100 75 19 4 2 0 0 0 0 0 0 0 0 0 0 0 0 4 2 5 5 7 100 100 52 22 0 0 4 74 100 100 99 6 1 0 0
10 49 4 3 5 0 0 0 0 5 37 92 100 35 2 25 3 0 0 0 0 0 0 0 0 0 0 0 0 5 4 5 16 35 99 68 17 0 0 0 4 5 43 38 12 5 0 0 0
20 60 2 4 3 0 0 0 0 8 5 31 64 98 99 31 0 0 0 0 0 0 0 0 0 0 0 0 5 5 19 13 83 66 55 8 0 0 0 4 1 4 5 5 5 11 31 23 9
62 5 5 5 4 0 0 0 0 69 41 67 100 100 93 51 5 2 0 0 0 0 0 0 0 0 2 14 62 98 100 82 73 72 5 0 0 0 0 0 0 0 5 13 16 15 19 15 26
92 5 5 5 4 0 0 0 5 100 97 77 54 44 10 8 5 5 0 0 0 0 2 8 10 5 5 8 15 10 14 16 37 15 5 0 0 0 0 1 5 5 27 11 0 2 31 49 46
23 5 5 4 0 0 0 0 0 66 95 21 19 26 97 100 46 5 4 17 26 30 5 15 49 74 51 25 13 9 6 5 4 5 3 0 2 0 0 0 5 4 14 20 29 28 52 72 79
99 53 68 5 0 0 0 0 0 42 100 6 76 100 83 100 100 100 100 100 100 66 5 5 5 14 56 50 5 5 13 8 5 1 0 0 0 2 5 5 12 15 14 36 40 53 100 100 100
7 82 22 5 0 0 0 4 5 31 28 5 6 100 82 8 94 70 68 78 52 5 5 24 19 98 88 26 5 1 0 1 0 0 0 5 2 5 5 5 5 23 66 86 98 72 48 80 99
95 76 5 2 2 3 2 4 0 88 11 5 5 99 100 60 4 5 4 8 62 13 1 2 42 70 18 0 0 0 0 4 17 86 100 100 90 52 83 100 100 87 46 5 5 5 5 5 5
24 65 18 1 3 1 3 8 2 94 5 4 0 2 4 2 0 0 0 0 0 0 0 0 0 0 0 0 3 5 5 6 59 41 87 100 99 100 92 54 28 6 5 13 14 6 5 15 5
5 5 5 0 0 0 0 5 0 100 9 5 5 0 0 0 0 0 0 0 0 0 0 0 0 0 0 5 5 5 15 67 58 66 54 48 40 9 26 60 73 91 57 13 8 6 50 95 53
5 5 1 0 3 4 0 0 0 100 20 5 0 5 1 0 0 0 0 0 0 0 0 0 2 5 5 5 9 34 5 11 72 69 62 85 55 49 54 90 84 38 5 5 5 5 5 4 3
5 5 0 2 2 5 0 0 0 85 60 5 1 5 5 2 0 1 0 0 0 0 0 4 5 5 5 5 6 61 87 72 47 12 16 42 31 24 14 6 5 5 5 15 5 5 3 0 0
5 2 0 0 0 0 0 0 3 24 90 25 5 5 5 5 5 5 5 0 1 4 9 5 5 30 22 41 68 74 76 42 25 16 6 53 46 63 43 79 77 15 5 5 4 1 0 0 1
5 1 0 0 0 0 0 3 0 10 100 19 100 81 5 48 72 5 5 5 32 6 5 36 54 64 46 93 68 47 30 8 33 8 36 98 95 100 100 11 8 4 0 0 0 0 0 1 0

GFSSGP_prec_cloud_012.txt.gz
Cloud_Cover
100 100 100 100 90 30 22 5 5 5 19 5 77 5 7 0 0 0 0 0 0 0 0 0 6 15 4 5 98 4 0 0 0 0 0 69 86 18 12 97 85 100 100 25 60 0 100 100 43
100 100 100 78 28 6 28 83 5 0 5 2 5 4 14 14 5 0 0 0 0 0 0 0 0 0 24 91 23 0 0 0 0 2 2 50 65 51 97 1 6 76 100 97 3 98 100 99 96
100 100 99 100 43 97 10 22 5 5 5 4 0 3 5 46 5 4 5 4 0 0 0 0 0 28 34 32 0 0 0 0 0 2 4 100 12 33 96 83 5 0 6 8 1 94 92 3 26
96 100 100 100 99 5 5 5 5 4 5 4 5 0 5 5 5 0 5 5 3 1 0 0 0 33 10 14 0 0 0 0 0 60 6 100 100 100 100 100 39 4 2 0 0 0 0 5 0
98 100 100 100 38 5 5 81 77 83 16 5 15 2 2 5 1 0 5 5 3 8 1 0 0 8 16 21 16 6 0 0 0 59 100 100 100 100 100 100 39 3 5 5 2 0 0 0 0
82 100 100 100 13 5 29 100 100 100 5 5 5 2 0 0 0 0 1 5 5 5 8 0 0 0 0 12 20 4 0 0 1 93 100 100 100 100 100 99 5 4 0 7 1 0 0 0 0
98 94 93 27 35 5 29 97 100 100 100 100 17 3 1 0 0 0 2 21 5 5 12 22 12 0 0 0 0 0 0 0 4 98 100 17 100 100 100 74 10 2 3 100 99 54 24 3 0
100 99 46 5 5 58 38 97 100 100 66 30 3 5 4 0 0 0 5 64 6 5 3 32 30 10 0 0 0 0 0 0 53 82 100 100 100 70 68 100 5 4 2 95 100 10 9 26 4
52 100 100 100 46 56 98 100 89 39 5 5 5 18 1 0 0 0 3 5 71 5 9 29 42 36 7 0 0 0 0 5 43 98 80 100 92 100 100 37 5 3 1 3 27 47 12 0 0
69 12 48 100 100 100 5 27 8 4 0 0 5 97 54 0 0 0 5 5 59 40 22 72 58 45 32 12 0 0 0 5 24 95 100 100 100 77 12 17 5 5 5 5 0 0 7 3 0
46 54 5 3 63 73 7 1 0 0 0 0 5 5 5 0 0 4 5 44 42 48 100 23 54 29 23 16 5 19 19 5 76 69 43 100 100 98 43 5 5 5 4 14 6 6 11 1 2
0 2 5 5 5 5 37 1 0 0 0 0 3 0 0 0 22 49 5 100 5 19 46 5 21 34 25 22 16 9 26 18 14 5 63 100 74 38 3 16 5 6 8 16 22 32 20 11 2
0 0 0 0 2 3 0 0 0 0 0 0 0 0 0 11 98 49 38 100 27 5 5 7 5 15 22 26 19 7 13 17 8 4 4 84 61 18 27 14 54 11 11 24 22 24 14 16 10
0 0 0 0 0 0 0 0 0 0 0 0 0 0 4 13 27 6 76 57 3 5 18 21 5 4 15 9 12 0 5 0 5 78 99 100 74 15 61 100 29 12 16 9 12 12 12 17 12
5 1 0 0 0 1 1 0 0 0 0 0 0 0 5 5 87 21 6 20 0 0 11 74 24 5 1 5 1 0 0 5 5 5 5 8 5 5 95 100 23 0 6 1 14 16 32 62 36
17 16 3 0 0 0 0 0 0 0 0 0 0 5 5 35 100 81 85 4 4 0 0 5 7 5 0 2 0 0 0 0 0 0 0 5 5 49 28 82 5 5 0 3 3 3 5 31 15
82 10 5 0 0 0 0 0 0 0 0 0 0 0 27 100 100 91 6 13 9 3 0 0 1 2 0 0 0 0 0 0 0 0 0 0 5 5 5 5 5 5 0 0 16 34 89 99 100
5 5 5 0 2 0 0 0 0 0 0 0 0 3 99 100 99 95 54 3 0 0 0 0 0 0 0 0 0 0 0 1 1 5 5 5 4 5 5 5 5 42 53 32 25 92 100 100 81
55 4 5 0 5 0 0 0 0 0 0 0 5 18 100 100 93 100 99 8 4 0 0 0 0 0 0 0 0 0 0 0 5 9 18 26 5 5 5 5 2 0 0 0 3 64 90 83 55
1 41 6 3 5 0 0 0 0 0 0 0 4 5 97 100 93 99 100 79 5 0 0 0 0 3 5 0 0 0 3 5 5 26 21 6 3 2 5 5 4 0 2 8 27 96 98 100 100
5 8 19 2 5 0 0 0 0 0 0 5 1 3 100 100 46 67 100 54 4 2 0 2 47 32 3 1 2 5 5 6 6 5 4 5 0 2 0 1 0 0 8 37 26 42 72 94 70
42 7 95 5 5 0 0 0 0 0 0 5 5 5 85 100 6 100 99 100 100 100 100 100 100 93 25 5 5 35 76 27 5 1 0 0 0 0 0 0 2 5 5 5 5 5 5 9 13
14 94 92 100 77 4 0 0 0 0 0 5 5 5 22 100 33 20 100 100 100 100 100 89 5 21 85 97 56 6 5 5 2 0 0 0 0 1 5 5 5 5 5 5 5 5 5 5 5
98 95 100 100 85 4 0 0 0 0 0 4 3 5 4 99 37 12 73 94 94 22 19 35 83 73 19 5 5 6 5 1 0 0 5 5 5 8 18 9 7 16 40 41 28 17 22 28 36
100 100 91 79 6 0 0 0 0 0 0 0 4 5 5 94 83 5 0 0 0 0 0 0 0 0 0 0 0 0 0 2 3 5 5 5 5 5 6 34 17 5 5 7 9 5 5 5 5
100 100 56 6 2 0 0 1 0 0 0 0 0 5 4 20 79 5 0 0 0 0 0 0 0 0 0 0 0 1 5 5 3 5 5 5 38 7 15 7 5 5 19 17 5 5 5 5 5
96 32 41 5 5 1 0 0 0 0 0 0 0 0 5 5 69 7 0 0 0 0 0 0 0 0 0 0 0 0 2 5 5 14 35 47 58 25 6 26 62 44 5 5 5 5 5 5 5
88 81 30 5 5 0 0 0 0 0 0 0 0 0 10 29 6 18 5 0 4 1 0 0 3 16 5 5 4 4 5 5 20 35 6 22 43 44 48 6 5 5 5 12 42 22 5 2 0
94 42 27 25 6 0 0 0 0 0 0 0 0 0 4 95 12 2 5 5 8 8 20 54 62 30 39 27 21 42 92 100 98 78 64 13 5 5 5 5 51 41 55 12 0 0 0 0 0
98 5 5 5 2 0 0 0 0 0 0 0 0 0 5 6 5 5 5 84 99 100 100 100 100 100 97 72 72 74 91 69 12 5 5 5 5 5 23 6 1 0 0 0 0 0 0 0 0

GFSSGP_prec_cloud_015.txt.gz
Cloud_Cover
100 100 100 64 99 100 100 100 100 100 100 100 39 5 4 0 0 0 0 0 0 0 0 0 8 3 19 87 78 74 0 0 0 0 0 37 38 17 12 96 53 77 80 9 0 0 82 93 49
100 100 100 100 100 90 100 11 100 100 100 100 65 5 2 4 0 0 0 0 0 0 0 0 0 0 6 54 38 97 0 0 0 0 10 94 41 33 25 23 5 39 99 2 0 0 2 100 97
100 100 99 100 100 100 98 60 98 74 53 100 84 31 1 3 17 9 5 0 0 0 0 0 0 2 21 36 59 3 0 0 0 0 5 99 75 55 1 1 5 10 89 88 27 1 98 57 0
100 100 100 100 96 100 100 100 99 24 27 29 10 17 4 5 68 5 5 0 2 0 0 0 0 0 8 0 19 0 0 0 0 0 0 100 100 35 5 70 100 100 100 93 4 0 27 2 4
100 100 100 100 100 51 44 13 72 93 10 5 81 15 6 9 5 5 5 1 0 0 0 0 0 0 26 0 0 0 0 0 0 1 33 11 96 100 47 100 100 100 100 100 59 2 0 0 0
61 100 100 100 100 51 46 96 100 98 55 34 100 100 69 4 5 5 5 4 0 2 4 0 0 0 0 2 1 0 0 0 0 0 100 37 83 100 100 100 100 100 100 81 68 34 3 0 0
7 100 100 89 90 29 27 99 100 92 84 100 87 20 5 38 13 9 2 0 0 4 3 0 0 0 0 0 0 0 1 0 0 0 0 0 96 100 100 100 100 100 100 95 100 100 100 68 34
100 100 100 100 22 5 5 9 94 90 93 62 6 4 51 9 10 5 5 0 2 5 5 5 0 16 23 25 20 0 0 0 0 0 4 61 100 100 100 86 61 9 31 80 94 100 79 84 90
100 100 100 100 6 12 29 40 11 5 15 5 5 5 44 25 5 2 0 0 1 2 5 5 5 23 26 13 2 7 64 1 6 0 3 50 100 100 100 100 100 100 100 12 5 29 58 47 84
42 100 93 17 6 86 97 14 23 5 5 5 7 57 34 10 10 4 0 0 0 0 5 23 36 20 35 31 10 5 0 0 0 0 23 55 98 100 100 100 100 100 30 5 4 0 2 0 2
8 100 68 43 7 95 98 98 82 5 6 60 6 19 5 5 5 5 0 0 1 2 5 5 28 18 32 45 34 32 17 2 3 4 61 26 54 100 100 100 100 76 5 4 3 5 5 5 3
0 5 20 99 10 4 4 64 93 100 98 98 46 35 3 0 0 0 5 5 16 19 55 5 6 34 26 38 38 7 12 5 0 1 5 41 100 100 100 100 96 5 26 3 5 5 5 0 0
0 0 5 19 42 5 12 5 5 3 2 1 0 4 2 0 0 5 5 5 75 28 50 5 30 96 56 39 22 6 1 4 5 88 39 60 32 96 100 96 17 5 24 5 19 5 0 0 0
0 1 1 4 5 5 37 30 4 1 5 2 0 0 0 0 1 5 5 5 5 84 48 100 86 100 90 85 5 0 0 5 5 12 10 5 43 70 16 6 41 5 5 11 6 5 0 0 0
0 6 0 5 5 12 4 0 0 0 0 0 0 0 0 0 4 5 5 5 65 8 83 87 8 8 86 80 9 5 5 2 0 5 6 5 19 6 74 33 5 4 5 5 5 1 13 11 10
32 94 2 0 0 0 0 1 1 0 0 0 0 0 0 0 5 50 18 97 60 21 73 96 27 5 2 5 5 5 5 0 1 1 4 5 5 5 2 0 0 1 5 3 5 5 1 0 58
98 5 1 0 0 0 0 0 0 0 0 0 0 0 0 2 2 5 99 90 24 4 2 4 1 0 0 0 1 0 2 0 4 3 0 0 0 0 2 2 0 4 5 5 7 9 21 5 19
69 13 39 0 2 0 0 0 0 0 0 0 0 0 0 0 2 66 100 69 39 10 4 0 0 0 0 0 0 0 0 0 0 0 1 9 5 5 5 5 5 6 5 4 30 53 87 100 100
9 92 2 0 4 0 0 0 0 0 0 0 0 0 0 8 70 86 100 98 96 53 39 1 0 0 0 0 0 0 0 0 0 0 0 0 5 78 99 61 12 5 5 3 0 6 9 21 87
67 99 5 1 5 5 0 0 0 0 0 0 0 0 4 26 5 87 100 99 71 48 56 5 2 0 0 0 4 1 0 0 0 0 2 5 16 28 10 5 5 3 0 0 0 0 0 3 5
67 0 3 3 5 5 0 0 0 0 0 0 0 0 5 5 5 18 96 99 66 27 96 93 74 68 20 5 4 0 0 2 5 5 5 13 5 5 4 0 0 0 0 0 0 0 0 0 1
0 5 3 5 7 5 4 1 0 0 0 0 0 5 5 5 5 5 97 92 56 5 44 100 98 67 65 5 4 4 1 5 5 5 5 5 5 1 0 0 0 4 0 0 0 0 2 5 5
24 7 33 86 64 73 3 4 0 0 0 4 0 2 5 5 5 5 64 96 6 5 5 19 42 96 84 86 65 34 20 5 5 5 5 4 0 0 0 0 0 0 0 0 2 5 5 5 5
14 99 47 30 88 5 0 0 0 0 0 0 0 4 5 67 63 22 5 82 17 68 92 27 5 1 4 71 100 98 37 4 1 0 0 0 0 0 0 0 0 0 3 10 40 23 5 5 4
70 33 90 94 90 5 0 0 0 0 0 0 0 0 2 5 5 5 5 0 5 100 98 99 11 4 5 2 0 0 0 0 0 0 0 3 4 1 0 4 5 5 5 5 5 4 3 5 5
100 80 100 87 5 5 0 0 0 0 0 0 0 0 0 0 2 0 0 0 0 4 18 91 16 5 5 5 5 5 1 0 1 5 5 5 5 7 81 57 5 10 28 5 5 5 5 5 5
100 99 95 21 3 5 0 0 0 0 0 0 0 0 0 0 0 0 0 0 0 0 5 71 6 35 28 5 5 5 10 69 70 31 10 13 60 78 56 62 67 53 9 50 6 5 5 5 0
40 92 100 53 5 5 0 0 0 0 0 0 0 0 0 0 0 3 0 0 0 0 5 5 5 5 37 5 76 28 49 51 41 5 12 85 99 54 46 67 20 57 21 5 5 5 0 0 0
100 54 100 70 6 5 1 0 0 0 0 0 0 0 0 0 0 0 0 0 0 4 5 54 12 5 5 7 61 68 72 25 39 29 34 5 5 9 4 3 5 5 5 5 3 3 0 0 0
25 66 30 5 5 4 0 0 0 0 0 0 0 0 0 0 0 0 0 1 5 20 100 6 5 10 28 76 90 100 100 76 6 16 5 5 5 4 5 5 5 5 5 2 0 0 0 0 0

GFSSGP_prec_cloud_018.txt.gz
Cloud_Cover
55 99 100 100 59 12 43 100 100 100 100 100 100 100 79 5 4 1 0 0 0 0 0 0 15 47 0 16 89 68 0 0 0 0 0 57 74 11 0 54 9 12 23 100 97 6 30 87 100
100 76 100 100 70 100 66 92 100 100 100 100 100 100 100 100 31 0 0 0 0 0 0 0 0 1 0 26 4 0 0 0 0 0 0 100 100 85 0 0 2 5 100 76 1 4 2 0 52
100 100 36 100 100 100 98 83 98 100 100 100 100 100 69 81 6 5 0 0 0 0 0 0 0 0 0 0 44 0 0 0 0 0 0 70 100 55 35 0 17 81 34 5 29 92 97 97 94
100 100 70 76 100 98 100 100 100 100 100 100 100 99 15 5 5 10 5 5 4 0 0 0 0 0 0 2 69 0 0 0 0 0 0 100 74 100 21 3 53 3 2 99 100 100 100 100 6
100 100 100 12 76 100 48 98 100 100 100 100 100 100 8 5 4 5 5 5 0 0 0 0 0 2 0 0 0 0 0 0 0 0 2 55 100 100 96 51 54 7 100 100 100 100 100 100 12
100 100 100 100 27 98 74 83 93 96 100 100 100 59 5 30 5 5 5 5 3 1 0 0 0 0 1 0 0 0 0 0 0 0 99 97 62 16 26 57 9 98 100 100 100 100 100 99 27
100 100 95 69 98 100 12 95 100 96 41 76 23 35 56 28 3 2 5 3 3 18 3 0 0 0 0 0 66 0 0 0 0 0 0 7 0 3 5 5 100 100 100 100 100 100 100 98 100
97 100 100 80 47 97 95 100 100 100 100 100 83 79 23 3 5 5 4 5 5 2 2 0 0 0 37 76 20 11 0 0 0 0 0 0 5 2 1 69 100 100 100 100 89 34 27 100 77
0 74 100 100 58 100 100 100 100 100 100 100 26 10 5 9 5 5 5 4 0 0 0 0 0 0 1 15 24 40 93 0 19 2 0 0 2 5 1 36 100 100 100 100 93 100 100 54 3
0 0 71 100 100 100 99 86 50 18 34 12 5 5 5 5 18 5 1 0 0 0 0 0 5 3 0 12 10 30 4 4 5 3 0 0 5 5 5 100 100 100 100 100 100 100 100 5 2
0 0 0 4 100 100 100 100 99 5 5 4 5 5 9 17 5 5 0 5 1 0 0 0 5 5 5 0 0 2 5 4 5 5 5 4 3 67 25 100 100 100 100 100 100 100 78 60 6
0 0 0 3 100 100 100 100 39 5 5 5 5 13 33 5 9 40 4 0 1 8 5 1 3 5 5 5 0 5 2 3 2 3 5 1 5 90 93 5 100 100 100 100 96 5 2 5 4
0 0 0 5 91 100 100 100 81 38 1 3 82 98 17 20 14 0 0 0 5 57 54 5 50 12 53 5 3 5 5 5 3 5 46 23 52 10 63 51 95 100 100 5 14 16 5 8 14
1 0 0 2 92 100 100 100 97 1 3 7 10 3 1 2 4 1 0 0 5 15 5 5 76 95 99 9 5 5 5 5 4 5 91 95 28 78 70 54 58 39 21 63 26 14 70 5 5
16 44 2 0 69 100 100 100 6 15 34 5 5 5 5 5 0 0 1 5 5 7 85 16 88 79 88 5 9 1 10 2 1 5 5 18 100 79 20 65 95 97 97 11 8 15 45 47 47
100 100 89 0 19 36 100 8 22 32 5 5 5 5 1 0 0 0 5 5 5 9 40 97 77 98 96 78 5 0 0 0 5 2 1 5 72 63 72 57 49 24 6 35 55 74 70 69 83
100 28 15 3 4 6 76 16 65 5 5 4 5 0 0 0 0 0 0 0 4 55 65 5 3 1 24 55 1 0 0 0 0 0 0 5 5 5 7 15 43 52 65 60 41 16 27 23 37
100 56 4 6 1 5 6 2 5 0 0 0 0 0 0 0 0 0 0 3 5 40 13 5 5 5 0 0 0 0 0 19 25 24 35 21 18 10 10 10 3 0 5 5 34 49 7 8 5
78 3 66 24 3 2 3 0 5 0 0 0 0 0 0 0 0 0 5 5 100 86 5 23 5 5 4 0 0 0 0 0 0 0 0 0 0 0 0 0 1 29 54 41 5 5 0 0 0
99 82 43 48 2 7 4 0 5 0 0 0 0 0 0 0 0 0 3 5 5 83 97 89 53 5 46 95 91 100 73 5 0 0 1 4 5 8 33 60 66 65 16 5 4 0 0 0 0
100 99 75 13 4 81 7 0 5 5 1 0 0 0 0 0 5 1 5 5 10 86 73 100 100 90 7 34 7 24 76 12 2 0 5 5 5 5 5 5 5 5 5 4 0 0 0 0 3
81 83 54 5 35 98 5 3 5 4 3 0 0 0 0 0 0 0 0 2 5 33 22 8 80 35 17 42 12 13 2 2 1 0 0 2 0 2 5 5 5 5 0 0 0 0 0 0 0
100 29 5 21 100 82 12 4 0 5 5 0 0 0 1 5 6 5 2 3 5 64 95 96 92 96 100 60 5 5 5 6 5 5 5 5 29 5 0 0 0 0 0 0 0 0 0 0 0
100 50 40 77 100 68 8 1 0 5 1 0 2 0 0 1 38 5 5 5 70 22 16 5 70 38 34 22 38 97 97 27 5 5 5 3 1 0 0 0 1 0 0 2 5 5 5 5 5
100 89 97 100 93 15 0 0 0 0 0 0 0 0 1 3 5 5 5 5 2 0 5 5 2 4 3 17 69 12 6 5 23 2 0 0 0 1 5 5 5 8 5 5 5 5 5 5 5
98 21 65 84 11 14 0 0 0 2 0 0 0 0 4 1 0 0 0 0 0 0 0 0 0 5 5 4 5 5 5 10 8 5 4 5 5 48 42 55 43 11 23 36 5 5 5 5 5
100 99 56 5 5 5 0 0 0 0 0 0 0 0 1 0 0 0 0 0 0 0 0 0 3 2 1 1 5 6 85 85 26 10 5 79 98 92 100 81 15 36 10 5 5 5 5 2 5
57 60 30 46 13 5 0 0 0 0 0 0 0 0 0 0 0 0 0 0 0 0 0 3 47 20 5 6 5 50 96 50 49 73 88 91 100 99 52 13 5 5 5 5 5 5 5 5 2
100 100 69 24 5 44 2 0 0 0 0 0 0 0 0 0 0 0 0 0 0 0 0 1 6 9 5 5 5 5 63 100 69 50 61 39 8 5 5 5 5 5 5 5 5 4 0 0 3
100 92 95 77 50 5 1 0 0 0 0 0 0 0 0 0 0 0 0 0 0 0 0 0 0 5 5 82 11 67 81 32 5 9 6 20 5 3 5 5 7 5 5 3 2 0 0 0 0

GFSSGP_prec_cloud_021.txt.gz
Cloud_Cover
48 89 62 100 100 100 100 57 5 9 100 100 100 100 52 34 87 54 6 2 0 0 0 0 0 7 1 0 79 15 0 0 0 0 0 44 81 25 0 41 88 98 76 0 0 0 3 100 97
100 100 64 91 100 100 100 100 100 62 100 100 100 100 100 100 100 100 100 100 13 1 0 0 0 21 35 4 73 13 0 0 0 0 0 28 49 100 0 0 0 0 0 0 0 0 100 100 5
100 100 98 88 100 100 100 100 95 12 100 100 100 100 98 100 100 100 100 94 84 2 0 0 0 0 37 95 85 0 0 0 0 0 0 6 18 89 83 33 0 0 0 0 4 54 100 3 5
100 100 100 87 88 95 94 100 100 100 87 100 100 100 100 100 100 100 97 6 5 5 0 0 0 0 23 51 0 0 0 0 0 0 0 85 29 57 45 0 0 0 0 4 99 33 16 64 100
100 100 99 93 100 100 38 100 100 100 100 100 81 100 100 66 65 99 5 5 5 0 0 1 4 0 0 99 1 19 0 0 0 0 0 87 100 100 99 12 0 0 0 8 82 3 99 100 100
100 100 100 86 100 100 100 96 100 100 100 100 100 100 100 100 100 100 74 19 1 4 5 5 2 0 0 0 0 0 0 0 0 0 11 0 80 39 49 8 3 0 1 19 31 52 100 100 100
25 100 100 100 100 100 100 100 100 100 100 64 100 100 100 100 100 100 46 5 5 5 5 1 0 0 0 0 0 0 0 0 0 0 0 32 0 0 0 3 5 5 3 23 99 99 100 100 100
0 19 100 100 100 100 100 100 100 100 100 100 100 41 100 98 100 36 29 69 58 5 2 0 0 0 6 0 0 45 9 0 0 0 0 0 0 0 0 5 10 5 6 93 71 100 100 100 98
0 3 20 100 100 100 100 100 100 100 100 100 74 18 40 5 5 6 57 33 1 0 0 0 5 0 2 9 4 0 51 12 7 0 0 0 0 0 0 5 55 5 10 100 100 100 100 92 67
0 0 2 6 85 100 100 100 100 100 100 100 44 5 5 26 11 26 5 5 0 0 0 0 1 5 1 0 0 16 17 16 13 7 7 5 4 0 0 6 6 5 5 100 100 100 100 100 100
4 0 3 4 5 100 100 100 100 48 100 98 74 95 100 100 91 70 73 5 4 0 0 0 0 0 2 0 0 2 4 6 0 0 5 5 5 5 1 5 46 5 57 100 100 100 100 100 100
95 4 2 15 7 27 100 100 100 77 70 8 100 100 100 57 5 70 24 4 0 0 1 4 0 0 1 0 5 1 3 6 0 0 0 5 6 20 3 6 14 70 22 100 100 100 100 100 100
100 16 25 5 9 0 45 100 100 100 26 53 100 100 34 5 5 5 5 5 3 5 2 5 5 4 0 5 5 6 18 6 7 3 3 6 35 100 21 5 21 96 5 39 100 100 100 100 81
88 47 2 38 4 0 0 23 100 100 100 100 100 99 7 5 5 5 4 1 0 1 4 5 5 5 5 100 67 34 25 68 13 16 13 24 14 50 21 75 24 89 94 74 88 55 100 98 61
99 100 87 40 31 3 4 28 100 16 100 100 100 83 38 5 2 0 0 0 0 0 0 1 5 44 77 78 45 39 30 10 26 30 33 24 25 24 32 62 87 44 58 87 100 100 100 100 100
66 100 80 100 13 4 4 15 100 64 100 100 100 100 88 5 5 2 0 4 0 0 0 1 5 65 85 89 37 75 75 42 47 40 32 36 41 43 42 64 100 100 100 100 100 98 79 79 52
100 44 51 74 8 2 9 13 6 21 100 100 100 100 86 7 5 5 5 0 2 0 0 2 4 5 5 2 3 30 14 8 31 32 51 60 67 50 66 100 73 20 32 7 5 0 4 2 0
93 91 98 23 10 7 5 4 5 81 100 100 100 82 69 71 12 5 0 0 0 0 0 5 5 5 84 100 48 38 45 52 49 19 6 5 0 0 0 2 5 5 2 4 2 0 0 4 38
84 100 42 48 5 76 10 9 59 84 74 56 28 29 6 5 5 0 0 0 0 0 0 100 88 8 90 85 66 5 5 2 2 0 3 0 0 0 0 0 0 0 0 0 1 4 41 54 12
45 100 28 73 81 28 4 4 76 66 84 67 59 8 5 0 0 0 0 0 0 2 5 5 96 100 87 96 86 43 41 99 96 8 5 0 0 0 1 5 4 5 12 37 48 61 68 59 27
100 96 41 100 100 5 5 4 83 68 5 25 5 5 0 0 0 0 0 0 0 4 5 52 77 46 96 88 79 100 100 100 76 6 5 4 0 0 0 2 5 5 6 12 5 5 2 4 6
93 98 80 100 46 38 72 3 4 63 5 5 5 5 0 0 1 0 0 0 0 4 5 64 65 64 46 70 68 70 19 5 5 5 4 5 5 5 5 5 4 4 0 0 2 1 0 0 0
97 100 100 100 83 100 76 51 5 63 5 5 5 5 4 5 5 0 3 5 5 5 5 92 100 99 66 5 7 36 5 2 5 5 5 29 37 61 10 22 0 1 0 1 5 5 5 3 0
84 100 100 100 100 80 5 35 0 10 10 5 96 6 5 5 2 2 10 86 14 5 55 61 68 5 5 5 4 0 0 0 0 0 0 0 0 0 1 4 5 25 44 16 4 5 4 0 4
100 100 100 100 84 5 5 43 5 17 36 5 11 5 5 2 1 3 5 5 5 72 47 5 5 0 0 0 0 0 0 0 0 0 4 5 5 4 5 5 5 17 6 5 5 10 10 6 5
100 39 72 40 44 5 5 1 0 50 6 5 5 8 5 3 0 3 5 2 5 7 2 5 1 0 0 2 4 2 5 2 5 2 5 5 5 7 68 7 5 5 13 38 5 5 6 5 5
100 92 100 51 5 74 4 1 0 5 5 5 5 5 5 5 0 0 4 0 4 1 0 0 0 1 2 0 0 4 0 5 5 5 5 8 94 35 5 60 57 26 5 5 5 36 5 5 7
40 91 100 5 38 54 16 29 6 0 2 5 5 3 0 2 0 0 0 3 0 0 0 0 0 0 0 0 0 0 0 5 5 5 18 98 73 47 100 100 72 52 75 20 6 8 43 5 2
99 84 96 45 7 95 65 36 2 0 0 5 0 0 0 0 0 0 0 0 0 0 0 0 0 0 0 0 0 0 5 5 5 53 92 80 99 100 86 74 55 52 68 63 7 5 5 4 0
65 100 96 46 27 3 7 19 0 0 0 0 0 0 0 0 0 0 0 0 0 0 0 0 0 0 0 0 0 5 5 6 95 60 84 100 68 67 70 64 95 92 6 11 5 5 0 0 0

GFSSGP_prec_cloud_024.txt.gz
Cloud_Cover
100 100 100 97 58 100 100 100 100 100 100 50 5 76 44 46 100 100 100 6 8 59 3 2 0 0 0 92 100 60 0 0 0 0 0 2 52 3 0 0 46 50 98 0 0 4 38 92 31
100 100 100 100 44 98 100 100 100 100 100 9 5 9 99 99 100 100 94 33 100 100 92 85 45 22 55 55 100 36 0 0 0 0 0 40 27 33 0 0 0 0 0 0 0 0 0 0 0
49 100 100 100 100 100 56 100 99 100 100 94 5 15 11 99 100 100 100 100 100 100 100 100 89 57 28 1 39 17 0 0 0 0 0 1 52 88 99 16 0 0 0 0 0 0 0 0 0
0 100 100 100 100 87 18 94 100 100 100 100 100 100 5 37 99 100 100 100 100 100 100 100 50 6 5 0 1 0 0 0 0 0 0 1 7 20 45 0 0 0 0 0 0 0 0 0 1
0 4 97 100 100 100 87 62 100 86 100 100 100 82 19 14 100 100 100 100 100 100 99 86 3 0 0 0 0 0 0 0 0 0 0 5 1 34 98 80 0 0 0 0 0 0 0 0 87
0 0 34 100 100 99 100 24 84 88 100 100 100 100 79 67 100 100 100 100 100 100 100 62 5 0 0 0 0 0 0 0 0 0 0 0 3 0 79 7 0 3 0 0 3 5 2 13 8
0 0 0 99 100 96 100 95 32 5 100 93 100 100 80 100 100 100 100 100 100 100 100 40 5 0 0 0 0 0 0 0 0 0 0 0 0 0 0 0 0 5 0 2 5 5 4 3 53
0 0 0 82 100 100 100 100 100 18 100 97 100 76 71 100 22 69 100 100 100 46 38 4 0 0 0 0 0 0 0 0 0 0 0 0 0 0 0 0 0 0 5 5 5 5 5 96 100
0 0 0 2 82 100 100 100 78 88 96 100 100 94 63 99 77 9 14 94 100 100 85 5 2 0 0 0 0 0 0 0 0 0 0 0 0 0 0 0 0 0 4 5 39 5 10 6 97
0 0 0 0 1 64 100 100 100 100 100 100 100 84 5 65 85 99 58 99 100 100 86 3 0 0 0 0 0 0 0 0 0 0 0 0 0 4 0 0 0 0 0 10 92 18 16 100 100
0 0 0 0 0 6 95 100 100 100 100 100 98 10 97 100 74 5 6 58 96 45 5 4 0 0 0 0 0 0 0 0 0 0 5 4 2 4 5 5 5 0 3 2 52 50 8 100 100
72 0 0 0 2 42 23 97 100 100 100 100 77 70 8 100 75 64 100 73 74 6 5 4 0 0 0 0 0 2 22 0 0 0 2 0 0 4 5 5 5 5 5 5 65 31 28 100 100
57 46 1 2 0 6 85 39 100 100 100 100 92 100 81 100 100 100 100 52 100 69 0 0 0 0 0 0 0 0 45 5 2 1 3 5 5 5 5 5 5 10 5 10 74 28 42 100 100
55 97 21 64 20 3 28 1 0 87 100 100 100 100 96 24 5 44 100 100 74 5 2 4 0 0 0 4 1 32 90 82 45 79 57 15 5 5 0 5 42 100 100 98 100 100 100 100 100
6 88 84 5 21 49 35 0 0 0 0 8 100 100 19 81 28 80 27 51 98 5 4 1 0 5 5 3 26 14 100 80 100 91 92 82 2 25 25 26 91 80 100 100 100 100 100 91 35
96 71 86 0 10 5 73 2 0 0 0 0 95 100 100 100 100 98 25 19 5 5 5 5 1 3 2 5 8 71 100 100 96 100 98 100 100 96 14 100 100 100 96 76 31 17 36 27 13
20 29 4 5 5 14 5 2 0 0 0 6 100 98 82 100 100 100 100 100 53 12 5 5 5 5 1 3 8 100 100 94 99 22 100 100 93 45 94 88 17 0 0 5 28 50 67 54 6
15 25 3 5 0 33 5 10 0 0 0 6 78 100 94 100 100 100 100 100 35 7 5 5 3 0 3 5 5 35 64 10 61 63 18 0 0 0 0 0 0 0 0 0 0 0 0 0 0
5 20 90 5 34 39 5 1 0 0 0 55 100 100 97 100 100 100 100 6 6 45 14 40 5 53 36 7 5 8 66 57 66 29 5 0 5 40 30 5 4 0 0 0 0 0 1 4 1
59 41 51 42 87 48 2 4 2 5 0 97 98 28 79 100 45 98 67 61 83 10 3 0 5 8 28 100 82 94 68 95 97 100 100 100 100 85 5 0 0 0 0 0 0 3 2 4 4
100 65 4 18 9 100 74 17 16 0 19 98 16 5 18 16 44 42 92 76 5 0 0 5 5 5 5 5 8 23 11 5 5 5 31 5 5 4 5 4 4 4 5 5 3 5 5 4 3
88 1 31 83 95 79 69 4 0 0 5 2 54 5 76 5 36 100 80 4 0 1 5 5 5 5 5 5 5 5 5 5 5 5 5 5 0 2 2 0 0 0 1 0 1 5 9 5 6
14 1 62 100 100 64 78 68 0 0 66 61 42 25 55 10 96 68 5 1 0 5 5 5 5 5 5 5 5 5 5 1 0 0 0 0 0 0 0 2 0 0 0 0 0 5 5 0 5
4 91 93 64 100 99 54 41 0 0 80 1 5 5 21 83 57 6 5 5 0 5 16 8 5 5 5 12 5 5 5 3 3 0 0 0 0 0 0 2 5 5 5 54 21 5 1 0 1
100 100 100 100 100 91 0 16 0 0 5 5 5 5 5 50 67 5 5 5 4 16 65 97 87 66 100 26 2 0 0 1 0 0 0 0 0 4 5 5 5 5 7 5 5 5 5 28 36
100 100 100 76 100 54 6 12 0 1 86 10 5 5 5 24 77 30 5 5 2 5 5 5 7 12 3 0 0 0 0 0 0 0 0 0 3 5 5 5 5 5 5 5 5 5 6 5 35
100 100 100 99 87 66 6 4 0 4 5 40 5 5 28 7 36 10 5 2 5 5 5 5 5 2 0 0 0 0 0 0 0 0 0 5 6 46 58 57 23 5 5 5 5 5 5 15 28
100 100 99 80 54 21 76 10 0 0 5 5 42 5 8 5 5 5 5 5 0 0 3 5 5 0 1 0 0 0 0 0 0 4 5 7 60 6 61 88 5 5 5 5 18 78 61 35 37
100 100 46 32 44 83 94 76 3 3 5 5 5 5 5 5 7 5 5 0 0 0 0 0 0 0 0 0 0 0 0 0 4 5 11 60 48 73 75 72 61 5 38 91 77 42 32 6 5
100 100 83 97 80 100 100 4 0 0 0 3 5 5 5 5 5 5 3 0 0 0 0 0 0 0 0 0 0 0 0 3 5 5 52 10 53 61 100 70 92 100 68 19 5 5 23 5 4

GFSSGP_prec_cloud_027.txt.gz
Cloud_Cover
2 70 100 100 100 100 100 96 43 100 100 100 74 55 2 0 0 83 100 100 100 100 100 20 2 5 8 66 95 7 0 0 0 0 0 0 3 3 0 0 0 49 0 0 0 0 16 94 92
0 0 77 100 100 100 100 78 77 100 100 100 100 100 59 5 1 4 82 100 100 100 78 62 88 100 100 74 18 2 1 0 0 0 0 25 69 66 0 0 0 0 0 0 0 0 0 0 0
0 0 0 41 100 100 100 100 5 100 100 100 100 100 44 4 0 1 100 100 100 99 100 99 100 100 100 92 74 16 3 0 0 0 0 8 64 88 29 0 0 0 0 0 0 0 0 0 0
0 0 0 0 98 100 100 100 97 100 96 100 100 100 100 99 6 2 97 100 100 100 100 100 100 100 100 100 100 86 4 3 0 0 0 0 2 73 37 0 0 0 0 0 0 0 0 0 0
0 0 0 0 5 100 100 100 100 100 96 97 100 22 100 100 100 6 96 100 100 100 100 95 100 100 100 98 93 15 1 0 0 0 0 0 0 0 40 24 0 0 0 0 0 0 0 0 0
0 0 0 0 0 2 98 100 100 100 79 98 100 92 100 100 100 100 100 91 100 100 100 100 100 100 100 100 5 5 1 0 0 0 0 0 0 0 0 0 0 0 0 2 0 3 1 10 26
0 0 0 0 0 0 37 100 100 100 100 100 100 82 22 96 57 100 100 20 86 100 100 100 100 100 98 6 15 5 0 0 0 0 0 0 0 0 0 0 0 0 0 0 0 5 0 2 5
0 0 0 0 0 0 4 86 100 100 100 100 100 86 20 98 91 14 75 100 100 100 100 100 100 100 100 99 19 4 0 0 0 0 0 0 0 0 0 0 0 0 0 0 0 2 0 5 5
0 0 0 0 0 0 0 7 100 81 100 100 100 8 5 80 64 22 97 76 100 100 100 100 100 100 100 100 58 2 1 0 0 0 0 0 0 0 0 0 0 0 0 0 0 3 3 88 88
0 0 0 0 0 0 0 3 54 100 100 100 100 39 5 69 53 98 100 46 5 32 46 10 52 78 19 36 16 4 0 0 0 0 0 0 1 0 0 2 3 0 0 0 0 0 0 5 78
0 0 0 0 0 0 0 5 5 89 100 100 100 94 6 94 100 97 1 89 100 100 76 69 40 5 10 6 5 0 0 0 0 0 0 0 2 1 1 0 5 4 2 0 0 0 2 0 7
36 0 0 0 0 0 0 5 4 43 27 96 41 99 60 7 94 10 6 80 47 38 5 22 5 5 49 63 4 1 1 0 0 0 2 3 8 44 6 4 5 5 5 5 5 2 23 20 95
0 0 0 0 0 0 0 1 0 0 8 5 5 84 25 29 98 95 94 99 5 5 5 5 38 37 99 30 5 0 2 32 14 5 5 0 3 4 5 5 5 5 16 41 68 100 100 100 71
1 1 0 0 0 0 0 2 1 0 0 4 5 78 78 12 53 92 100 77 4 23 66 24 62 100 63 50 2 0 10 100 100 82 100 46 3 4 5 48 54 100 100 100 100 100 100 100 58
6 7 4 0 0 0 0 1 5 0 0 0 0 100 100 98 100 66 50 77 5 45 100 23 100 100 100 100 4 4 100 100 100 100 100 100 49 5 56 63 96 100 100 100 100 92 19 5 5
5 5 5 3 4 4 98 1 0 0 0 0 0 94 100 100 94 97 82 100 46 53 14 6 6 8 41 5 5 32 100 100 100 100 100 100 100 100 100 100 100 100 97 35 0 0 0 0 5
6 44 17 3 5 5 48 3 0 0 0 0 0 4 80 88 100 100 100 100 100 100 94 33 66 5 5 76 5 80 100 100 100 100 100 100 96 77 82 73 35 0 0 0 0 0 0 0 0
60 65 46 5 2 8 5 5 0 0 0 0 0 0 0 0 28 11 100 100 100 99 100 100 100 100 61 64 15 11 100 100 100 100 90 82 14 9 8 3 0 4 3 1 0 0 0 0 0
7 5 63 4 5 3 2 5 0 0 0 0 0 0 0 4 7 7 85 97 100 100 100 100 100 100 60 37 5 5 5 41 8 13 78 96 64 88 71 93 64 20 5 2 0 0 0 0 0
6 8 6 2 5 22 3 0 0 0 0 0 0 0 0 13 7 76 100 97 100 96 92 78 11 71 37 5 5 5 5 5 12 5 10 12 47 24 16 5 5 5 1 5 4 0 0 0 0
31 90 5 5 18 5 5 5 0 0 0 0 0 0 0 5 3 100 88 38 21 48 74 71 97 69 28 5 5 5 5 1 2 1 2 5 33 65 45 5 2 0 0 0 0 0 0 0 0
5 37 56 24 95 99 98 86 0 0 0 0 0 0 0 25 8 98 5 38 96 91 20 16 53 4 5 5 5 5 1 0 5 5 3 4 1 4 0 0 0 0 0 0 0 0 0 0 0
100 100 100 76 51 100 80 100 6 0 0 0 0 0 4 91 8 63 55 80 34 6 5 17 5 2 3 5 1 5 3 55 92 54 0 5 1 0 0 0 0 0 4 5 5 4 5 0 0
100 99 68 61 55 100 100 100 21 0 0 0 0 0 4 48 5 24 52 86 72 8 5 5 2 4 0 5 5 57 51 5 0 0 0 0 0 0 0 0 0 5 5 5 5 5 5 5 0
100 100 91 91 97 60 14 94 66 0 0 0 0 0 23 6 5 5 47 79 32 7 5 5 3 3 5 5 8 19 5 0 0 0 0 0 0 0 0 0 4 5 5 5 5 5 5 3 0
14 60 85 43 2 47 100 100 2 0 0 0 0 0 67 24 11 19 100 68 17 6 5 5 5 5 1 3 0 0 0 0 0 0 0 0 0 0 3 5 5 5 5 5 5 5 5 5 5
14 98 8 80 100 100 100 100 9 0 0 0 0 0 46 12 5 63 57 29 5 5 7 8 4 0 0 0 0 0 0 0 0 0 0 0 1 5 5 5 12 5 5 5 5 5 5 5 5
98 17 100 100 100 100 100 100 0 0 0 0 2 5 15 5 5 10 9 5 5 5 30 5 5 0 0 0 1 0 0 0 0 0 0 0 5 5 5 63 39 10 5 7 32 5 21 48 49
100 100 100 100 100 100 100 62 0 3 5 1 0 0 5 14 18 5 5 5 5 5 5 5 5 2 1 5 2 0 0 0 0 0 3 5 5 5 59 90 76 75 68 56 34 80 96 99 59
100 100 100 100 100 100 90 69 0 5 5 2 0 0 5 5 6 21 5 5 5 5 5 5 5 5 5 2 0 0 0 0 0 0 5 12 80 83 60 77 79 80 90 100 100 96 11 5 5

GFSSGP_prec_cloud_030.txt.gz
Cloud_Cover
0 0 9 99 100 100 100 100 82 91 22 99 75 93 7 5 4 5 24 5 9 42 44 96 100 100 100 98 5 3 5 0 0 0 0 0 0 3 0 0 0 0 0 0 0 0 11 27 2
0 0 0 0 33 100 100 100 80 99 100 89 17 5 99 95 2 1 4 4 1 50 100 99 100 89 72 11 8 100 9 5 3 0 0 18 95 39 0 0 0 0 0 0 0 0 0 0 0
0 0 0 0 0 95 100 100 100 100 100 100 40 25 24 100 100 30 63 78 5 5 48 100 72 100 44 5 100 99 98 81 92 9 9 10 74 44 31 0 0 0 0 0 0 0 0 0 0
0 0 0 0 0 0 98 100 100 100 100 100 70 54 59 99 100 100 100 97 5 5 16 100 99 98 62 100 100 100 100 21 43 99 72 5 16 10 0 0 0 0 0 0 0 0 0 0 0
0 0 0 0 0 0 1 79 100 100 100 100 91 51 14 23 93 100 100 100 94 5 5 96 100 65 86 100 100 100 100 66 99 14 2 1 1 71 6 0 0 0 0 0 0 0 0 5 0
0 0 0 0 0 0 0 0 68 100 100 100 100 100 100 64 99 84 100 100 100 77 10 85 100 100 100 100 100 100 100 100 100 19 4 5 3 29 0 0 0 0 0 0 0 1 0 5 69
0 0 0 0 0 0 0 0 0 91 100 100 100 95 100 8 91 88 97 100 100 100 100 50 100 100 100 100 100 100 100 97 49 22 57 5 2 2 0 0 0 0 0 0 0 0 0 5 5
0 0 0 0 0 0 0 0 0 0 0 99 100 96 100 20 19 9 34 62 75 96 100 100 100 100 100 100 100 100 100 100 100 32 20 5 1 3 0 0 0 0 0 0 0 0 0 0 4
0 3 2 0 0 0 0 0 0 0 0 45 100 90 71 58 100 99 99 100 100 100 97 100 100 100 100 100 100 100 100 100 100 91 35 12 2 0 0 0 0 0 0 0 0 0 0 0 3
0 27 0 0 0 0 1 3 0 0 0 0 52 100 88 8 100 100 81 67 96 67 100 38 100 90 98 100 100 62 46 71 15 40 5 2 0 0 0 3 5 5 5 5 5 5 1 0 0
0 27 0 0 0 0 0 0 0 0 0 0 0 48 99 99 100 100 100 5 32 100 100 87 82 26 56 56 100 73 37 20 10 4 3 0 4 5 5 5 2 2 3 5 5 5 5 4 3
0 0 0 0 0 0 0 0 0 0 0 0 0 0 36 99 100 100 21 15 91 99 94 95 37 83 42 11 19 79 24 19 14 11 5 2 0 1 1 3 7 10 68 100 100 99 100 100 100
0 0 0 0 0 0 0 0 0 0 0 0 0 0 0 26 74 100 41 6 6 5 8 53 24 66 8 5 5 36 8 21 18 61 16 5 0 3 1 59 77 100 100 93 100 100 100 100 100
0 0 0 0 0 0 0 0 0 0 0 0 0 0 0 13 100 100 100 6 9 24 50 5 18 62 5 10 8 5 6 24 78 100 91 89 85 42 42 11 11 20 100 100 100 100 100 100 39
0 0 0 0 0 0 0 0 0 0 0 0 0 0 0 0 64 100 100 95 76 100 100 100 5 35 76 97 95 98 97 100 100 100 100 100 100 56 73 58 88 99 100 100 100 100 16 5 5
9 2 3 0 0 0 16 3 0 0 0 0 0 0 0 0 3 16 98 100 100 83 100 33 5 64 57 100 98 56 100 100 100 100 100 100 100 100 100 100 100 100 93 33 0 0 0 0 0
6 21 5 5 0 0 0 0 0 0 0 0 0 0 0 0 0 4 30 99 100 100 100 100 14 100 68 100 62 74 100 100 100 100 100 100 100 94 78 51 6 5 5 5 5 1 0 0 0
20 5 5 4 2 0 0 0 0 0 0 0 0 0 0 0 0 0 3 94 100 100 98 82 84 100 100 100 80 75 100 100 100 100 100 98 12 5 6 7 5 28 52 57 5 5 5 5 4
5 5 5 5 5 4 4 5 5 5 0 0 0 0 0 0 0 0 0 36 100 100 100 100 100 100 100 100 100 100 100 100 100 100 69 3 5 5 0 15 60 62 8 5 5 5 8 16 3
7 12 14 5 5 50 25 2 0 0 0 0 0 0 0 0 0 0 0 3 5 25 92 84 100 100 100 100 100 100 94 43 100 70 1 0 0 0 0 3 0 0 2 0 0 0 0 0 0
5 47 33 20 5 3 97 8 0 0 0 0 0 0 0 0 0 0 0 5 5 5 5 77 64 51 100 100 100 50 41 53 59 1 0 5 5 2 0 0 0 0 0 0 0 0 0 0 0
8 67 48 7 74 36 48 45 0 0 0 0 0 0 1 0 0 0 3 5 5 34 22 56 56 59 63 82 73 5 28 40 0 2 5 5 5 0 0 0 0 0 0 0 0 0 0 2 5
50 100 84 74 100 89 7 91 6 0 0 0 0 0 0 0 0 0 3 5 64 68 95 22 5 49 90 77 55 5 5 3 5 4 4 5 0 0 0 0 0 0 0 0 0 0 0 2 0
73 100 100 100 100 92 1 19 0 0 0 0 0 0 0 0 0 0 3 5 80 43 12 31 80 66 5 8 5 5 5 5 5 2 0 0 0 0 0 0 0 0 0 0 0 5 5 4 3
100 100 100 100 100 36 4 3 0 0 0 0 0 0 0 0 1 0 3 5 23 21 66 62 30 5 44 5 5 5 5 0 0 0 0 0 0 0 0 0 0 0 0 1 5 5 5 5 3
100 100 100 100 75 4 95 10 0 2 0 0 0 0 0 0 0 0 15 55 51 9 75 18 5 43 7 5 5 5 0 0 0 0 0 0 0 0 0 0 0 0 5 5 5 5 4 5 5
17 98 100 100 100 100 67 0 52 88 0 0 0 0 0 0 0 0 49 10 8 5 15 59 63 28 5 5 5 4 2 5 3 0 0 0 0 0 0 0 0 4 5 5 5 5 5 5 5
88 72 96 100 83 69 3 1 5 24 0 0 0 0 0 0 0 0 61 20 5 5 26 35 6 5 5 5 5 1 5 5 2 0 0 0 0 0 1 5 5 5 5 5 5 5 5 5 5
100 92 98 5 3 36 51 7 11 68 4 4 0 8 4 0 0 0 38 5 5 33 68 24 22 8 5 5 5 5 5 5 0 0 0 0 0 4 5 5 5 5 5 5 5 5 5 5 5
100 76 37 99 98 100 100 100 100 99 100 100 100 100 73 0 0 5 50 6 34 71 28 5 15 35 5 5 5 5 5 2 2 5 5 5 4 2 5 19 57 5 5 5 43 60 7 5 5

GFSSGP_prec_cloud_033.txt.gz
Cloud_Cover
0 0 0 0 1 44 85 100 100 100 81 6 5 5 8 71 15 57 6 5 5 12 18 3 0 5 36 100 96 86 100 85 5 2 0 0 0 0 0 0 0 0 0 0 0 0 0 44 5
0 0 0 0 0 0 1 82 100 100 100 94 5 30 36 83 79 91 64 22 5 52 20 3 4 0 56 28 100 77 8 27 5 0 1 6 78 19 0 0 0 0 0 0 0 0 0 0 0
0 0 0 0 0 0 0 73 100 100 100 100 93 19 35 10 54 96 90 9 43 48 9 0 0 6 20 91 89 100 64 31 39 5 10 32 99 81 38 38 45 7 0 0 0 0 0 0 0
0 0 0 0 0 0 0 0 29 100 100 100 100 77 64 32 33 26 78 97 60 74 5 5 4 0 19 100 99 81 100 100 97 6 8 44 100 100 5 0 0 0 0 0 0 0 0 0 0
0 0 0 0 0 0 0 0 0 93 100 100 100 100 100 100 93 8 5 68 100 100 99 33 5 5 12 5 76 100 100 100 100 100 100 49 86 100 47 4 3 0 0 0 0 0 0 0 0
0 0 0 0 0 0 0 0 0 0 66 100 100 100 100 100 100 100 62 5 62 100 100 100 100 52 23 5 15 100 100 100 94 84 82 77 100 98 18 5 5 1 0 3 0 0 0 0 4
0 0 0 0 0 0 0 0 0 0 0 72 100 100 100 100 100 100 100 79 66 48 100 100 100 100 98 5 13 60 100 100 100 100 100 96 80 90 100 29 5 5 4 2 0 0 0 0 0
0 0 0 0 0 0 0 0 0 0 0 0 46 100 100 100 100 100 100 100 100 90 100 100 100 100 100 100 100 99 100 100 100 100 100 100 100 100 100 41 5 5 0 0 0 0 0 0 0
0 0 3 0 0 0 0 0 0 0 0 0 0 4 91 100 100 100 100 100 100 98 100 66 74 94 100 100 100 100 100 100 100 100 100 100 42 39 40 4 5 1 0 0 0 3 2 4 0
0 31 0 0 0 0 0 0 0 0 0 0 0 0 0 52 100 100 100 100 100 73 69 91 71 60 44 54 13 23 98 100 100 88 26 15 26 59 27 6 4 0 4 5 5 42 64 56 53
0 20 0 0 0 0 0 0 0 0 0 0 0 0 0 0 79 100 100 100 100 96 98 87 98 63 45 40 31 41 32 42 38 34 92 74 42 74 5 5 5 5 5 5 5 32 22 17 31
0 0 0 0 0 0 0 0 0 0 0 0 0 0 0 0 0 0 4 100 100 100 100 100 100 100 87 92 41 36 35 97 35 8 11 33 10 5 5 5 5 3 4 2 1 16 92 100 100
0 0 0 0 0 0 0 0 0 0 0 0 0 0 0 0 0 0 0 69 100 97 100 99 52 87 83 100 35 62 25 30 18 14 36 21 51 15 13 0 2 0 1 99 100 100 100 100 100
0 0 0 0 0 0 0 0 0 0 0 0 0 0 0 0 0 0 0 0 76 100 100 100 42 25 88 98 98 74 15 13 80 98 100 100 100 100 100 71 42 68 100 100 100 100 100 95 18
2 1 0 0 0 0 0 0 0 0 0 0 0 0 0 0 0 0 0 0 0 75 100 100 61 27 33 71 98 79 37 100 98 100 100 100 100 100 99 100 97 57 62 100 100 74 0 5 4
38 9 1 0 0 0 0 0 0 0 0 0 0 0 0 0 0 0 0 0 0 1 26 5 34 33 86 100 100 36 100 100 100 100 90 100 100 100 100 100 100 57 28 0 1 5 5 2 5
5 8 4 3 0 0 0 0 0 0 0 0 0 0 0 0 0 0 0 0 0 0 86 5 5 56 100 100 84 80 100 100 100 100 100 100 100 100 100 83 5 5 1 2 2 2 5 5 5
5 54 78 5 0 0 0 0 0 0 0 0 0 0 0 0 0 0 0 0 0 0 1 22 29 5 77 100 100 100 100 100 100 100 100 100 100 73 87 9 5 0 0 0 2 3 5 4 2
4 7 36 5 5 4 0 3 0 0 0 0 0 0 0 0 0 0 0 0 0 0 0 32 56 29 72 94 100 100 100 100 100 100 100 100 100 100 52 5 5 0 0 0 0 0 0 0 0
6 89 54 5 5 5 3 0 0 0 0 0 0 0 0 0 0 0 0 0 0 0 0 0 44 100 97 100 100 100 100 100 100 100 100 100 99 75 6 5 2 0 0 0 0 0 0 0 0
5 30 54 10 4 0 3 0 0 0 0 0 0 0 0 0 0 0 0 0 0 0 0 0 7 68 96 100 100 100 100 100 100 100 100 90 73 10 5 3 0 0 0 0 0 0 0 0 0
100 8 5 5 26 43 4 15 0 0 0 0 0 0 0 0 0 0 0 0 0 0 0 0 5 24 56 100 100 100 100 100 100 99 31 68 24 28 5 0 0 0 0 0 0 0 0 0 0
70 50 84 42 6 10 4 52 0 0 0 0 0 0 0 0 0 0 0 0 0 0 0 4 5 27 64 58 81 100 100 72 71 59 73 89 19 5 0 0 0 0 0 0 0 0 0 0 0
50 100 100 100 100 97 5 17 0 2 3 0 0 0 0 0 0 0 0 0 0 0 0 5 15 80 73 46 80 65 54 48 54 90 74 5 5 0 0 0 0 0 0 0 0 0 0 0 0
38 100 100 100 100 50 46 15 0 49 1 4 0 0 0 0 0 0 0 0 0 0 0 5 46 70 21 5 6 18 81 61 89 75 5 5 0 0 0 0 0 0 0 0 0 0 0 0 0
11 80 100 100 100 55 46 7 0 100 81 49 3 0 0 0 0 0 0 0 0 0 0 5 36 16 5 5 5 38 25 11 88 8 5 5 0 0 0 0 0 0 0 0 0 0 0 2 5
98 100 71 100 100 100 58 1 0 14 100 98 5 4 0 0 0 0 2 0 0 4 2 5 5 8 6 5 5 5 7 48 5 5 5 5 0 0 0 0 0 0 0 0 0 3 5 5 5
100 100 100 100 98 100 8 2 0 19 100 41 5 5 0 0 0 0 0 0 9 6 5 5 5 5 5 5 5 5 6 10 5 5 5 5 0 0 0 0 0 0 0 5 5 5 5 5 5
100 100 100 100 91 93 76 2 90 99 100 27 5 4 0 0 0 4 2 2 18 5 5 24 7 5 5 1 5 5 46 26 5 5 5 1 0 0 0 0 1 4 5 5 5 5 5 5 8
100 100 100 100 100 42 48 88 100 100 100 76 95 26 4 0 0 4 5 5 5 5 5 5 5 3 0 7 13 67 59 38 5 5 3 1 4 1 0 2 5 12 20 5 5 65 57 6 5

GFSSGP_prec_cloud_036.txt.gz
Cloud_Cover
0 0 0 0 0 0 0 0 5 80 100 92 99 54 67 5 8 57 7 15 5 4 35 0 0 48 0 0 0 0 5 44 18 5 5 5 5 4 0 0 0 0 0 0 0 11 99 96 100
0 0 0 0 0 0 0 0 3 53 89 100 78 46 96 81 86 76 89 76 5 8 20 0 0 0 0 0 0 0 2 61 17 5 4 4 26 0 5 4 4 2 3 0 0 4 4 2 2
0 0 0 0 0 0 0 0 0 2 72 98 100 100 71 77 54 67 90 98 42 50 14 0 0 0 0 0 0 0 0 1 15 7 5 100 100 22 5 1 3 0 0 4 0 0 0 0 0
0 0 0 0 0 0 0 0 0 0 1 2 92 100 100 100 100 91 96 62 99 90 35 5 1 0 0 82 0 0 2 0 0 5 14 100 100 92 5 5 5 5 16 5 2 0 0 0 0
0 0 0 0 0 0 0 0 0 0 0 0 2 57 100 100 100 100 26 37 71 74 45 100 45 1 0 55 1 2 9 4 5 5 5 67 98 95 11 31 15 16 5 5 8 5 2 0 1
0 0 0 0 0 0 0 0 0 0 0 0 0 73 100 100 100 100 100 85 23 98 35 20 100 59 5 5 8 5 4 0 0 1 4 11 91 100 97 95 58 6 4 70 100 28 4 0 0
0 0 0 0 0 0 0 0 0 0 0 0 0 3 100 100 100 100 100 100 100 100 93 25 36 100 100 100 99 15 6 51 5 4 0 65 100 100 100 96 55 79 100 62 20 5 1 0 0
0 0 0 0 0 0 0 0 0 0 0 0 0 0 0 95 100 100 100 100 100 100 100 100 99 47 98 100 100 100 74 74 100 87 69 99 100 100 100 100 100 100 69 32 5 3 0 0 0
0 0 2 0 0 0 0 0 0 0 0 0 0 0 0 5 100 100 100 100 100 100 100 100 100 68 40 45 100 97 38 93 98 100 5 12 41 100 100 100 100 59 54 49 5 3 0 0 0
0 30 0 0 0 0 0 0 0 0 0 0 0 0 0 0 31 100 100 100 100 94 100 100 100 100 100 98 100 59 18 25 5 30 25 50 12 80 99 75 74 5 5 5 5 5 4 5 4
0 11 0 0 0 0 0 0 0 0 0 0 0 0 0 0 0 0 66 100 100 100 100 100 100 100 100 100 100 100 63 34 7 5 29 6 7 15 13 49 66 7 3 2 5 5 5 40 1
0 0 0 0 0 0 0 0 0 0 0 0 0 0 0 0 0 0 0 32 99 100 100 100 100 100 100 100 100 100 100 56 47 6 8 5 42 48 71 65 5 5 5 5 6 42 92 100 100
0 0 0 0 0 0 0 0 0 0 0 0 0 0 0 0 0 0 0 0 0 48 86 96 100 100 100 99 100 100 100 100 59 14 23 69 92 72 15 5 5 5 33 85 100 100 100 100 96
7 0 0 0 0 0 0 0 0 0 0 0 0 0 0 0 0 0 0 0 0 0 0 1 100 100 96 100 90 87 100 100 81 100 100 100 100 100 98 100 100 100 100 100 100 100 81 3 0
6 0 0 0 0 0 0 0 0 0 0 0 0 0 0 0 0 0 0 0 0 0 0 0 0 0 5 6 70 59 100 100 100 100 100 100 100 100 100 100 100 92 83 100 48 10 5 2 2
90 84 30 0 0 0 0 0 0 0 0 0 0 0 0 0 0 0 0 0 0 0 0 0 0 0 0 2 8 19 15 78 100 100 100 100 100 100 100 100 100 100 8 68 57 18 5 2 0
75 11 26 4 0 0 0 0 0 0 0 0 0 0 0 0 0 0 0 0 0 0 0 0 0 0 0 0 5 5 28 100 100 100 100 100 100 100 100 100 100 54 71 81 87 6 5 5 1
16 44 5 4 0 0 0 0 0 0 0 0 0 0 0 0 0 0 0 0 0 0 0 0 0 0 0 2 5 14 24 100 100 100 100 100 100 100 100 100 100 24 58 100 30 5 5 12 0
24 39 72 66 5 7 4 0 0 0 0 0 0 0 0 0 0 0 0 0 0 0 0 0 0 0 0 0 4 5 5 56 100 100 100 100 100 100 87 88 74 98 100 84 5 5 60 3 0
5 72 66 8 2 0 0 0 0 0 0 0 0 0 0 0 0 0 0 0 0 0 0 0 0 0 0 0 0 5 27 100 100 100 100 100 100 100 97 100 100 97 49 11 24 49 5 0 0
5 50 52 19 2 0 2 0 0 0 0 0 0 0 0 0 0 0 0 0 0 0 0 0 0 0 0 0 0 4 100 100 100 100 100 100 100 94 100 78 56 54 75 46 54 8 0 0 0
97 12 6 31 53 69 3 15 0 0 0 0 0 0 0 0 0 0 0 0 0 0 0 0 0 0 0 0 4 5 58 100 100 100 100 100 100 100 83 58 32 61 73 49 6 5 0 0 0
53 6 8 52 64 72 36 57 0 0 0 0 0 0 0 0 0 0 0 0 0 2 3 0 0 0 0 0 5 76 40 90 100 100 100 40 15 15 50 52 68 88 49 5 5 0 0 0 0
70 88 98 91 100 98 5 31 0 0 0 0 2 0 0 0 0 0 0 0 0 0 0 0 0 0 0 0 14 68 83 100 100 100 65 8 34 68 35 50 72 16 5 5 0 0 0 0 0
86 100 99 100 100 34 36 64 0 0 0 1 1 5 5 5 0 0 0 0 0 0 0 0 0 0 0 71 100 100 100 100 80 14 19 24 50 49 64 41 32 5 5 4 0 0 0 0 0
31 40 46 71 23 5 5 38 0 0 0 38 5 57 65 12 1 0 0 0 0 0 0 4 0 0 94 100 100 100 79 23 5 5 5 19 62 36 76 60 5 5 4 0 0 0 0 0 0
88 99 53 94 7 100 8 2 0 0 0 3 80 2 57 31 5 0 0 0 0 0 0 0 0 32 51 95 69 99 42 6 5 5 5 49 56 26 65 23 5 3 0 0 0 5 5 5 5
69 100 100 100 100 100 10 4 0 0 0 5 100 6 27 8 5 2 0 0 0 1 0 5 16 21 27 5 42 73 35 5 4 5 5 5 42 41 22 5 3 5 0 0 3 5 5 5 5
100 100 100 100 100 100 43 51 68 1 2 92 100 62 4 22 5 0 0 0 0 0 0 20 86 99 42 5 68 62 20 5 5 5 17 11 17 5 5 4 5 4 0 5 5 5 5 5 5
100 100 100 100 100 100 100 12 61 98 57 100 100 100 8 5 5 5 0 0 0 0 1 48 100 80 30 5 72 60 61 5 29 5 13 5 5 5 5 5 5 0 5 5 5 5 5 5 5

GFSSGP_prec_cloud_039.txt.gz
Cloud_Cover
0 0 0 0 0 0 0 0 0 0 0 0 3 11 53 9 15 20 5 5 5 5 3 0 0 0 75 0 0 0 0 0 0 3 5 99 31 22 5 1 6 9 2 6 5 93 100 100 100
0 0 0 0 0 0 0 0 0 0 0 0 0 5 47 82 36 68 22 65 22 37 5 4 0 0 0 0 0 0 0 0 0 0 1 8 74 5 5 5 21 71 1 3 3 9 98 31 46
5 5 1 2 0 0 0 0 0 0 0 0 0 2 68 9 61 26 94 74 54 23 63 4 0 0 0 0 0 0 0 0 0 0 5 96 1 4 5 5 31 7 5 3 5 5 4 2 0
5 5 5 0 0 0 0 0 0 0 0 0 0 0 5 57 92 58 44 69 100 100 37 5 5 3 0 0 0 0 0 0 0 0 26 75 36 79 0 0 1 5 5 3 0 2 2 0 0
4 5 4 0 0 0 0 0 0 0 0 0 0 0 0 4 25 94 78 99 99 100 100 64 42 0 0 1 0 0 1 2 0 0 0 74 100 100 11 0 6 30 13 4 3 4 2 0 8
0 0 0 0 0 0 0 0 0 0 0 0 0 0 0 0 0 38 100 100 100 100 100 100 83 5 5 5 41 6 11 0 0 0 0 0 99 92 84 6 7 99 100 49 85 15 6 12 67
0 0 0 0 0 0 0 0 0 0 0 0 0 0 0 0 0 0 28 92 100 100 100 100 100 95 47 9 12 55 8 5 0 0 0 5 91 88 96 51 4 81 100 100 100 100 100 84 7
0 0 0 0 0 0 0 0 0 0 0 0 0 0 0 0 0 0 0 1 100 100 100 100 100 100 100 100 26 7 57 100 81 25 56 8 6 72 93 89 15 7 44 88 100 98 85 7 5
0 0 0 0 0 0 0 0 0 0 0 0 0 0 0 0 0 0 0 3 100 99 86 100 100 100 100 100 100 100 41 9 99 100 100 100 40 23 29 51 5 5 5 19 33 60 68 18 10
0 12 0 0 0 0 0 0 0 0 0 0 0 0 0 0 0 0 0 0 65 100 100 96 100 100 100 100 100 100 100 88 36 16 57 63 64 19 5 5 5 5 5 5 5 44 12 47 5
0 14 0 0 0 0 0 0 0 0 0 0 0 0 0 0 0 0 0 0 0 16 100 100 100 100 100 100 100 100 100 100 97 42 30 11 33 9 64 33 6 49 10 6 24 76 16 6 17
0 0 0 0 0 0 0 0 0 0 0 0 0 0 0 0 0 0 0 0 0 0 0 90 99 100 100 100 100 98 100 98 98 64 29 5 15 65 39 14 77 84 82 48 43 60 99 100 100
0 0 0 0 0 0 0 0 0 0 0 0 0 0 0 0 0 0 0 0 0 0 0 0 81 100 100 100 100 91 86 100 100 81 12 13 53 51 52 66 6 9 48 69 100 100 100 28 40
0 0 0 0 0 0 0 0 0 0 0 0 0 0 0 0 0 0 0 0 0 0 0 0 0 57 96 100 100 96 52 47 38 66 93 100 100 100 98 100 100 100 100 100 90 19 14 30 23
0 10 2 5 0 0 0 0 0 0 0 0 0 0 0 0 0 0 0 0 0 0 0 0 0 0 56 80 55 80 99 18 45 99 100 100 100 100 100 100 100 100 86 38 15 11 54 94 99
68 37 51 8 0 0 0 0 0 0 0 0 0 0 0 0 0 0 0 0 0 0 0 0 0 0 5 18 22 27 6 9 89 100 100 100 100 100 100 100 100 89 85 42 6 96 100 92 99
23 43 100 93 18 2 0 0 0 0 0 0 0 0 0 0 0 0 0 0 0 0 5 0 0 0 0 28 19 1 0 5 17 84 100 100 79 100 100 100 100 100 85 52 84 100 100 85 87
17 96 100 100 100 73 3 0 0 0 0 0 0 0 0 0 0 0 0 0 0 0 0 5 0 0 7 28 0 0 18 28 50 95 100 100 66 99 100 100 100 100 100 100 100 100 100 99 32
60 19 87 57 94 100 50 0 0 0 0 0 0 0 0 0 0 0 0 0 0 0 0 0 0 7 0 0 1 7 12 50 74 81 100 100 85 100 100 100 100 100 100 100 100 100 100 98 14
43 27 36 7 7 2 2 0 0 0 0 0 0 0 0 0 0 0 0 0 0 0 0 0 0 0 0 0 0 0 0 69 61 73 95 100 95 100 100 100 100 100 100 100 100 81 68 28 12
86 80 96 37 8 5 5 0 0 0 0 0 0 0 0 0 0 0 0 0 0 0 0 0 0 0 0 0 0 0 31 88 100 98 100 100 100 100 100 100 100 100 100 86 28 21 52 75 99
100 56 5 5 84 94 4 4 0 0 0 0 0 0 0 0 0 0 0 0 0 0 0 0 0 0 0 0 0 0 0 12 66 92 100 100 100 100 98 56 100 100 86 64 37 15 51 55 47
59 6 5 6 77 81 85 100 0 0 0 4 0 0 0 0 0 0 0 0 0 0 0 0 0 0 0 0 0 0 0 18 35 100 100 100 100 92 26 60 94 100 100 98 35 38 5 5 5
68 28 78 96 100 88 4 59 0 0 5 34 5 0 0 0 0 0 0 0 0 0 0 0 0 0 0 0 0 0 0 18 72 100 100 100 100 14 56 88 100 100 100 29 16 13 5 5 5
100 100 86 75 99 38 0 15 0 0 1 2 49 0 0 0 0 0 0 0 0 2 0 0 0 0 0 0 0 1 48 88 100 100 100 97 50 40 10 100 100 100 38 5 5 5 5 5 5
100 100 40 26 48 5 4 4 0 0 0 0 40 22 0 0 0 0 0 0 0 2 0 0 0 0 0 0 2 31 69 100 100 100 100 97 11 8 44 100 99 28 5 5 16 5 5 5 4
61 96 11 35 17 83 3 0 0 0 0 0 1 99 8 0 0 0 0 0 4 16 0 0 0 0 0 0 5 74 100 100 100 98 96 60 35 5 53 57 5 5 5 56 23 5 5 5 5
10 61 99 100 100 100 19 31 83 2 12 0 1 17 97 1 1 1 0 0 7 5 0 0 0 0 4 92 100 100 100 100 71 72 68 86 93 6 5 13 22 59 5 5 5 5 5 5 1
100 100 100 100 100 100 100 84 93 6 72 3 1 4 80 1 1 5 8 5 14 12 1 0 0 36 77 100 100 98 57 12 5 61 100 100 99 64 11 39 48 14 5 5 5 5 5 5 5
86 87 100 100 100 100 100 20 100 86 28 5 78 37 28 4 2 17 0 5 25 40 46 40 52 100 100 100 90 67 5 5 5 88 100 100 94 56 8 82 58 5 6 5 5 5 5 4 0

GFSSGP_prec_cloud_042.txt.gz
Cloud_Cover
0 0 0 0 0 0 0 0 0 0 0 0 0 0 0 2 5 43 5 5 5 5 5 4 91 85 1 0 0 0 0 0 0 1 0 4 23 9 5 17 5 5 4 8 44 100 100 100 100
0 0 0 0 0 0 0 0 0 0 0 0 0 0 4 5 5 5 5 5 23 11 5 24 3 1 0 0 0 0 0 0 0 0 0 0 1 0 4 54 5 5 4 4 6 100 98 100 61
0 0 0 0 0 0 0 0 0 0 0 0 0 0 4 5 6 16 33 5 18 36 75 6 0 54 6 0 0 0 0 0 0 0 0 0 0 0 0 1 5 4 0 0 4 5 26 58 4
0 0 0 0 0 0 0 0 0 0 0 0 0 0 1 20 5 46 25 5 75 64 16 94 57 0 0 0 0 0 0 0 0 0 0 0 0 0 0 0 0 0 5 0 0 2 5 5 5
5 5 0 5 3 5 0 0 0 0 0 0 0 0 0 3 57 53 9 47 79 38 75 29 8 78 9 0 0 0 0 0 0 0 0 0 0 0 0 0 0 0 0 5 5 4 5 27 97
5 5 4 14 5 2 0 1 0 0 0 0 0 0 0 0 2 6 63 79 64 84 46 57 19 5 5 5 5 0 0 0 0 0 0 0 0 0 0 0 0 0 0 0 14 5 4 99 100
4 0 5 83 56 4 0 0 0 0 0 0 0 0 0 0 0 0 1 12 12 41 100 99 93 100 100 100 98 83 3 1 5 5 2 3 4 5 0 0 0 0 62 97 99 95 76 33 43
2 0 5 42 14 0 0 0 0 0 0 0 0 0 0 0 0 0 0 0 0 2 5 84 100 100 100 100 100 100 92 6 5 38 100 100 100 74 7 4 5 21 100 97 89 17 77 5 5
3 0 5 2 0 0 0 0 0 0 0 0 0 0 0 0 0 0 0 0 0 0 2 6 32 100 100 100 100 100 100 100 100 67 36 26 15 30 13 68 100 100 95 42 47 5 5 4 5
5 5 3 0 0 0 0 0 0 0 0 0 0 0 0 0 0 0 0 0 0 0 0 4 6 48 91 100 100 100 100 100 100 100 100 100 100 96 99 37 47 100 85 89 99 20 5 10 57
21 14 0 0 0 0 0 0 0 0 0 0 0 0 0 0 0 0 0 0 0 0 0 0 4 46 56 82 89 100 100 100 100 100 100 100 100 100 95 43 7 5 21 18 25 16 28 38 67
77 5 5 5 2 1 0 0 0 0 0 0 0 0 0 0 0 0 0 0 0 0 0 4 2 67 99 95 69 90 100 100 97 94 99 100 100 100 100 80 63 37 9 12 22 29 14 100 78
79 36 25 5 0 0 0 0 0 0 0 0 0 0 0 0 0 0 0 0 0 0 0 0 0 1 12 100 100 100 90 100 100 96 50 38 56 63 48 94 71 27 82 89 43 10 76 65 98
92 17 5 5 0 0 0 0 0 0 0 0 0 0 0 0 0 0 0 0 0 0 0 0 0 0 1 100 100 98 100 100 100 98 64 20 23 64 50 77 91 100 100 100 96 65 55 85 100
44 45 5 5 5 0 0 0 0 0 0 0 0 0 0 0 0 0 0 0 0 0 0 0 0 0 0 10 100 62 24 64 100 86 29 82 75 57 77 91 100 90 100 100 100 71 89 97 92
26 58 20 5 5 4 0 3 0 0 0 0 0 0 0 0 0 0 0 0 0 0 0 0 0 0 0 0 14 12 21 47 72 14 69 100 73 91 89 96 100 72 68 100 100 100 100 100 100
40 30 41 58 5 5 1 1 5 5 3 0 0 0 0 0 0 0 0 0 0 0 0 0 0 0 0 0 0 13 32 43 71 48 29 38 94 79 85 85 91 81 5 10 83 100 100 100 97
5 10 29 8 34 5 5 9 100 58 8 4 0 0 0 0 0 0 0 0 0 0 0 0 0 0 0 0 0 18 80 92 97 52 2 30 66 70 35 69 47 6 5 53 80 100 97 100 100
23 19 7 64 51 5 5 5 99 100 100 100 17 4 0 0 0 0 0 0 0 0 0 0 0 0 0 0 0 28 76 55 15 6 16 52 66 40 13 87 41 5 7 22 100 100 100 100 100
27 16 6 5 20 5 6 6 5 88 92 90 89 35 5 0 0 0 0 0 0 0 0 0 0 0 0 0 0 7 17 59 78 100 90 100 100 100 100 65 6 96 100 100 100 100 100 100 100
50 16 46 24 5 5 5 7 5 5 57 94 95 57 4 5 1 0 0 0 0 0 0 0 0 0 0 0 3 17 8 70 100 100 100 90 94 100 100 95 100 57 42 45 98 92 98 100 98
100 100 32 24 74 39 48 1 5 5 83 75 9 5 0 0 0 0 0 0 0 0 0 0 0 0 0 0 0 0 0 21 98 100 100 100 97 99 80 26 13 59 69 77 100 96 64 63 85
97 66 54 100 100 99 34 94 0 12 41 6 3 0 0 0 0 0 0 0 0 0 0 0 0 0 0 0 0 0 1 61 88 100 100 100 98 100 63 34 55 99 42 69 100 83 52 85 84
75 56 77 98 99 79 5 33 0 25 4 1 0 0 0 0 0 0 0 0 0 0 0 0 0 0 0 0 0 0 16 5 54 100 100 100 100 100 46 5 12 9 32 32 100 58 62 26 44
99 98 81 76 99 5 0 2 0 5 0 0 0 0 0 0 0 0 0 0 0 0 0 0 0 0 0 0 0 0 2 44 81 72 98 100 98 22 97 5 5 5 18 5 42 5 5 5 5
100 100 16 5 8 5 2 1 0 0 0 0 0 0 0 0 0 0 0 0 0 0 0 0 0 0 0 0 0 0 39 100 98 91 100 100 75 98 46 18 5 29 5 57 7 5 5 5 5
98 93 47 96 83 55 1 0 0 1 4 4 0 0 0 0 0 0 0 0 5 0 0 0 0 0 0 0 0 0 36 100 100 100 93 100 84 77 4 24 8 5 5 5 5 5 5 6 7
93 58 88 99 84 68 5 4 4 98 100 69 5 0 0 0 0 0 0 0 5 5 1 0 0 0 0 1 0 0 71 100 100 100 100 100 88 6 5 17 57 6 5 5 5 8 13 33 36
98 100 84 99 87 99 87 7 100 23 100 100 47 16 0 0 0 1 5 5 65 4 0 5 0 0 0 5 4 10 99 100 100 100 100 51 20 5 5 10 21 68 64 44 69 62 43 8 30
8 64 95 100 94 100 100 41 60 93 100 9 6 5 90 4 0 4 53 14 97 48 7 5 4 0 5 5 16 50 100 100 100 100 95 88 89 5 5 5 84 90 61 83 72 22 24 5 10

GFSSGP_prec_cloud_045.txt.gz
Cloud_Cover
5 4 0 0 0 0 0 0 0 0 0 0 0 0 2 4 90 76 46 2 0 2 2 3 0 4 1 0 3 19 2 5 5 14 9 30 30 0 3 44 12 35 85 6 96 47 25 100 100
5 4 0 0 0 0 0 0 0 0 0 0 0 0 0 0 4 1 5 7 2 5 5 32 2 0 0 0 9 10 0 0 0 4 2 31 6 0 0 5 3 5 4 0 95 100 100 100 100
2 5 5 5 0 1 0 3 0 0 0 0 0 0 0 2 0 5 2 5 1 5 5 5 3 0 2 0 0 0 0 0 0 0 0 0 0 0 0 0 0 0 0 0 2 71 43 97 43
0 0 0 5 0 0 0 3 0 0 0 0 0 0 0 0 2 5 1 1 5 5 5 5 5 7 12 0 0 0 0 0 0 0 0 0 0 0 0 0 0 0 0 0 0 0 1 1 0
0 0 0 1 5 0 0 0 0 0 0 0 0 1 0 0 0 5 5 5 5 5 13 9 2 5 5 2 5 0 0 0 0 0 2 2 5 0 0 0 0 0 0 0 0 0 0 0 0
2 5 2 5 5 0 0 0 0 0 0 0 0 0 1 0 0 5 5 5 5 4 8 16 5 5 5 5 5 5 2 1 0 0 1 3 0 9 0 5 3 2 0 3 3 2 0 5 4
5 5 5 5 60 3 0 0 0 0 0 0 0 0 1 0 0 0 4 5 35 53 30 14 45 59 87 25 31 76 63 34 5 5 5 5 4 9 5 5 5 5 5 58 50 13 5 58 100
7 5 5 5 43 0 0 0 0 0 5 0 3 0 0 0 0 0 0 0 5 5 5 5 30 68 38 99 100 100 100 56 81 61 58 8 5 11 96 5 5 7 81 64 81 54 88 100 100
30 6 11 5 4 0 0 0 0 2 0 0 0 0 0 0 0 0 0 0 1 5 1 0 12 92 100 75 35 92 100 100 100 100 100 100 99 78 8 12 8 5 78 92 83 34 94 100 98
42 7 59 5 0 1 3 0 0 0 1 2 0 0 0 0 0 0 0 0 0 0 0 0 3 16 45 100 88 81 97 100 100 100 100 100 100 100 100 98 78 55 58 100 100 100 22 7 99
98 92 32 5 2 0 1 0 2 28 0 0 0 0 0 0 0 0 0 0 0 0 0 0 0 10 16 100 77 92 100 87 100 100 100 100 100 100 100 100 100 100 100 100 100 93 96 95 15
100 98 5 7 5 5 4 0 4 0 0 0 0 0 0 0 0 0 0 0 0 0 0 0 0 0 6 37 90 100 98 100 100 35 88 100 100 100 100 100 100 100 100 100 100 100 100 39 7
100 37 30 6 5 0 4 5 2 0 0 0 0 0 0 0 0 0 0 0 0 0 0 0 0 0 2 9 17 50 100 98 93 81 4 77 82 95 91 99 99 100 95 100 98 100 100 99 49
66 53 58 33 12 5 5 4 5 4 0 0 0 0 0 0 0 0 0 0 0 0 0 0 0 0 0 6 98 9 35 99 100 100 10 12 35 66 100 100 96 94 52 27 54 86 87 48 37
100 94 5 18 25 9 14 35 90 5 4 0 0 0 0 0 0 0 0 0 0 0 0 0 0 0 0 0 96 98 15 100 100 100 31 26 8 72 99 100 98 51 72 56 27 74 89 93 76
100 100 93 5 36 63 96 69 4 0 0 0 0 0 0 0 0 0 0 0 0 0 0 0 0 0 0 0 26 100 3 100 100 100 95 4 5 0 98 88 97 32 59 25 5 5 5 3 5
100 100 100 96 5 32 8 8 5 5 0 0 0 0 0 0 0 0 0 0 0 0 0 0 0 0 0 0 3 10 1 96 100 100 98 13 7 0 4 99 58 89 11 5 5 5 5 0 4
100 100 100 100 96 11 5 41 71 2 1 4 0 0 2 0 1 1 0 0 0 0 0 0 0 0 0 0 0 0 0 100 100 100 100 77 20 0 4 25 97 100 35 5 5 5 5 4 4
100 100 100 100 100 100 82 5 5 13 5 5 0 1 5 5 15 5 3 2 0 0 0 0 0 0 0 0 0 0 20 90 100 100 100 45 18 0 0 3 100 88 89 84 53 5 5 5 6
100 100 100 99 86 24 5 5 5 94 88 49 49 5 5 30 96 100 100 29 5 0 0 0 0 0 0 0 0 0 90 94 100 100 92 34 5 27 14 46 100 95 92 94 78 100 43 5 5
93 73 11 5 5 5 5 9 15 89 100 92 28 34 5 5 5 5 2 4 5 4 0 0 0 0 0 0 0 12 14 21 68 100 74 58 77 100 100 100 100 100 100 100 96 89 68 51 43
70 54 7 5 27 5 10 6 98 100 100 73 13 8 5 5 5 5 0 0 0 5 5 0 0 0 0 0 0 0 0 0 22 89 100 100 100 98 100 100 74 100 100 100 100 41 12 5 56
100 100 87 62 100 85 5 46 95 93 100 100 85 97 9 1 0 0 0 0 0 0 0 0 0 0 0 0 0 0 0 0 45 100 100 100 80 100 100 100 99 100 100 99 72 5 5 7 5
100 100 100 100 100 88 19 38 58 95 88 1 1 5 0 0 0 0 0 0 0 0 0 0 2 0 0 0 0 0 0 0 38 100 100 100 99 100 100 100 97 98 94 57 4 5 5 5 5
100 100 100 96 100 49 30 17 33 11 3 0 0 0 0 0 0 0 0 0 0 0 0 0 5 2 0 0 0 0 27 0 6 78 94 100 100 93 97 100 100 72 5 1 0 1 4 10 5
100 100 100 81 60 80 3 3 22 1 26 0 0 0 0 0 0 0 0 0 0 0 0 0 1 5 5 5 0 60 4 0 8 91 100 100 100 100 100 100 100 100 5 0 0 5 12 18 5
98 85 41 96 48 5 4 5 4 2 1 0 0 0 0 0 0 0 0 0 0 0 0 0 0 0 3 5 10 11 0 1 40 96 100 100 100 100 80 100 100 100 26 5 5 5 29 74 10
78 76 83 97 81 13 4 4 5 71 78 66 2 50 65 100 100 94 12 0 0 0 0 0 0 0 5 5 5 4 0 44 91 100 100 100 100 100 100 94 80 57 5 5 5 5 12 52 64
50 91 79 82 96 69 41 5 88 83 10 43 5 5 5 4 0 4 74 13 0 0 0 42 51 0 25 95 80 8 5 56 100 100 100 100 98 100 100 88 55 71 7 5 5 5 5 47 41
89 60 54 100 70 100 92 6 100 97 100 10 5 7 5 95 64 4 5 99 0 21 28 100 87 3 11 91 98 5 29 90 100 100 100 100 76 100 100 100 87 69 5 5 5 5 72 51 31

GFSSGP_prec_cloud_048.txt.gz
Cloud_Cover
0 5 5 5 4 5 5 0 0 0 0 0 0 0 0 0 24 4 57 5 5 1 0 4 5 0 3 1 5 9 5 3 7 15 20 31 4 0 0 0 0 0 3 63 87 99 95 81 68
5 5 0 4 28 16 5 0 0 0 0 0 0 0 0 0 2 2 2 5 5 5 0 0 1 0 0 1 12 0 0 0 6 7 5 98 0 0 0 0 0 0 2 19 82 10 80 100 100
5 1 3 4 5 8 4 19 93 0 0 0 0 0 0 0 0 1 4 4 5 3 17 0 0 0 0 4 10 0 0 0 2 0 9 0 0 0 0 0 0 0 0 1 17 63 88 100 90
19 1 0 3 3 0 0 4 65 17 0 0 0 0 0 0 0 0 0 0 0 0 7 0 1 0 0 0 0 0 0 0 0 0 0 0 0 0 0 0 0 0 0 0 0 0 0 0 0
5 5 0 4 5 4 3 0 6 5 0 0 0 0 1 0 0 0 2 4 0 0 0 2 5 5 0 0 0 0 0 0 0 0 0 2 0 0 0 0 0 0 0 0 0 0 0 0 0
5 6 5 5 5 0 0 2 5 5 0 3 0 0 22 0 0 0 1 5 5 4 5 5 5 5 4 2 3 3 0 0 0 0 0 5 5 5 1 0 0 0 0 0 0 0 0 3 5
11 28 5 5 5 0 0 0 0 0 0 0 0 0 0 0 0 0 0 1 5 5 3 5 3 5 5 4 5 5 5 5 4 0 3 5 5 19 13 3 4 4 4 3 4 4 5 5 5
5 8 5 20 5 5 0 1 5 0 0 0 0 0 0 5 0 0 0 0 0 3 5 5 5 5 0 1 5 0 0 5 5 6 5 5 53 31 7 5 5 5 5 5 5 5 5 5 5
40 6 22 100 6 5 0 0 4 0 0 0 0 0 0 1 0 0 0 0 0 0 0 0 4 5 1 0 5 5 4 1 4 11 99 100 100 100 100 86 50 51 18 16 18 11 40 35 12
52 34 97 58 5 5 0 0 0 0 1 0 0 0 0 0 0 0 0 0 0 0 0 0 0 5 91 57 5 5 5 5 4 0 18 92 100 100 100 100 100 100 100 100 100 100 100 100 100
47 93 98 8 37 5 5 0 0 0 5 2 0 0 0 0 0 0 0 0 0 0 0 0 19 0 0 63 75 59 47 32 5 5 3 0 6 19 93 100 100 100 100 100 100 100 100 100 100
58 97 100 100 51 79 32 0 0 0 0 0 0 0 0 0 0 0 0 0 0 0 0 0 2 31 0 0 93 86 62 100 78 49 5 0 0 0 2 57 97 100 100 100 100 100 100 100 100
100 100 100 100 100 100 8 4 2 1 0 0 0 0 2 0 0 0 0 0 0 1 0 0 2 35 99 5 0 71 84 98 100 100 0 0 0 0 1 5 4 66 78 86 100 100 100 100 100
100 100 100 100 100 100 54 5 5 5 0 0 3 4 0 0 0 0 0 0 0 0 15 0 0 0 0 33 39 25 76 24 100 100 22 0 0 4 4 5 5 5 5 34 50 64 80 18 18
100 100 100 100 100 100 72 5 5 5 2 4 0 4 1 0 0 0 0 0 0 0 0 0 0 0 0 0 0 6 99 5 82 100 100 0 1 4 7 3 5 5 5 5 5 7 22 42 8
100 100 100 100 100 100 32 67 5 10 5 5 5 5 5 0 0 0 0 0 0 0 0 0 0 0 0 0 0 0 0 78 11 100 100 0 6 4 4 5 5 4 74 7 5 5 5 5 5
100 100 100 100 100 100 35 79 5 5 5 5 7 8 7 5 0 0 0 0 0 0 0 0 0 0 0 0 0 0 0 8 70 99 100 91 0 1 3 5 5 5 24 90 31 5 5 5 5
100 100 100 100 100 100 24 61 100 5 5 4 5 5 1 2 5 3 0 0 0 0 0 0 0 0 0 0 0 0 0 0 91 100 100 100 13 0 0 0 0 0 2 5 42 32 5 12 5
100 100 100 100 100 100 94 46 99 15 5 5 5 5 5 5 5 3 2 0 0 5 0 4 0 0 0 0 0 0 0 38 100 100 100 89 28 4 2 1 0 0 0 0 5 72 100 40 68
100 100 100 100 100 100 100 100 100 100 16 6 46 67 9 5 0 5 3 0 4 1 5 58 64 5 13 0 0 0 1 14 54 70 97 100 93 1 4 5 5 8 69 100 99 90 99 55 20
100 100 100 100 100 100 100 79 78 87 100 100 99 38 5 1 5 5 4 2 3 5 24 43 16 10 5 0 0 0 0 54 10 3 79 50 90 5 4 33 100 100 100 100 99 95 100 99 88
87 60 100 100 100 100 100 99 95 9 99 89 5 5 4 0 0 0 0 0 0 0 1 47 46 5 0 5 0 0 0 1 0 0 0 16 100 41 91 89 71 100 100 100 100 100 100 100 90
100 100 59 5 5 9 5 5 74 91 10 9 5 5 4 2 3 4 4 4 5 0 0 1 5 46 1 0 0 0 0 0 8 53 24 100 100 100 100 100 79 100 100 100 100 100 100 96 94
100 100 100 91 28 91 5 4 5 100 95 7 2 2 4 5 5 5 5 2 0 0 3 5 0 4 11 1 0 0 0 0 0 44 96 100 100 100 100 100 66 74 100 100 100 100 100 84 50
100 100 100 100 100 77 50 35 8 100 2 5 64 51 8 15 5 5 5 2 0 0 0 0 0 0 5 5 0 0 0 0 0 0 35 40 100 100 100 100 86 100 100 100 100 100 100 100 49
100 100 100 100 99 99 15 30 100 100 100 33 5 5 5 2 0 0 0 0 0 0 0 0 0 0 2 2 3 0 0 5 5 3 6 50 100 100 100 100 87 64 100 100 100 100 100 100 9
100 99 100 93 74 43 100 100 100 96 79 58 3 2 0 0 0 0 0 0 0 0 0 0 0 0 0 0 0 11 4 5 5 6 72 100 100 100 100 100 100 99 99 100 100 100 100 100 100
96 85 100 100 67 100 62 90 80 89 53 3 5 58 44 5 1 5 5 62 67 14 0 0 0 0 0 0 8 73 23 4 5 21 99 100 100 100 100 100 53 99 100 100 100 100 100 100 100
100 100 98 77 85 78 90 61 1 3 30 70 92 28 30 7 4 6 92 95 35 5 6 6 0 0 36 28 98 83 5 5 5 59 100 100 100 100 100 100 100 100 99 100 100 98 100 98 82
80 27 25 36 16 34 40 16 6 40 43 12 28 35 5 5 4 5 3 3 0 0 0 5 0 27 100 100 100 29 2 5 31 100 100 100 100 100 100 61 81 88 100 90 100 100 100 97 79

GFSSGP_prec_cloud_051.txt.gz
Cloud_Cover
4 5 0 3 1 5 0 0 0 0 0 1 4 1 0 2 0 3 72 5 5 7 17 5 5 5 5 5 11 5 5 15 4 18 15 76 0 0 0 0 0 0 52 96 6 60 21 77 85
2 0 4 5 5 5 1 0 0 0 0 0 0 0 0 0 0 0 0 4 5 5 20 5 1 1 2 0 7 11 10 4 5 11 10 98 0 0 0 0 0 0 7 100 99 38 47 100 90
58 5 4 5 5 17 4 0 0 2 0 0 0 0 0 0 0 0 0 0 4 4 13 4 0 0 0 5 13 0 0 2 2 0 66 1 0 0 0 0 0 0 0 57 20 0 4 74 11
64 59 5 5 92 5 6 1 5 4 4 0 0 0 0 0 0 0 0 0 5 4 1 0 0 0 0 4 0 0 0 0 0 2 0 0 0 0 0 0 0 0 0 0 0 0 0 0 0
5 5 5 24 100 5 5 0 4 5 4 5 3 0 0 0 0 0 0 0 0 0 0 0 0 0 4 5 0 0 0 0 0 0 0 0 0 0 0 0 0 0 0 0 0 0 0 0 0
5 1 1 19 100 5 5 0 0 4 0 0 0 0 0 5 0 0 0 5 0 1 2 0 0 0 1 2 0 0 0 0 0 0 2 0 0 0 0 0 0 0 0 0 0 0 0 0 0
5 1 3 5 61 5 5 1 0 0 0 0 0 0 0 2 1 0 0 0 0 0 0 2 2 0 0 0 0 3 0 0 0 0 0 1 4 1 1 0 0 0 5 4 4 0 0 0 0
23 1 5 5 100 90 14 5 0 0 0 0 5 0 0 5 5 0 0 0 0 0 0 5 5 0 0 0 0 0 1 0 0 0 0 0 4 5 9 5 8 2 0 5 5 5 5 5 7
33 2 5 96 100 100 42 1 0 0 2 0 2 0 0 1 4 0 0 0 0 0 0 0 0 0 0 2 0 0 4 4 5 0 0 0 0 1 4 9 40 74 50 10 42 32 64 39 21
5 5 72 100 100 100 16 1 0 0 11 0 0 0 0 0 4 0 0 0 0 0 0 0 0 0 0 0 0 3 4 5 5 5 0 0 0 0 0 0 1 68 100 99 100 100 100 100 100
93 97 100 100 100 95 24 3 0 0 5 5 0 0 0 0 0 0 0 0 0 0 0 0 0 0 0 0 0 3 0 3 5 5 5 4 4 3 0 13 0 0 0 7 19 63 100 100 100
98 86 100 100 100 50 66 11 5 5 5 5 0 0 0 0 0 0 0 0 0 0 0 0 0 0 0 0 0 0 0 0 3 3 5 5 5 1 0 1 0 0 0 0 0 4 24 55 100
100 86 79 100 100 66 100 42 5 6 5 4 0 0 0 0 0 0 0 0 0 0 0 0 0 0 0 0 0 25 98 87 27 0 0 5 5 5 0 0 0 0 1 4 4 4 3 4 13
100 86 100 100 100 100 100 46 11 95 6 2 2 2 0 0 0 0 0 0 0 0 0 0 0 0 0 0 0 0 0 1 94 42 2 5 5 4 0 0 4 0 0 3 6 5 5 2 0
98 100 100 100 100 72 71 13 84 100 34 6 5 5 4 3 0 0 0 0 0 0 0 0 0 0 0 0 0 0 0 1 12 80 42 4 4 0 0 0 3 3 2 0 1 5 5 5 4
100 100 100 100 100 100 34 95 100 100 100 49 22 12 6 5 4 0 0 0 0 0 0 0 0 0 0 0 0 0 0 7 6 2 74 32 0 0 0 0 1 4 4 0 0 0 5 5 5
100 100 100 100 100 100 62 99 100 63 100 100 79 7 32 16 5 2 1 0 0 0 0 0 0 0 0 0 0 0 0 0 0 0 14 100 0 0 0 0 0 0 1 0 0 0 7 80 42
100 100 100 100 100 100 65 99 100 100 100 100 96 14 28 9 5 5 5 2 0 0 0 0 11 0 0 0 0 0 0 0 0 0 12 63 10 0 0 0 0 0 0 0 0 0 0 3 5
100 100 100 100 100 100 100 100 100 100 100 100 100 78 89 46 5 5 5 4 0 0 0 0 0 0 0 0 0 0 0 0 0 0 63 0 0 0 0 0 0 1 0 3 0 0 5 5 5
100 100 100 100 100 100 100 100 100 100 100 100 99 34 11 5 8 57 7 4 1 5 5 2 0 0 0 0 0 1 5 8 4 5 98 99 8 0 0 0 4 2 0 1 5 5 19 41 99
89 100 100 100 100 100 100 100 100 100 100 100 95 92 46 24 5 10 5 7 66 56 23 5 4 0 0 0 0 0 4 21 25 14 22 98 7 0 3 1 0 3 5 5 33 99 86 100 100
38 93 100 100 100 100 100 100 100 100 100 100 100 100 100 100 97 83 5 5 5 5 5 5 5 5 4 5 1 0 2 8 69 6 3 11 9 2 84 88 6 8 35 32 35 100 100 100 100
100 100 100 76 100 100 100 57 100 100 100 100 100 100 100 100 90 21 5 5 5 4 5 1 0 5 5 5 5 0 0 15 87 20 5 91 42 38 54 90 100 100 100 98 34 59 98 100 100
100 91 45 68 38 100 100 100 100 100 100 100 87 56 43 5 5 3 1 2 5 5 3 0 0 5 0 0 0 0 0 4 1 45 7 20 47 59 67 85 100 100 100 100 73 100 89 97 100
72 100 100 98 99 96 79 98 100 100 100 98 39 5 5 4 5 5 5 0 0 1 1 1 1 1 0 0 0 0 0 0 0 4 5 9 51 80 9 79 100 100 100 100 93 100 72 89 100
93 6 12 30 66 36 20 98 100 66 4 12 100 96 91 85 36 27 23 29 27 6 5 4 0 0 0 0 0 0 0 0 0 2 5 47 95 86 5 100 100 100 100 100 73 99 99 100 100
5 32 53 77 5 16 6 57 100 100 100 95 56 38 17 22 9 5 5 5 5 4 0 3 2 0 0 0 0 0 0 0 3 7 63 100 100 100 49 89 100 100 100 100 100 85 100 100 100
84 58 100 91 55 98 99 100 100 100 71 38 6 5 10 16 13 15 4 0 0 0 0 0 0 0 0 0 0 0 0 3 51 62 18 92 100 100 100 100 100 100 100 84 99 100 89 93 100
100 100 100 100 100 100 100 100 97 69 6 5 12 13 8 24 26 5 5 2 0 0 0 0 5 5 0 0 0 0 0 5 3 7 5 43 100 100 100 100 100 100 100 100 96 100 81 100 76
100 100 96 100 95 72 84 100 98 76 90 6 5 0 0 5 4 53 21 5 3 66 0 0 0 3 35 0 0 1 5 5 0 15 5 92 100 100 100 100 100 100 100 100 100 100 100 81 99

GFSSGP_prec_cloud_054.txt.gz
Cloud_Cover
15 5 5 0 0 0 1 5 5 0 3 4 2 5 0 2 5 54 9 4 20 38 73 5 3 5 8 53 40 55 69 28 24 70 98 85 22 0 3 0 0 0 100 12 0 0 46 83 54
71 76 5 0 0 4 0 0 3 1 0 0 0 1 5 5 4 5 1 5 1 16 7 8 5 0 1 5 18 5 5 6 10 13 17 8 21 0 0 0 0 3 100 100 45 90 90 100 11
78 32 5 5 0 60 5 0 0 0 0 1 0 0 4 5 0 3 5 5 5 18 18 14 8 0 0 2 18 6 8 2 5 9 82 0 5 0 0 0 0 34 100 100 100 62 69 2 0
68 7 5 5 97 82 7 0 5 4 0 0 0 0 0 0 0 0 2 5 5 40 23 5 4 0 0 20 21 52 48 16 4 19 1 0 0 0 0 0 0 13 66 47 4 0 0 0 0
32 5 4 12 100 84 6 3 5 5 2 0 0 0 0 0 0 0 0 0 5 36 2 1 0 0 0 14 10 1 0 0 0 11 0 0 0 0 0 0 0 0 7 28 0 0 0 0 0
5 5 0 57 100 100 42 1 5 0 4 2 0 0 0 0 0 0 0 0 0 28 9 5 0 0 0 2 0 0 0 0 0 0 0 0 0 0 0 0 0 0 0 0 0 0 0 0 0
5 5 3 49 94 10 99 6 5 5 6 11 0 0 1 5 2 0 2 5 4 0 0 6 1 0 2 3 1 0 0 0 0 0 0 0 0 0 0 0 0 0 0 0 0 0 0 0 0
38 5 22 85 100 100 90 5 0 5 48 34 3 5 5 1 2 5 3 5 1 4 3 18 5 3 4 3 0 0 0 0 0 0 0 0 0 0 0 0 0 0 0 0 0 4 5 5 5
99 5 6 100 100 100 67 4 0 0 4 5 5 4 5 5 0 1 6 40 39 26 35 38 14 2 2 5 0 1 0 0 0 0 2 0 0 0 0 0 0 0 0 0 5 4 5 5 60
84 7 88 100 100 100 15 0 0 0 3 5 5 0 0 0 0 0 2 64 62 43 66 45 20 8 1 4 2 1 0 0 1 0 5 5 2 0 0 0 0 0 0 0 0 2 3 16 20
99 82 100 100 100 100 5 1 0 0 0 6 5 0 0 0 0 0 0 2 9 8 29 30 15 0 0 1 17 11 20 8 0 0 5 5 4 13 4 12 0 3 0 0 0 0 0 0 0
100 100 100 100 100 100 90 5 5 0 2 5 15 0 0 0 0 0 0 0 0 0 0 0 0 0 0 0 29 23 14 4 1 0 0 2 0 26 22 24 16 6 1 0 0 0 0 0 0
100 100 100 100 100 61 92 90 7 25 18 5 5 1 0 1 0 0 0 0 0 0 0 0 0 0 0 3 13 19 14 0 0 0 0 0 0 2 5 9 11 9 0 0 0 5 5 5 4
100 100 100 100 100 98 100 100 100 83 42 5 5 5 0 5 5 0 0 0 0 0 0 0 0 0 0 4 7 2 0 0 0 0 0 0 0 0 5 5 0 0 0 2 2 0 2 5 5
100 100 100 100 100 100 100 100 100 90 5 18 18 76 5 4 5 5 1 3 2 1 0 0 0 0 0 0 0 0 0 0 0 0 0 0 0 0 2 3 0 0 0 5 4 2 0 0 0
100 100 100 100 100 100 72 100 100 100 76 95 37 11 5 42 5 5 5 5 5 5 6 2 5 0 1 4 5 4 0 0 0 0 0 0 0 0 0 0 0 0 0 0 0 0 0 0 0
100 100 100 100 100 100 89 100 100 100 100 100 100 34 5 9 81 46 5 5 5 5 94 65 5 5 3 0 4 3 4 5 2 0 0 0 0 0 0 0 0 0 0 0 0 0 0 0 0
100 100 100 100 100 100 100 100 100 100 100 100 100 100 78 21 98 100 9 5 5 5 5 27 48 5 5 5 5 5 5 18 5 5 6 5 4 2 0 0 0 0 0 0 0 0 0 0 0
100 100 100 100 100 100 100 100 100 100 100 100 100 100 100 100 99 98 100 52 5 5 4 4 8 52 5 2 2 20 5 9 99 95 98 14 7 1 0 0 4 0 0 0 0 0 0 0 5
100 100 100 100 100 100 100 100 100 100 100 100 100 100 100 100 100 100 96 62 79 90 5 5 1 1 4 1 0 0 0 5 5 93 100 100 100 86 57 5 6 5 5 5 0 1 3 5 5
100 100 100 100 100 100 100 100 100 100 100 100 100 100 100 100 100 100 100 100 100 73 34 5 5 5 11 13 9 62 49 56 73 69 80 100 70 54 29 5 8 26 65 65 30 14 5 34 6
100 100 100 100 100 100 100 100 100 100 100 100 100 100 100 100 100 100 100 100 100 85 80 61 82 74 18 34 11 24 14 14 14 5 5 21 13 5 35 18 56 100 100 83 54 57 54 82 22
87 100 100 100 100 100 100 100 100 100 100 100 100 100 100 100 100 100 100 100 100 100 100 100 100 100 91 47 72 7 5 10 32 16 5 5 51 93 93 100 100 100 100 98 100 100 98 100 51
100 88 98 100 100 100 100 100 100 100 100 100 100 100 100 100 100 100 100 100 100 100 100 100 100 100 74 60 10 4 7 24 76 25 13 5 4 4 10 100 100 100 100 82 100 100 100 100 49
100 98 86 19 64 13 79 100 100 100 100 100 100 100 100 84 42 51 97 100 100 100 100 84 9 5 5 1 1 0 3 5 8 41 22 3 4 15 67 90 100 100 100 100 100 100 100 100 86
100 100 100 82 62 11 12 30 93 100 100 100 100 94 82 81 87 90 62 20 5 5 5 4 4 2 0 0 0 0 0 0 0 6 1 2 0 4 5 63 100 100 100 100 100 100 100 100 51
100 100 100 100 62 37 87 100 72 5 6 87 100 100 100 100 98 65 50 28 22 5 7 4 3 4 5 5 0 1 0 1 0 0 0 0 0 1 9 81 100 100 100 100 100 100 100 38 100
100 100 100 100 100 95 22 94 24 12 5 5 5 10 28 46 61 57 49 26 16 5 3 3 0 3 2 0 0 0 0 0 0 1 2 0 3 2 48 100 100 100 100 100 100 100 100 100 97
100 81 77 70 89 100 99 16 12 49 5 5 5 5 5 54 100 86 11 3 2 2 5 5 1 0 10 0 0 0 12 7 0 0 1 5 4 46 100 100 100 100 100 100 100 100 100 98 100
100 24 9 5 62 49 66 100 100 45 68 98 99 98 66 10 1 2 2 0 0 5 5 5 4 2 0 0 3 0 0 22 21 45 64 100 100 100 100 100 100 100 100 100 100 100 100 100 100

GFSSGP_prec_cloud_057.txt.gz
Cloud_Cover
5 5 0 0 1 0 6 5 15 5 6 5 5 3 1 5 5 5 5 38 25 12 24 38 23 98 30 46 18 12 10 100 100 86 15 14 5 5 5 1 17 4 7 97 3 10 19 96 20
5 5 4 0 0 5 5 2 5 5 5 3 5 7 5 2 4 18 16 35 39 66 7 11 11 5 17 5 5 12 87 80 79 96 100 100 13 5 0 0 0 37 25 54 0 17 77 91 6
5 2 3 0 2 65 38 5 0 2 2 5 0 5 5 5 4 0 1 47 12 22 6 5 5 46 5 6 2 1 4 9 12 20 53 47 50 8 1 0 0 100 71 80 29 98 100 60 0
24 5 4 0 52 100 100 4 0 5 0 0 0 0 3 0 5 5 21 41 34 46 19 0 5 5 0 1 13 10 14 27 85 13 52 21 18 0 0 0 0 100 68 100 98 20 10 0 0
87 8 5 6 100 100 100 4 5 4 4 0 0 0 0 0 0 6 45 38 60 79 30 4 0 1 0 0 0 6 100 5 10 32 3 0 0 0 0 0 0 37 87 30 0 0 0 0 0
93 68 38 92 100 100 100 5 5 5 0 0 0 0 1 5 7 30 49 50 67 89 39 1 3 1 2 100 5 19 58 4 41 18 7 0 0 0 0 0 0 9 26 13 0 0 0 0 0
5 8 91 100 100 100 97 4 5 5 5 3 0 0 5 5 5 30 16 15 63 55 39 18 1 0 0 10 5 5 8 1 13 0 0 0 0 0 0 0 0 0 9 10 0 0 0 0 0
36 6 6 95 100 100 100 8 5 5 7 6 0 0 3 5 0 0 1 19 55 48 34 50 28 1 0 0 0 1 4 2 0 0 0 0 0 0 0 0 0 0 0 0 0 0 0 0 0
100 6 52 100 100 100 92 18 5 5 13 5 5 5 3 7 10 9 62 90 90 76 43 58 43 8 0 2 0 2 4 0 0 0 0 0 0 0 0 0 0 0 0 0 0 0 0 0 0
99 29 99 100 100 100 5 3 0 5 5 5 6 51 8 65 78 52 100 100 100 100 97 100 41 14 4 26 4 4 0 0 0 0 2 1 0 0 4 0 0 0 0 0 0 0 0 0 0
100 94 100 100 100 100 10 5 0 4 6 5 5 7 5 14 100 30 45 60 92 97 100 100 44 13 5 5 11 11 13 10 4 0 0 4 0 16 13 9 2 2 0 0 0 0 0 0 0
100 100 100 100 100 100 24 5 0 1 5 5 10 5 5 0 9 98 84 40 76 81 100 97 39 37 15 0 21 7 3 9 18 5 0 6 10 43 28 28 12 14 7 4 0 0 0 0 0
100 100 100 100 100 100 81 7 5 5 34 5 5 5 5 0 0 5 23 5 54 87 64 42 37 32 26 15 26 30 11 0 0 0 0 6 4 39 30 24 24 18 4 1 0 0 0 0 0
100 100 100 100 100 100 100 88 5 91 5 0 2 5 5 2 4 11 13 5 1 5 18 22 33 9 15 15 23 37 26 1 0 0 0 0 0 14 28 26 26 17 5 0 0 0 3 0 0
100 100 100 100 100 100 100 100 98 100 18 5 0 0 4 6 42 96 10 5 0 1 0 0 13 1 4 8 31 22 11 2 0 0 0 0 0 0 1 8 13 2 1 0 0 0 0 0 0
100 100 100 100 100 100 100 100 100 100 75 58 5 5 25 100 100 100 85 5 5 5 5 1 0 4 2 9 38 32 3 5 2 3 5 3 1 0 0 0 0 0 0 0 0 0 0 0 0
100 100 100 100 100 100 100 100 100 100 100 42 11 81 100 100 100 100 100 5 5 48 6 5 5 5 5 5 27 34 6 23 5 5 5 4 5 4 0 0 0 0 0 0 1 1 0 0 0
100 100 100 100 100 100 100 100 100 100 100 100 100 100 100 100 100 100 48 25 5 17 53 19 5 5 3 2 42 68 71 31 5 5 20 5 5 5 4 2 4 5 3 3 1 2 0 0 0
100 100 100 100 100 100 100 100 100 100 100 100 100 100 100 100 100 100 100 71 42 22 5 5 7 14 4 8 92 100 100 61 33 50 67 48 12 13 55 0 5 32 22 5 78 9 11 4 2
98 100 100 100 100 100 100 100 100 100 100 100 100 100 100 100 100 100 100 100 100 59 17 10 5 6 40 6 11 17 34 44 23 67 86 54 51 6 10 16 5 9 14 5 16 58 57 24 4
100 98 100 100 100 100 100 100 100 100 100 100 100 100 100 100 100 100 100 100 100 100 84 83 18 5 7 64 100 79 76 96 91 72 21 92 68 5 39 18 9 24 49 59 86 100 91 91 5
100 100 100 100 100 100 100 100 100 100 100 100 100 100 100 100 100 100 100 100 100 100 87 35 32 41 73 94 100 95 9 9 20 17 4 5 5 5 5 5 15 97 100 100 100 100 100 53 69
92 100 100 72 100 100 100 100 100 100 100 100 100 100 100 100 100 100 100 100 100 98 100 100 100 89 12 38 65 41 5 49 92 100 33 17 6 7 5 37 67 33 100 100 100 100 100 100 100
100 100 100 100 48 76 100 100 100 100 100 100 100 100 100 100 100 100 100 100 100 100 100 100 100 100 100 100 98 87 100 100 100 100 100 79 47 6 22 15 65 97 89 100 100 100 100 100 100
100 100 29 28 56 27 100 100 100 100 100 100 100 100 100 100 98 74 100 100 100 100 100 100 100 100 100 100 100 68 26 29 96 100 94 76 93 80 58 85 56 86 88 97 100 100 100 100 100
98 13 5 96 100 100 98 89 100 100 100 100 69 85 100 100 100 98 100 100 100 100 100 100 89 56 49 77 89 95 89 54 16 18 26 91 43 86 43 50 40 65 94 100 100 100 100 100 100
100 100 100 100 100 60 94 90 6 89 100 100 100 77 79 100 100 92 45 86 95 67 46 40 16 6 5 5 4 4 13 19 5 6 9 6 51 97 55 24 42 56 99 100 100 100 100 100 100
100 100 100 100 100 100 100 96 69 9 5 43 75 79 98 93 41 17 51 76 86 90 60 26 5 6 5 4 5 1 11 7 28 57 77 32 0 1 3 6 60 93 100 100 100 100 100 100 100
100 100 100 87 84 100 100 100 78 56 5 5 5 5 4 4 4 5 5 5 5 4 5 4 3 4 2 2 4 25 46 33 19 15 5 5 5 5 4 2 10 90 100 100 100 100 100 100 100
100 100 100 100 100 100 100 100 97 11 5 5 5 5 5 5 6 5 5 5 10 5 5 5 5 4 0 5 18 48 64 45 31 38 41 23 21 18 29 55 90 100 100 100 100 100 100 100 100

GFSSGP_prec_cloud_060.txt.gz
Cloud_Cover
96 100 3 0 0 0 2 0 0 0 0 5 0 5 5 4 1 0 3 24 5 6 5 5 5 5 5 5 5 18 55 99 99 100 96 6 10 5 11 15 13 5 3 7 8 91 21 51 0
5 51 22 1 1 6 2 0 0 0 0 0 2 1 5 8 5 42 21 5 6 6 5 5 5 25 8 67 67 73 100 100 100 100 100 96 20 5 12 5 5 5 55 7 0 14 100 55 0
5 5 27 5 60 97 37 0 0 0 0 0 0 2 3 5 5 8 5 9 6 9 5 5 15 5 25 81 42 5 46 100 100 100 100 100 84 5 5 4 3 77 31 0 0 59 53 47 0
6 5 5 5 98 98 10 0 0 4 0 0 0 0 1 5 22 5 16 15 25 44 9 5 9 59 8 13 35 18 95 86 54 14 96 100 28 0 0 0 47 85 15 26 97 91 24 0 0
62 5 5 7 100 100 56 3 0 0 0 0 1 5 5 0 4 40 64 65 44 85 23 8 6 40 2 2 30 22 20 39 97 20 4 79 4 0 0 0 28 97 14 100 40 0 0 0 0
16 5 5 80 100 100 54 0 0 0 0 0 0 0 2 4 60 100 99 84 43 100 42 1 0 0 2 86 68 41 57 2 25 28 15 15 0 0 0 0 3 60 62 28 11 0 0 0 0
5 10 11 100 100 100 98 2 4 0 0 0 0 0 3 0 51 100 100 74 100 100 45 14 2 3 0 14 4 18 100 20 14 6 2 0 0 0 0 0 0 27 24 4 0 0 0 0 0
30 5 37 100 100 100 100 4 0 5 5 8 43 5 5 1 98 100 100 100 100 100 54 42 24 8 0 9 4 3 26 12 99 1 0 0 0 0 0 0 0 8 15 0 0 0 0 0 0
64 5 4 100 100 100 100 27 0 7 39 12 11 7 32 44 100 100 100 100 100 100 86 81 55 27 7 0 3 3 3 0 29 3 0 0 0 0 0 0 0 0 0 0 0 0 0 0 0
100 21 88 100 100 100 100 8 5 5 79 92 5 55 19 95 100 100 100 100 100 100 100 100 80 39 13 0 10 10 3 2 2 0 0 2 2 1 0 3 2 0 0 0 0 0 0 0 0
100 100 100 100 100 100 100 12 5 5 84 100 53 93 25 99 100 100 100 100 100 100 100 100 98 36 10 10 24 44 18 13 5 5 2 1 6 15 16 4 2 5 2 3 4 2 0 0 0
100 100 100 100 100 100 99 5 5 30 100 100 100 100 99 43 93 100 100 100 100 100 100 100 96 38 16 17 26 22 19 21 24 8 5 13 18 28 36 30 7 10 18 5 9 0 0 0 0
100 100 100 100 100 100 100 22 5 16 62 78 100 100 100 97 10 5 30 78 100 100 100 100 99 54 29 23 28 28 16 12 9 15 6 12 10 26 38 30 23 20 18 5 7 0 0 0 0
100 100 100 100 100 100 100 100 16 66 18 5 37 52 59 84 35 5 5 7 82 80 100 100 100 70 34 17 38 31 5 2 4 6 1 6 6 16 42 37 32 22 14 6 5 0 0 1 0
100 100 100 100 100 100 100 100 100 100 15 5 5 26 60 53 99 8 21 87 100 44 16 63 99 66 46 37 40 36 23 0 0 0 0 0 0 0 20 39 38 25 17 5 5 0 0 0 0
100 100 100 100 100 100 100 100 100 100 100 75 15 8 61 74 99 100 100 100 99 33 3 7 32 65 54 50 47 48 40 21 4 1 0 2 1 5 8 35 28 19 16 2 0 0 0 0 0
100 100 100 100 100 100 100 100 100 100 100 100 71 87 99 100 100 100 100 92 48 47 6 5 5 21 49 49 47 58 56 39 85 47 5 5 5 5 5 5 8 2 4 3 4 1 1 5 5
100 100 100 100 100 100 47 100 100 100 100 100 100 100 100 100 100 100 100 39 5 6 62 5 56 25 26 44 76 100 100 84 59 91 97 100 78 38 40 18 6 4 5 4 3 4 0 0 5
100 100 100 100 100 100 100 90 100 100 100 100 100 100 100 100 100 100 100 100 100 98 100 69 73 49 32 97 100 100 100 100 100 99 94 100 71 11 5 5 21 83 28 5 4 2 0 0 0
100 100 100 100 100 100 100 100 100 100 100 100 100 83 99 100 100 100 100 100 100 100 100 96 99 100 94 54 75 80 70 100 100 100 98 97 26 17 95 59 64 75 89 78 5 5 5 8 10
100 100 100 100 100 100 100 100 100 100 100 100 100 70 68 100 100 100 100 100 100 100 100 100 100 100 100 100 100 100 100 100 100 100 99 21 8 6 74 57 47 94 98 88 27 89 24 72 47
100 100 100 100 100 100 100 100 100 100 100 100 100 90 60 100 100 100 100 100 100 100 100 100 100 96 98 100 100 100 100 97 100 72 61 67 48 15 5 5 44 56 87 70 85 98 100 100 100
100 100 100 100 99 100 100 100 100 100 100 100 100 100 99 32 80 100 100 100 100 100 100 100 100 100 100 100 100 100 100 100 100 100 100 81 46 87 37 7 69 100 100 70 92 100 95 61 100
100 100 98 100 72 91 100 100 100 100 100 100 100 100 100 100 69 46 9 36 82 100 100 100 100 100 73 82 62 98 100 100 100 100 100 100 100 99 86 90 82 98 100 100 100 99 98 99 100
85 100 86 40 98 100 96 100 100 100 100 100 100 100 100 100 100 100 100 92 100 100 100 100 100 100 100 100 100 97 97 100 100 100 100 100 100 100 100 97 33 37 95 100 100 93 75 100 100
99 91 94 100 64 25 99 75 73 100 100 100 100 100 100 100 100 96 100 100 97 77 30 74 99 100 100 100 100 100 100 92 6 5 8 59 100 100 100 100 100 100 100 99 100 98 100 100 100
100 100 72 94 100 83 100 100 100 100 100 100 100 94 100 100 100 100 100 84 80 99 100 100 100 92 61 99 100 100 100 99 82 13 8 20 10 47 99 100 100 100 90 97 100 100 100 100 100
100 100 99 97 100 100 100 100 99 80 5 5 12 77 95 29 26 81 100 100 94 55 72 68 65 58 44 11 19 44 38 6 5 24 37 31 49 70 100 100 100 98 100 100 100 100 100 100 100
100 100 100 100 100 100 100 99 67 11 49 99 26 68 17 5 5 5 13 35 86 68 35 29 27 13 12 5 5 4 15 41 48 50 55 51 52 94 100 100 100 100 100 100 100 100 100 100 100
100 100 100 100 100 100 100 89 54 6 55 100 91 5 5 5 5 5 5 5 2 6 6 6 5 0 2 8 22 87 100 100 100 100 100 97 100 100 100 100 100 100 100 100 100 100 100 100 100

GFSSGP_prec_cloud_063.txt.gz
Cloud_Cover
47 19 5 0 0 0 0 0 0 0 0 5 10 61 5 5 5 2 2 10 5 4 6 12 5 5 43 99 35 23 97 56 100 100 100 28 16 20 38 19 9 5 0 1 85 42 90 11 0
50 6 47 3 1 0 0 0 0 0 0 1 5 48 66 5 5 20 7 20 5 8 15 31 5 5 26 71 7 46 24 91 64 100 88 79 10 5 16 9 5 5 5 4 14 99 14 9 0
7 5 5 5 5 25 4 0 0 0 0 0 5 5 92 33 5 2 0 17 0 28 5 25 4 5 5 5 5 5 87 100 100 100 100 100 10 0 4 2 5 5 8 0 0 48 49 17 0
99 58 5 5 99 43 5 0 0 0 0 0 0 5 13 6 10 5 4 29 51 55 14 5 28 44 26 81 5 5 18 100 100 100 100 100 99 4 3 2 98 5 2 0 2 64 84 0 0
98 77 4 2 100 100 46 0 0 0 0 0 0 0 2 5 38 14 32 47 38 65 14 8 5 5 5 5 4 93 100 100 98 74 72 100 46 0 1 0 71 30 1 46 99 42 0 0 0
76 13 5 7 100 100 95 5 0 0 0 0 0 0 0 2 41 98 64 28 22 97 47 38 3 5 4 3 14 100 100 86 100 8 7 100 4 0 0 12 100 42 2 97 6 0 0 0 0
34 24 96 100 100 100 99 1 5 4 0 0 0 0 2 0 29 100 100 69 30 100 60 44 19 3 4 5 100 100 86 43 100 6 0 0 0 0 0 0 61 96 89 5 0 0 0 0 0
95 12 100 100 100 100 92 1 0 5 5 2 5 5 0 0 46 100 100 78 99 78 56 34 8 5 5 1 3 18 98 40 4 100 66 0 0 0 0 0 1 95 26 1 0 0 0 7 0
9 56 37 100 100 100 99 11 0 3 5 5 7 26 5 1 98 100 100 100 100 100 85 40 29 2 0 0 0 3 94 18 99 100 39 0 0 0 0 0 0 0 1 0 0 0 6 0 0
77 5 98 100 100 100 100 62 5 0 5 5 15 28 6 90 100 100 100 100 100 100 100 99 77 41 30 13 11 5 0 60 4 30 3 0 0 0 3 0 0 0 0 0 0 3 0 0 0
100 100 100 100 100 100 100 96 17 3 5 65 5 63 26 100 100 100 100 100 100 100 100 100 100 74 43 29 5 0 12 58 5 4 5 1 0 2 4 0 0 2 0 0 8 15 0 0 0
100 100 100 100 100 100 100 92 42 5 5 12 95 73 17 69 100 100 100 100 100 100 100 100 100 98 43 7 4 5 61 64 67 4 5 5 4 24 32 5 5 5 5 8 34 3 0 0 0
100 100 100 100 100 100 100 100 18 58 6 5 88 100 40 99 36 90 100 100 100 100 100 100 100 100 56 20 1 4 71 70 7 4 5 5 5 20 44 37 4 4 2 0 20 1 0 0 0
100 100 100 100 100 100 100 100 40 100 14 25 80 100 100 100 47 12 11 20 68 87 100 100 100 100 80 35 9 2 4 5 5 4 5 3 0 0 18 45 44 0 0 0 0 5 0 0 0
100 100 100 100 100 100 100 100 100 97 79 78 100 100 100 100 100 71 39 24 98 63 12 41 100 100 97 56 26 5 5 2 0 0 4 3 0 0 0 1 55 18 0 0 3 4 3 0 0
100 100 100 100 100 100 100 100 100 99 64 97 100 100 100 100 100 90 69 88 6 6 60 11 43 100 100 81 60 44 38 4 2 0 0 0 0 2 3 5 19 28 6 1 4 0 1 1 3
100 100 100 100 100 100 100 100 100 100 100 100 100 100 100 100 100 100 100 63 5 3 5 5 31 69 100 100 99 87 84 51 28 68 6 5 5 5 32 60 5 16 34 11 5 5 5 5 5
100 100 100 100 100 100 100 100 100 100 100 100 100 100 100 100 100 100 100 77 13 5 5 5 6 17 72 100 100 100 100 100 88 59 91 48 61 90 100 69 5 10 37 11 18 5 5 5 5
100 100 100 100 100 100 100 100 100 100 100 100 100 100 100 100 100 100 100 100 100 100 96 46 8 54 56 100 100 100 100 100 100 100 88 83 97 100 100 88 94 48 63 42 7 5 67 93 8
100 100 100 100 100 100 100 96 100 100 100 100 100 96 12 27 100 100 100 100 100 100 100 100 100 100 80 76 100 100 100 100 100 100 100 89 53 71 97 100 100 100 100 100 98 34 24 26 5
100 100 100 100 100 100 100 100 100 100 100 100 100 98 100 100 100 100 100 100 100 100 100 100 100 98 73 70 100 100 96 97 100 100 100 100 71 100 95 99 100 100 100 100 91 75 46 57 31
100 100 100 100 100 100 100 100 100 100 100 57 95 86 80 92 66 56 100 100 100 100 100 100 100 100 100 100 100 100 100 100 100 100 100 100 100 100 100 100 100 100 100 100 100 100 100 100 100
100 100 100 100 100 100 100 100 100 100 100 99 100 98 93 87 87 99 99 98 92 98 100 100 100 100 100 100 100 100 100 100 100 100 100 100 100 100 100 100 95 100 62 98 100 100 100 100 100
100 100 100 95 100 100 100 100 100 100 100 100 100 100 100 98 59 46 21 5 5 16 79 100 100 96 100 100 100 100 100 100 100 100 100 100 100 100 100 100 100 100 100 100 100 97 100 100 100
100 100 100 100 41 100 100 100 100 100 100 100 100 100 100 100 74 89 76 52 9 5 5 71 100 100 100 100 100 100 100 100 100 100 100 100 100 100 100 100 100 100 100 100 100 100 100 100 100
100 94 97 98 98 90 100 100 100 100 100 100 100 100 100 100 100 100 100 98 100 97 91 100 100 100 99 92 100 100 99 90 94 100 100 100 100 100 100 100 100 99 99 100 100 100 100 100 100
100 100 100 96 99 100 100 98 100 97 81 30 93 100 100 100 100 100 100 100 100 100 100 77 48 31 36 94 100 99 98 100 100 100 100 100 99 100 100 100 100 100 100 100 100 100 100 100 100
75 99 97 94 100 100 100 100 47 15 6 52 5 7 91 100 100 100 100 100 100 100 100 100 100 100 100 100 95 53 44 9 5 8 5 38 44 78 99 100 100 100 100 100 100 100 100 100 100
100 100 80 31 100 100 99 82 70 86 72 21 44 93 35 15 59 94 99 97 100 100 100 97 40 54 46 32 15 50 91 92 90 86 88 98 100 100 100 100 100 100 100 100 100 100 100 100 100
100 100 100 100 99 100 100 100 100 100 93 87 99 89 7 0 20 13 5 14 36 95 99 76 10 7 5 5 61 100 100 100 100 100 100 100 100 100 100 100 100 100 100 100 100 100 100 100 100

GFSSGP_prec_cloud_066.txt.gz
Cloud_Cover
93 15 0 0 0 0 0 0 0 0 4 10 5 5 5 5 4 4 5 5 5 5 8 4 5 5 5 4 5 5 5 23 95 100 100 80 83 51 100 100 53 30 4 15 17 81 5 4 0
88 94 16 0 0 0 0 0 0 0 3 5 5 5 5 5 5 5 4 5 5 5 10 14 5 5 34 84 7 5 44 38 100 99 100 100 88 72 26 30 55 3 5 4 65 26 13 3 0
100 76 94 2 0 2 0 0 0 0 0 5 13 5 5 4 5 5 2 5 6 4 6 71 5 6 10 35 25 62 92 85 99 100 100 100 32 15 5 1 0 0 0 1 82 49 80 0 0
100 63 27 5 5 44 3 0 0 0 0 4 5 24 16 5 0 5 2 0 5 5 14 28 5 5 5 5 5 5 42 100 98 100 100 100 27 11 0 0 3 1 0 0 56 29 99 0 0
100 81 5 5 3 49 5 0 0 0 0 0 2 26 71 21 6 5 4 0 1 2 33 30 5 5 5 78 5 14 91 77 26 99 100 100 20 5 0 0 0 0 0 2 88 100 0 0 0
100 68 5 5 40 77 34 0 0 0 0 0 0 2 7 56 29 5 5 0 9 19 96 97 17 5 20 82 33 90 100 96 100 100 5 100 1 0 0 0 90 16 39 60 99 22 0 0 0
55 49 88 98 83 100 100 11 0 0 0 0 0 0 2 6 12 14 8 9 25 25 57 100 52 0 38 75 5 100 100 48 100 100 2 88 0 0 0 8 96 13 67 96 28 23 0 0 0
39 54 97 100 100 100 96 5 5 5 0 0 0 0 0 5 7 93 98 13 32 80 3 93 99 83 45 8 5 74 93 96 100 100 97 0 0 0 0 66 99 100 49 4 0 0 0 0 0
97 40 100 100 100 100 90 6 5 24 12 0 0 0 0 0 73 100 100 58 83 100 16 14 22 5 5 3 31 77 35 1 74 100 100 0 0 0 4 5 22 89 17 0 0 4 6 2 4
88 6 100 100 100 100 100 86 5 0 44 35 4 0 0 5 93 100 100 100 100 100 91 35 23 6 3 5 5 10 5 0 0 56 93 0 0 0 0 0 0 2 0 0 0 3 2 5 3
100 38 100 100 100 100 100 81 5 4 3 18 90 100 61 5 92 100 100 100 100 100 100 100 66 30 13 4 4 5 5 2 1 5 5 0 0 0 0 0 0 5 4 0 0 5 0 0 0
100 100 100 100 100 100 100 100 51 5 5 5 94 100 85 22 51 100 100 100 96 100 100 100 50 72 5 4 0 0 0 0 3 12 5 0 4 4 0 0 0 3 2 0 0 0 0 0 0
100 100 100 100 100 100 100 100 23 5 5 13 48 96 45 11 5 97 100 100 96 85 100 100 100 100 9 26 17 0 5 5 5 36 12 5 4 1 9 9 0 0 0 0 0 0 0 0 0
100 100 100 100 100 100 100 100 100 34 5 5 28 95 100 90 25 5 36 68 100 100 100 100 98 100 86 53 50 5 5 5 35 76 58 5 4 5 5 63 74 6 0 0 0 0 0 3 2
100 100 100 100 100 100 100 100 100 100 27 5 21 100 100 100 100 64 5 5 5 5 14 15 95 100 100 35 54 39 12 42 5 43 6 5 3 4 5 4 52 97 0 0 0 0 0 4 3
100 100 100 100 100 100 100 100 100 100 32 99 100 54 100 100 100 86 69 78 9 14 6 10 24 69 100 100 60 60 56 9 5 5 5 2 3 5 4 5 6 19 74 2 1 5 5 5 5
99 100 100 100 100 100 100 100 100 100 100 90 99 100 100 100 100 100 100 74 22 21 78 46 8 10 36 100 100 75 51 28 7 4 4 5 5 4 5 5 5 5 100 45 5 11 48 64 5
96 100 100 100 100 100 100 100 100 100 100 100 86 100 100 100 100 100 100 100 95 44 13 78 100 100 75 100 100 100 100 88 24 14 5 5 5 5 5 5 5 4 80 98 63 45 69 60 12
100 87 100 100 100 100 100 100 100 100 100 100 100 100 100 100 100 100 100 100 100 100 78 64 5 5 5 30 100 100 100 100 100 99 34 32 7 7 5 5 5 5 8 100 100 100 100 100 100
100 100 100 100 100 100 95 100 100 100 100 100 100 100 100 100 100 100 100 100 100 100 100 100 22 57 29 7 46 20 75 100 100 100 100 100 83 30 15 85 91 98 70 77 99 100 100 100 100
100 98 100 100 100 100 100 100 100 100 100 100 100 100 99 100 100 100 100 100 100 100 100 100 69 91 16 8 5 30 68 100 100 100 100 100 100 100 100 89 100 100 82 12 25 100 100 100 100
100 100 70 100 100 100 100 100 100 100 100 100 100 100 100 82 98 100 100 100 100 100 100 100 100 100 96 84 26 57 90 83 100 100 100 100 100 100 100 100 100 100 100 100 80 99 100 100 100
100 100 100 100 100 100 100 100 100 100 92 100 100 100 100 100 100 72 97 100 100 100 100 100 100 100 100 100 100 100 100 100 93 100 100 100 100 100 100 100 100 100 100 100 100 100 100 100 82
100 100 100 100 100 100 100 100 100 100 100 78 98 100 100 100 100 100 100 76 53 98 100 100 100 100 100 100 100 100 100 100 100 100 100 100 100 100 100 100 100 100 100 100 100 100 100 100 100
100 100 100 100 100 100 100 100 100 100 100 100 72 92 100 100 93 92 100 97 100 100 90 67 93 97 100 100 92 90 97 100 100 100 100 100 100 100 100 100 100 100 100 100 100 100 100 100 100
100 95 96 100 59 100 100 100 100 100 100 100 100 100 100 100 100 74 95 94 45 16 10 6 56 95 84 75 82 94 100 100 100 100 100 100 100 100 100 100 100 100 100 100 100 100 100 100 100
100 100 93 100 90 100 64 100 100 100 100 100 100 100 100 100 100 100 100 99 100 97 97 81 45 48 74 100 100 100 100 100 100 100 100 100 100 100 100 100 100 100 100 100 100 100 100 100 100
100 100 100 100 100 100 100 91 100 100 100 100 100 100 100 100 100 100 94 27 22 14 34 96 94 69 72 100 100 100 100 100 100 100 100 100 100 100 100 100 100 100 100 100 100 100 100 100 100
100 99 98 96 100 100 100 96 100 100 100 100 100 100 100 100 100 100 63 79 98 99 95 93 100 100 100 100 100 100 96 56 95 89 50 22 42 92 100 100 100 100 100 100 100 100 100 100 100
100 99 63 95 100 100 100 100 100 100 100 95 98 100 100 100 100 100 100 97 54 6 12 11 10 35 53 49 73 42 20 6 14 13 34 65 96 96 100 86 100 100 100 100 100 100 100 100 100

GFSSGP_prec_cloud_069.txt.gz
Cloud_Cover
100 57 12 0 0 0 2 3 0 0 0 2 4 0 0 0 0 4 1 0 0 0 12 0 0 0 7 0 0 15 100 100 46 100 97 91 6 5 37 60 72 32 54 89 52 19 5 5 0
100 100 88 20 0 5 0 3 3 0 5 5 0 0 0 0 0 0 0 0 0 0 7 5 2 0 0 0 0 0 2 41 84 100 100 83 38 56 50 5 5 5 4 82 53 10 5 0 0
100 100 97 87 5 2 5 5 5 0 28 22 10 1 0 4 0 0 0 4 0 1 5 3 3 5 4 5 5 4 20 100 99 100 100 100 39 32 46 20 5 5 5 6 96 41 65 0 0
100 100 100 82 63 3 3 75 5 5 5 5 60 5 0 0 5 1 0 4 5 5 6 18 5 22 5 5 5 5 38 60 100 100 100 100 90 100 67 7 5 5 3 3 39 90 98 0 0
100 100 93 78 16 14 5 58 0 0 0 6 40 66 6 1 5 5 0 2 5 5 8 5 1 4 5 5 9 18 94 100 100 100 100 100 45 31 8 2 4 0 0 1 20 89 2 0 0
100 82 94 68 36 5 30 12 0 0 0 0 5 62 19 5 5 5 5 0 5 9 5 31 22 5 10 44 5 63 95 100 100 99 52 100 5 4 0 1 1 54 4 31 79 91 0 0 0
97 83 5 13 77 89 11 15 1 0 0 0 2 4 17 5 5 5 5 7 5 26 81 100 18 5 50 89 18 100 100 100 100 100 7 5 2 0 0 0 66 39 26 66 35 0 0 0 0
100 97 86 71 98 98 100 57 5 0 0 0 0 5 4 5 5 5 2 12 6 17 22 100 97 45 21 87 99 100 100 100 100 100 100 0 0 0 0 14 66 2 62 70 2 0 0 0 0
100 95 47 18 59 100 100 49 5 5 3 0 1 0 14 32 27 7 5 6 22 5 15 14 92 94 34 12 14 26 100 100 100 100 100 0 0 0 0 0 46 100 58 1 0 0 0 0 0
100 100 100 100 100 100 100 46 66 4 5 5 0 0 0 5 5 38 6 5 65 43 15 20 12 9 1 6 12 23 94 60 17 28 19 0 0 0 0 0 0 82 94 0 0 1 0 0 0
100 100 100 100 100 100 100 100 100 5 4 5 5 0 0 0 0 35 98 98 100 100 36 4 2 4 1 7 4 4 10 1 5 13 16 1 2 0 0 0 0 6 1 3 0 2 3 3 14
100 100 100 100 100 100 100 100 100 87 5 2 3 15 18 0 0 0 58 62 37 100 100 15 6 5 6 4 0 0 3 5 4 5 14 6 5 4 0 0 0 0 0 0 0 4 2 12 5
100 100 100 100 100 100 100 100 100 79 3 3 5 5 5 6 18 0 4 71 13 17 97 100 66 22 7 9 24 1 2 2 0 2 4 4 5 5 4 2 0 0 0 4 2 9 25 7 7
100 100 100 100 100 100 100 100 100 94 5 5 20 5 5 5 77 83 58 28 8 10 19 100 100 100 58 38 48 32 16 5 6 14 20 5 5 5 5 22 9 0 0 5 0 8 17 4 6
100 100 100 100 100 100 100 100 100 100 23 7 12 92 37 5 6 61 99 90 98 73 72 78 100 100 99 83 76 77 59 50 84 26 5 5 5 5 5 8 40 56 0 0 0 1 1 0 0
100 100 100 100 100 100 100 100 100 100 100 93 6 65 100 100 93 91 34 13 24 26 35 54 80 42 95 89 57 99 65 13 82 40 5 5 5 5 5 5 8 14 74 0 0 0 5 0 5
100 60 100 100 100 100 100 100 100 100 100 99 34 45 87 100 100 100 100 71 8 97 80 72 43 39 85 80 79 66 39 21 26 20 8 5 5 5 5 5 5 6 5 80 3 0 1 6 11
98 10 76 100 100 100 100 100 100 100 100 100 24 29 100 100 100 100 100 100 99 93 100 100 100 94 100 55 98 100 80 52 34 16 9 5 5 5 4 0 0 2 31 39 55 8 53 100 74
100 100 100 100 100 100 100 100 100 100 100 100 93 72 100 100 100 100 100 100 100 100 100 89 91 99 74 15 38 74 100 72 27 5 9 17 5 5 5 10 6 5 5 38 95 76 95 66 58
100 99 96 98 100 100 100 100 100 100 100 100 100 77 100 100 100 100 100 100 100 100 100 100 75 65 53 52 97 94 91 100 100 100 15 9 13 5 10 25 46 46 80 100 100 100 90 100 44
99 94 100 88 20 100 100 100 100 100 100 100 100 100 100 100 100 100 100 100 100 100 100 100 100 100 100 94 19 95 96 89 88 99 100 100 66 62 32 9 100 100 100 100 100 100 100 100 100
100 96 100 86 66 100 100 100 100 100 100 100 100 100 100 100 100 100 100 100 100 100 100 100 100 100 100 85 83 8 8 8 25 6 36 70 100 100 100 100 99 100 100 100 100 100 100 99 100
100 99 92 75 100 78 100 100 100 100 100 100 100 100 100 100 100 100 100 100 100 100 100 100 100 100 100 100 56 16 5 5 9 7 5 5 40 66 99 100 100 100 100 100 100 100 100 100 100
100 100 99 100 100 100 89 100 100 100 100 100 100 100 100 100 100 100 100 100 100 100 100 100 100 100 100 100 100 76 67 42 61 90 100 93 78 25 92 100 100 100 100 100 100 100 100 100 100
100 100 100 100 100 95 97 100 100 100 100 100 100 100 100 100 100 100 100 100 100 100 100 100 100 100 100 100 95 96 96 100 100 93 100 100 100 100 100 98 100 100 100 100 100 100 100 100 100
100 100 100 100 53 100 100 67 100 100 100 100 100 100 85 100 100 100 100 100 100 100 100 95 87 93 97 100 61 71 78 64 73 100 100 100 100 100 100 100 100 100 100 100 100 100 100 100 100
100 100 100 100 100 45 48 72 100 100 100 100 100 100 100 93 60 74 100 100 100 89 83 98 100 100 100 100 95 93 97 100 100 100 100 100 100 100 100 100 100 100 100 100 100 100 100 100 100
100 99 91 100 100 56 5 10 98 100 100 100 100 100 100 100 100 100 100 98 76 28 12 62 95 100 100 100 99 100 99 100 99 87 55 72 85 77 99 100 100 100 100 100 100 100 100 100 100
99 100 98 92 100 100 85 86 53 100 100 100 100 100 100 100 100 100 100 100 96 99 100 100 100 81 50 85 100 99 88 89 95 100 100 100 100 100 100 100 91 47 82 98 100 100 100 100 100
97 100 100 100 100 100 100 93 49 22 100 100 100 100 100 100 100 100 100 100 100 100 100 70 98 31 34 76 90 90 92 90 38 17 13 47 89 36 47 80 96 94 91 98 100 100 100 100 100

GFSSGP_prec_cloud_072.txt.gz
Cloud_Cover
100 100 12 2 0 0 0 0 5 0 0 3 48 56 5 8 0 0 0 0 0 0 2 0 0 0 0 0 4 59 100 100 100 100 100 100 46 98 100 100 100 74 96 94 5 5 19 5 0
100 100 53 23 0 0 0 0 5 0 0 25 46 5 5 0 0 0 0 0 0 0 0 1 2 0 0 0 0 0 5 90 100 100 100 100 100 100 100 97 96 69 19 92 11 5 4 0 4
100 100 100 5 4 0 0 0 5 4 0 5 5 5 5 0 5 0 0 0 0 0 0 0 1 0 0 0 0 0 0 100 100 100 100 100 84 34 2 4 5 5 5 85 56 7 2 4 0
100 100 100 98 5 4 0 40 98 25 0 0 10 6 5 6 1 0 0 0 0 1 4 0 0 0 0 0 0 1 2 100 73 100 100 100 73 30 10 5 5 5 6 91 55 98 5 1 0
100 100 100 100 52 93 6 8 36 86 3 0 25 0 4 5 0 0 0 0 68 2 0 0 0 0 0 5 0 31 33 87 95 100 100 98 20 5 5 17 13 42 47 40 52 100 1 0 0
100 100 100 100 71 99 96 70 14 5 1 1 10 1 5 5 1 0 0 8 54 0 0 3 23 5 5 5 2 8 100 94 100 94 57 5 5 5 5 28 33 25 28 24 55 95 0 0 0
100 100 83 96 100 100 100 98 100 0 0 3 2 5 61 2 0 0 1 60 21 2 2 3 5 5 5 6 36 15 100 69 94 96 38 5 5 5 5 13 98 6 12 64 34 0 0 0 0
100 100 100 100 99 100 100 100 100 5 2 5 0 3 18 5 5 0 23 0 9 1 5 5 5 5 100 100 100 66 100 100 100 50 96 0 0 0 0 0 14 2 0 7 0 0 0 0 0
100 100 96 40 37 100 100 100 93 69 5 4 1 0 38 10 5 5 55 21 85 10 5 100 93 19 73 63 76 100 100 99 100 100 70 0 0 0 0 0 0 20 3 18 0 0 0 0 0
100 100 86 100 100 100 100 100 100 74 21 5 5 0 61 19 5 3 10 21 0 36 90 1 47 26 10 5 5 2 34 100 100 100 27 4 2 0 2 0 1 100 100 0 0 0 0 0 0
100 100 100 100 100 100 100 86 100 94 47 11 32 0 0 5 0 5 5 56 0 0 90 98 7 20 20 3 5 5 5 7 5 1 5 0 0 0 0 0 0 0 25 0 0 0 0 0 0
100 100 100 100 100 100 100 100 24 100 100 97 96 0 0 0 1 0 5 5 9 1 5 29 91 60 20 0 0 1 0 2 0 0 4 0 0 1 1 0 0 0 0 0 0 0 0 0 0
99 100 100 100 71 100 100 100 100 100 100 15 3 0 7 0 0 1 0 5 12 7 5 0 0 83 33 3 0 0 0 1 3 0 1 5 5 5 5 5 5 3 0 0 0 0 0 0 0
78 100 100 99 99 100 100 100 100 100 96 7 5 5 26 1 5 4 3 0 6 11 5 5 5 5 17 44 0 0 0 0 0 0 5 9 8 5 5 5 5 5 4 0 0 0 7 0 0
62 100 95 92 100 100 100 100 100 100 79 5 26 19 5 5 5 5 10 5 0 0 0 0 5 5 5 5 88 30 0 1 5 5 33 9 5 5 5 5 5 5 5 4 5 1 0 0 0
46 60 97 92 64 100 100 100 100 100 100 100 100 100 56 5 5 44 31 29 5 5 8 4 5 17 26 5 10 25 45 57 74 8 7 18 7 5 5 5 5 4 5 1 0 0 0 0 0
10 99 88 53 64 100 100 100 100 100 99 86 98 98 87 100 90 21 8 5 5 31 100 100 94 68 75 98 99 100 98 29 10 22 18 52 5 7 5 5 2 4 4 0 0 0 2 5 5
13 28 10 89 5 54 100 100 100 100 100 100 100 100 97 100 100 100 97 69 19 24 67 94 92 98 65 59 25 54 62 100 98 15 10 36 20 5 5 5 5 0 3 5 4 5 5 5 7
10 40 60 100 59 66 100 100 100 100 100 100 100 100 100 100 100 100 100 100 100 100 100 99 100 100 100 87 98 48 92 65 72 98 100 18 5 7 5 5 5 5 5 1 5 5 5 5 5
73 100 86 100 100 44 89 100 100 100 100 100 100 100 100 100 100 100 100 100 100 100 100 99 100 100 87 63 89 30 47 100 100 100 99 25 5 6 5 5 5 5 5 5 15 5 63 98 30
19 5 34 100 68 100 18 100 100 100 100 100 100 100 100 100 100 100 100 100 100 100 100 98 100 100 100 93 100 100 100 100 100 100 97 41 8 5 5 5 5 39 16 17 28 70 100 99 100
5 91 96 100 83 26 79 87 100 100 100 100 100 100 100 100 100 100 100 100 100 100 100 100 100 100 100 100 100 100 100 100 100 20 6 13 50 5 5 12 11 61 99 85 100 98 100 100 100
42 96 52 100 76 94 100 69 100 100 100 100 100 100 100 100 100 100 100 100 100 100 100 100 100 100 100 100 100 100 62 98 98 43 16 5 5 5 5 2 9 96 84 73 75 97 100 100 100
100 86 100 98 100 73 100 10 4 100 100 100 100 100 100 100 100 100 100 100 100 100 100 100 100 100 100 100 92 97 98 13 47 92 41 5 5 7 69 74 99 94 100 100 100 100 100 76 100
100 100 100 100 100 20 100 52 0 84 100 100 100 100 100 100 100 100 100 100 100 100 100 100 100 100 100 100 100 89 100 70 12 5 5 66 82 73 76 98 100 100 100 100 100 100 100 100 100
100 100 100 99 65 12 20 60 0 17 100 100 100 100 100 100 100 100 100 100 100 100 100 100 100 100 100 100 72 100 33 57 19 16 14 5 16 41 78 100 100 100 100 100 100 100 100 100 100
100 100 100 96 96 63 17 21 8 0 100 100 100 100 100 100 100 100 100 100 100 100 100 100 100 100 100 100 100 100 70 88 95 70 71 96 99 100 100 99 100 100 100 100 100 100 100 100 100
100 100 100 100 100 100 96 23 5 5 67 100 100 100 100 100 100 100 100 100 100 100 100 100 100 100 100 100 100 100 100 100 100 100 100 100 93 86 99 82 37 61 100 100 100 100 100 100 100
100 100 99 99 100 100 91 15 4 27 99 100 100 100 100 100 100 100 100 100 100 100 98 87 70 92 100 100 100 100 100 97 89 19 43 10 35 37 21 26 97 100 100 68 91 86 100 100 100
100 100 96 98 100 100 100 100 70 83 67 100 100 100 100 100 100 100 100 100 100 100 100 99 72 74 100 100 100 100 100 98 98 42 16 7 32 74 78 50 65 77 63 60 98 100 100 100 100

GFSSGP_prec_cloud_075.txt.gz
Cloud_Cover
100 100 40 5 0 0 0 0 0 0 0 0 4 5 5 0 0 1 0 0 5 30 28 5 0 0 0 0 0 0 37 99 100 100 100 100 100 100 100 21 80 100 100 100 100 100 5 9 5
94 100 68 32 3 0 0 0 0 0 1 0 7 1 0 0 0 0 1 0 0 20 27 33 0 0 0 0 0 0 0 49 84 61 100 100 100 100 100 100 80 70 74 98 100 98 51 23 19
98 100 100 19 5 0 4 0 0 0 5 0 2 0 0 1 5 4 2 0 0 5 12 28 0 3 0 0 0 0 0 13 48 86 97 100 100 100 100 99 100 46 19 8 24 5 4 5 5
100 100 97 71 5 5 5 0 5 5 0 0 0 0 0 5 5 0 5 0 0 0 0 1 0 3 0 0 0 0 45 55 7 94 100 100 87 99 24 7 68 100 78 40 99 5 26 5 5
97 100 100 57 100 100 100 5 6 93 5 0 0 0 0 5 5 0 19 2 0 0 4 1 0 2 0 0 0 0 49 94 69 47 9 100 28 5 5 5 12 99 13 28 98 94 43 5 5
30 100 97 5 100 100 100 99 99 95 6 3 0 0 0 5 5 2 5 4 0 3 17 8 0 0 0 0 0 0 0 97 41 5 5 21 5 5 5 5 5 5 26 26 58 5 5 5 5
14 100 98 71 100 100 100 100 69 100 28 2 0 0 0 6 4 0 5 5 0 0 14 40 15 0 0 0 1 6 28 61 50 2 5 5 5 5 5 14 40 13 12 43 5 5 5 5 5
0 79 100 100 100 100 100 99 100 90 5 5 0 0 3 2 5 5 5 37 21 11 18 33 19 5 1 54 28 59 45 0 12 31 0 0 0 0 5 96 22 5 4 63 0 1 3 0 0
5 30 100 100 98 100 100 100 100 100 96 88 3 0 0 0 4 38 14 23 50 35 0 0 0 1 100 100 100 100 100 77 98 8 3 0 0 0 0 0 0 0 0 0 0 0 0 0 0
6 12 100 100 100 100 100 100 100 96 100 77 5 0 1 4 4 9 69 5 27 2 0 0 0 0 78 62 24 24 39 34 3 0 0 0 0 0 0 0 0 0 0 0 0 0 0 0 0
53 1 100 100 100 100 100 100 100 100 100 100 5 5 5 6 11 6 49 10 0 0 0 4 5 5 5 5 5 5 5 5 5 4 3 0 0 0 0 0 0 0 5 0 0 0 6 0 0
34 0 99 100 100 100 100 100 100 100 61 88 90 5 5 5 5 5 18 18 4 0 4 8 4 5 19 46 6 5 5 5 5 5 5 5 5 4 2 9 1 2 3 5 4 21 0 0 0
6 5 50 100 100 100 100 100 100 99 99 100 64 5 5 5 5 5 24 5 63 71 1 5 5 61 8 56 55 21 5 5 5 5 5 5 3 0 0 0 0 1 4 5 5 6 2 0 0
0 3 100 100 83 100 100 100 100 100 100 100 99 5 5 5 22 5 47 11 5 18 10 3 5 6 47 5 22 20 18 5 5 5 4 5 5 4 5 3 32 9 5 5 5 5 3 0 1
5 2 100 100 100 100 100 100 100 100 100 100 98 5 4 37 76 10 4 20 5 3 1 4 5 3 5 5 5 5 5 5 5 5 5 0 0 0 0 61 10 5 5 5 5 4 3 5 5
52 65 96 100 100 100 100 100 100 100 100 100 87 88 14 77 95 51 5 5 5 1 0 5 2 4 5 5 5 5 9 5 4 5 0 0 0 5 5 37 5 5 9 5 5 5 5 5 5
18 84 24 100 100 100 100 100 100 100 97 92 100 100 95 94 78 93 70 33 5 5 1 0 0 0 4 5 5 5 74 34 0 0 4 2 5 5 5 22 27 91 17 5 5 5 2 0 0
5 41 68 44 100 100 100 100 100 100 100 87 100 100 94 71 99 100 100 48 5 6 5 3 0 0 0 4 4 5 4 57 99 27 93 17 8 76 92 93 90 26 9 5 5 5 0 0 0
5 6 5 5 98 100 100 100 100 100 100 100 100 100 100 100 100 100 100 100 26 5 39 94 71 5 17 5 5 5 51 95 100 100 100 58 20 12 49 100 67 5 5 5 5 5 3 4 3
28 52 4 0 27 67 100 100 100 100 100 100 100 100 100 100 100 100 100 100 100 100 100 100 72 94 76 5 5 65 78 100 94 98 100 90 77 100 100 96 30 31 6 5 5 5 5 9 47
96 33 5 5 25 94 75 84 100 100 100 100 100 100 100 100 100 100 100 100 100 100 100 100 100 69 95 75 30 52 84 100 100 100 95 100 100 100 100 97 100 93 65 5 5 5 5 5 24
100 100 94 99 25 44 60 23 10 60 100 100 100 100 100 100 100 100 100 100 100 100 100 100 100 100 100 100 100 100 100 100 100 100 100 100 100 96 99 100 100 29 5 5 5 54 46 91 90
100 100 94 59 96 98 83 51 0 17 100 100 100 100 100 100 100 100 100 100 100 100 100 100 100 62 39 66 49 93 100 100 100 100 98 6 65 100 77 96 29 47 81 25 27 45 78 58 62
100 100 100 99 100 99 5 5 0 2 0 100 100 100 100 100 100 100 100 100 100 100 100 100 100 89 78 46 52 80 98 100 100 100 100 90 38 26 85 26 72 92 41 22 84 98 100 100 100
100 100 98 100 100 60 55 5 0 1 0 82 100 100 99 99 100 100 100 100 100 100 100 100 100 100 100 100 59 92 100 74 28 41 84 100 100 98 28 12 36 5 20 39 100 100 100 100 100
100 100 91 48 54 30 26 4 0 1 2 6 100 100 100 67 100 100 100 100 100 100 100 100 100 100 100 100 100 99 99 64 79 96 69 54 80 78 98 79 98 81 100 100 100 100 100 100 100
100 100 100 100 60 90 10 3 0 5 5 0 72 100 100 100 99 100 100 100 100 100 100 100 100 100 100 100 100 100 98 100 100 100 74 25 89 41 27 100 81 100 100 100 46 98 100 100 100
100 94 100 100 100 84 44 5 1 35 64 10 5 99 100 100 100 99 100 100 100 100 100 100 100 71 62 76 82 99 100 93 90 87 41 81 99 100 100 92 37 98 43 16 72 62 82 90 100
100 100 69 86 100 75 17 28 100 100 100 98 43 2 100 100 100 100 100 100 100 100 100 100 100 100 100 100 100 100 100 100 94 100 100 100 100 100 100 86 65 78 44 74 73 88 99 99 100
99 100 100 100 70 99 96 100 96 85 100 100 100 95 96 100 100 79 91 100 100 100 100 100 100 100 100 100 100 100 98 100 100 100 100 100 100 100 99 97 83 98 75 49 98 100 98 100 100

GFSSGP_prec_cloud_078.txt.gz
Cloud_Cover
100 98 98 90 100 71 54 15 0 0 0 0 0 0 0 0 3 4 0 0 4 38 26 7 0 0 0 0 4 5 3 2 89 100 100 22 6 24 91 100 100 100 20 5 33 84 96 80 84
100 76 96 99 81 98 100 62 0 0 0 0 0 0 0 0 5 20 8 38 1 24 36 31 0 0 0 0 0 0 0 0 0 0 100 100 100 82 85 88 100 100 12 58 29 22 21 18 6
68 100 97 92 32 100 100 82 0 0 0 0 0 0 0 0 3 5 2 37 32 48 30 5 0 0 0 0 0 0 0 0 0 0 2 5 79 44 100 100 100 100 100 72 100 70 18 17 9
77 100 75 64 5 100 100 84 0 0 0 0 0 0 0 3 5 5 30 40 46 46 25 3 0 0 0 0 0 6 4 6 0 0 22 0 0 46 12 16 70 100 100 100 82 19 58 86 5
19 89 99 37 5 100 100 100 5 0 0 0 0 0 0 0 4 5 18 18 44 67 35 13 0 0 1 0 0 0 60 0 0 0 2 32 39 5 5 27 15 23 9 21 61 5 3 5 2
61 38 96 5 5 100 100 89 6 3 0 4 0 0 0 0 5 5 4 5 5 37 46 17 4 0 1 0 0 0 0 0 0 0 8 99 5 5 22 83 36 29 72 5 36 5 5 5 5
0 15 6 5 100 100 100 100 60 5 2 5 4 0 0 0 4 5 5 5 10 18 44 32 20 0 0 0 0 0 0 0 0 4 8 7 8 17 9 5 45 13 5 19 5 6 5 5 2
0 2 16 5 99 100 100 93 96 22 7 72 5 3 0 0 5 5 6 44 49 52 52 59 30 20 6 5 19 1 0 0 0 5 5 5 5 5 5 4 14 1 4 6 4 2 0 0 0
39 3 32 3 89 100 100 100 100 86 68 39 5 4 0 0 1 10 54 100 100 95 98 87 55 29 10 19 0 36 0 0 0 1 0 0 0 0 2 0 9 0 32 1 0 0 0 0 0
99 90 0 0 97 100 100 100 100 39 99 21 47 4 0 0 0 43 91 99 80 96 79 53 36 12 2 98 77 49 2 0 0 0 0 0 0 0 0 0 0 0 0 0 0 0 0 0 0
100 0 0 0 97 100 100 100 100 100 74 100 78 4 5 0 0 6 12 18 15 7 9 42 6 5 0 36 6 2 1 1 0 3 0 0 0 0 0 1 8 3 0 0 0 0 1 0 0
52 0 0 0 91 100 100 100 100 100 100 100 100 18 2 0 5 5 48 5 5 1 2 5 14 5 4 2 0 0 1 6 16 5 5 0 0 1 0 11 6 8 6 3 1 22 5 2 0
83 26 0 33 5 99 100 100 100 100 100 90 100 97 6 0 0 93 5 5 1 5 5 5 16 5 5 5 2 0 0 0 0 5 5 5 5 5 2 4 7 6 6 5 11 17 14 5 5
38 30 3 99 8 100 100 100 100 100 100 100 88 100 70 5 5 5 5 6 5 5 5 28 100 47 5 5 5 1 5 5 5 5 5 5 5 5 5 2 3 10 7 5 1 5 6 5 4
31 7 100 72 84 100 100 100 100 100 100 100 99 99 100 100 18 5 6 5 0 5 5 5 5 30 8 5 1 4 5 5 5 5 5 5 5 5 5 5 0 0 4 0 0 2 4 5 5
16 85 62 88 96 100 100 100 100 100 100 100 100 100 100 100 26 5 5 5 5 5 4 5 43 93 100 81 34 10 5 6 5 5 5 5 26 14 5 5 5 4 4 5 5 5 14 5 4
5 12 6 47 38 100 100 100 100 100 100 100 100 100 92 100 82 29 38 31 5 19 56 5 5 21 40 20 14 27 48 8 5 5 5 5 5 5 5 5 5 5 5 10 6 96 6 5 4
24 59 5 5 4 100 100 100 100 100 100 100 100 56 35 100 100 100 49 99 45 5 40 100 64 53 63 90 90 62 6 5 34 20 8 5 5 5 10 12 34 53 80 98 100 100 89 31 5
99 73 5 5 21 79 100 100 100 100 100 100 100 100 38 100 100 100 82 31 100 80 5 5 78 92 76 100 96 78 48 5 5 5 5 5 5 6 63 49 63 84 100 100 100 97 57 95 44
100 100 8 22 3 6 100 100 100 100 100 100 100 100 100 99 100 100 100 100 100 100 100 52 51 94 96 88 100 74 55 43 35 19 19 5 5 53 80 100 92 99 100 94 52 100 100 94 12
100 100 95 5 5 8 5 77 100 97 100 100 100 99 95 8 66 100 100 100 100 100 100 100 90 15 5 29 93 100 99 100 95 96 97 72 100 100 83 72 81 100 71 88 90 41 84 100 100
100 100 100 59 5 13 5 78 100 100 100 100 100 100 95 43 12 100 100 100 100 100 100 100 100 99 45 23 8 60 99 100 100 99 100 100 100 100 100 100 100 100 100 73 79 100 100 100 100
100 100 100 100 44 93 29 37 100 100 100 100 100 100 100 100 100 100 100 100 100 100 100 100 100 100 100 100 100 44 34 72 100 100 100 100 100 100 100 100 99 100 61 61 100 100 100 100 100
100 100 100 97 87 97 5 24 21 100 100 100 100 100 100 100 100 100 100 100 100 100 100 100 100 100 100 100 100 100 100 75 18 6 6 28 49 54 50 42 46 95 100 100 100 100 100 96 76
100 100 100 100 100 75 5 66 0 100 100 100 100 100 100 99 80 100 100 100 100 100 100 100 100 100 100 100 100 100 100 100 100 100 99 96 79 76 5 76 14 19 48 71 93 100 48 98 84
100 97 64 17 61 24 46 5 0 0 8 99 100 100 100 100 100 100 100 100 100 100 100 100 100 100 100 100 100 100 100 100 100 100 100 100 100 100 100 96 64 76 43 100 100 100 100 100 100
92 100 100 11 7 5 2 0 0 0 0 0 69 100 100 100 100 100 100 100 100 100 100 100 100 100 100 100 100 100 100 100 100 100 100 100 100 100 100 100 100 100 98 97 100 98 77 71 100
99 74 97 100 79 26 4 0 1 11 2 0 0 3 60 73 100 100 100 100 100 100 100 88 77 68 65 73 99 100 100 100 100 100 100 100 100 100 93 94 95 100 86 94 100 94 98 77 100
100 98 95 49 72 10 5 5 22 86 5 0 5 39 26 1 100 100 100 100 100 100 100 100 100 86 78 41 71 67 79 90 100 77 98 97 93 96 86 94 94 100 100 100 100 100 85 94 99
100 100 100 34 85 46 14 43 47 100 87 88 98 100 97 5 100 100 100 100 100 100 100 100 100 100 99 95 78 12 67 88 78 83 88 100 81 99 96 100 100 100 79 100 100 100 98 75 100

GFSSGP_prec_cloud_081.txt.gz
Cloud_Cover
99 8 36 100 87 9 100 100 100 7 5 0 0 1 0 0 0 0 0 0 6 45 31 11 0 0 0 4 6 9 0 3 91 6 94 100 96 20 11 5 5 5 92 92 100 48 5 5 5
90 93 75 52 24 5 94 100 100 58 5 0 0 0 0 5 4 63 41 39 5 38 36 29 0 0 0 0 0 0 1 2 5 5 91 9 79 85 6 26 11 5 6 100 91 51 13 23 6
78 98 94 68 5 4 90 100 100 99 48 3 0 0 0 0 5 7 0 64 36 33 28 25 0 0 0 0 0 0 0 0 2 0 0 8 4 1 1 17 82 100 98 100 100 100 100 95 56
66 67 100 94 4 37 100 100 100 100 99 5 0 0 0 0 2 1 37 44 38 53 24 3 0 0 0 0 0 1 43 5 39 0 1 12 1 0 0 0 0 4 6 8 54 10 72 74 27
66 98 68 100 6 86 100 100 100 100 100 43 2 0 0 0 4 48 77 69 91 72 26 24 0 0 0 0 0 4 4 76 45 58 0 0 0 0 0 0 0 0 3 5 5 60 5 5 27
87 36 45 100 5 100 100 100 64 100 100 100 48 0 0 6 94 100 98 82 100 100 47 16 6 0 0 0 0 5 20 33 0 0 0 0 0 0 0 0 4 3 5 6 52 97 46 5 6
1 6 7 3 5 100 100 100 38 10 100 99 5 0 0 3 100 95 64 78 100 88 56 54 34 2 2 0 0 0 0 0 0 0 4 32 0 0 0 3 5 9 5 82 73 47 16 5 2
1 7 18 0 0 83 100 100 16 13 77 100 6 0 0 0 62 27 48 77 75 95 77 78 44 17 6 1 0 0 0 0 0 0 3 0 0 0 0 5 5 5 5 5 5 5 0 0 0
53 42 98 5 3 3 91 100 100 100 70 100 100 12 1 7 28 52 100 100 100 100 100 74 55 36 20 3 4 0 0 0 0 0 0 0 0 0 5 10 51 13 2 2 0 0 0 0 0
23 53 0 0 0 0 33 95 100 100 75 70 100 99 48 92 46 93 100 100 100 80 100 100 87 48 49 5 2 0 0 0 0 0 0 0 4 5 0 16 27 14 0 0 0 0 0 0 0
22 0 0 0 0 0 55 28 100 41 37 83 100 100 70 100 97 100 100 100 97 97 100 100 96 68 36 9 24 4 0 1 0 0 0 0 0 0 0 18 14 5 2 1 0 0 1 0 0
47 17 0 7 9 0 1 5 96 99 58 100 86 100 100 100 100 100 100 100 78 82 85 98 43 31 6 21 48 5 5 10 14 0 5 5 5 0 0 8 14 21 14 5 4 16 3 0 3
76 100 51 66 72 3 2 71 96 100 96 99 95 100 100 97 100 43 71 47 34 34 23 10 6 10 46 32 51 57 12 8 2 5 3 0 5 4 0 3 16 24 17 7 12 13 17 5 4
51 100 34 14 1 0 1 99 5 100 100 100 100 99 100 100 100 100 66 23 30 90 47 9 5 5 5 44 74 74 66 28 12 9 4 3 3 0 0 4 11 13 14 6 5 11 13 8 1
89 99 100 6 0 0 2 23 5 100 100 100 100 100 100 100 100 100 100 28 9 25 71 52 5 5 6 7 75 68 70 52 49 25 8 5 5 4 0 0 8 5 12 5 4 1 4 0 0
100 88 28 5 0 0 2 1 78 100 100 100 100 100 100 100 100 100 100 97 69 100 100 100 82 7 49 83 77 84 88 79 90 92 72 30 5 5 3 4 5 5 5 8 6 5 5 2 5
99 86 97 48 5 4 4 3 100 100 100 100 100 100 100 100 100 100 100 100 90 54 100 100 100 100 89 83 100 100 100 100 100 87 70 49 64 34 5 37 8 11 5 5 5 5 5 6 61
77 32 74 5 10 32 5 27 100 99 100 100 100 100 100 100 100 100 100 100 95 15 81 98 100 100 100 100 100 100 100 100 100 100 100 76 61 49 42 56 25 5 14 14 22 6 14 86 20
100 100 98 5 1 37 8 28 100 17 100 100 100 100 100 99 100 100 100 100 100 88 88 5 85 100 100 100 100 100 100 100 100 96 93 100 100 97 63 22 5 5 5 5 67 96 100 84 29
100 100 100 100 9 3 99 71 100 98 100 100 100 100 100 99 98 98 93 100 100 100 100 100 100 99 81 68 75 88 93 100 100 95 99 100 100 18 15 17 37 9 18 86 100 100 100 100 77
100 100 100 100 13 5 11 97 61 12 100 100 100 100 100 60 70 25 78 100 100 100 100 100 100 100 100 95 28 70 100 100 100 100 100 100 100 100 100 100 95 100 100 100 100 100 100 100 69
100 100 96 28 5 5 4 20 5 47 100 100 100 100 100 100 38 8 45 98 100 100 100 100 100 100 100 100 100 100 100 100 100 100 100 100 100 100 100 100 100 100 100 100 99 100 63 74 100
100 100 100 32 100 26 5 11 0 70 100 100 100 100 100 100 100 52 5 5 46 82 100 100 100 100 100 100 100 100 100 100 100 100 100 100 100 100 100 100 100 100 100 100 100 100 100 77 97
100 100 100 99 87 84 5 5 5 12 100 100 100 100 100 100 100 100 83 37 70 91 100 100 100 100 100 100 100 100 100 100 100 100 100 100 100 100 100 100 100 100 100 100 100 100 98 83 99
100 100 100 100 100 92 60 5 0 0 84 100 100 100 100 100 48 39 95 100 99 100 100 100 100 100 100 100 100 100 100 98 100 100 100 100 100 100 100 100 100 100 100 100 100 100 100 100 100
100 100 32 56 83 57 6 16 0 0 0 98 100 100 100 100 52 78 56 62 100 100 97 99 96 100 100 100 100 100 100 100 99 99 97 97 97 100 97 98 98 98 56 84 94 84 94 100 100
100 100 88 52 99 48 20 54 0 0 0 1 99 100 69 7 99 100 98 100 100 100 100 80 38 57 99 100 100 100 100 100 100 100 100 100 100 100 100 100 100 100 100 97 98 96 100 100 100
100 100 100 100 70 5 5 5 5 1 0 0 0 30 87 100 100 87 99 100 100 100 100 100 83 9 5 10 58 98 100 100 100 100 100 100 100 100 100 100 100 100 100 100 100 100 97 100 100
100 100 100 100 100 21 6 5 0 15 31 0 0 0 0 0 5 74 33 100 98 93 95 70 82 83 96 5 6 7 11 69 85 89 99 100 100 100 100 100 100 100 100 100 100 100 100 100 100
100 100 86 10 93 89 37 22 3 0 0 0 0 0 0 0 5 6 26 80 94 100 100 100 99 100 100 56 80 55 98 5 7 7 100 100 100 100 100 100 100 100 100 100 100 100 100 100 100

GFSSGP_prec_cloud_084.txt.gz
Cloud_Cover
86 100 100 100 100 39 5 95 100 100 82 0 0 1 5 5 0 0 6 1 18 66 30 8 5 7 54 7 2 3 61 48 38 10 5 3 16 90 98 86 60 22 7 1 0 5 6 8 10
5 71 100 100 44 5 5 100 100 100 98 4 0 0 1 5 1 87 51 32 7 65 37 30 0 5 5 33 37 30 5 5 5 8 4 4 4 39 44 61 94 50 26 5 5 19 38 80 100
71 81 77 100 71 5 36 100 100 100 100 8 0 0 0 0 21 48 0 47 41 37 27 25 5 4 5 5 64 6 5 5 5 5 4 7 5 0 1 14 56 2 1 1 0 13 27 89 37
100 100 80 70 6 5 97 100 100 100 100 21 5 5 5 0 1 1 19 47 55 67 30 5 1 5 5 0 0 1 5 3 5 0 0 14 2 4 11 21 0 0 0 0 1 1 10 8 5
100 84 100 6 26 89 100 100 100 100 89 16 9 5 5 5 9 49 46 42 42 92 26 5 0 0 0 0 0 0 17 17 10 26 20 8 0 0 1 5 0 0 0 0 0 5 5 10 5
100 50 100 5 0 100 100 100 81 95 96 5 7 11 5 82 100 100 100 56 20 31 28 16 0 0 0 0 0 0 0 95 100 100 70 4 0 0 0 21 1 0 0 4 4 21 8 5 5
57 93 12 8 0 4 100 100 15 99 77 20 9 95 5 94 100 100 100 100 100 64 21 50 21 1 0 0 0 0 0 7 0 1 0 0 1 0 0 4 38 0 3 5 15 5 5 5 5
7 32 49 5 0 0 47 100 100 97 100 10 89 100 85 32 100 100 100 100 100 82 79 90 56 40 24 4 0 0 0 0 0 0 0 5 0 0 0 0 65 1 3 5 5 5 5 5 0
70 96 73 4 0 0 33 82 65 100 91 74 72 100 100 83 100 100 100 100 100 100 100 100 84 39 24 4 5 4 1 0 0 0 0 0 0 4 0 0 27 62 1 5 5 4 2 0 0
98 90 2 0 0 0 34 99 100 100 100 73 42 99 100 100 100 100 100 100 100 100 100 100 96 46 21 5 5 5 3 1 0 0 0 0 0 3 5 5 87 75 5 2 0 0 0 0 0
85 50 35 3 0 0 0 100 100 91 93 100 5 67 100 100 100 100 96 100 100 100 100 100 100 50 12 5 21 38 5 7 3 0 0 0 4 0 16 20 53 15 2 0 0 0 1 0 0
22 88 16 8 0 0 0 57 81 53 46 92 8 14 100 100 100 100 100 100 100 100 100 100 99 76 23 5 51 26 5 10 14 5 1 0 16 5 2 26 22 18 22 7 0 12 0 2 2
39 100 21 0 0 0 0 0 5 18 100 100 21 80 85 100 100 100 98 100 100 100 79 100 100 91 51 56 69 81 58 92 65 6 7 4 5 9 5 6 15 24 22 8 4 5 8 2 0
92 100 5 4 6 3 0 0 1 0 62 98 91 76 99 100 100 100 100 100 100 100 100 100 99 40 24 56 66 83 84 100 90 44 5 5 4 2 9 3 5 21 26 15 3 5 9 6 0
100 40 70 15 100 100 42 0 0 0 8 100 62 100 100 100 81 100 97 100 100 100 100 100 56 25 6 34 34 47 58 52 20 46 22 34 13 37 13 6 6 8 15 3 7 4 3 8 0
100 85 61 12 58 89 3 0 0 0 2 97 99 100 100 100 100 100 100 100 100 100 100 100 100 100 97 42 86 86 91 33 64 89 85 43 67 59 67 27 5 5 7 13 14 12 11 12 5
97 62 61 48 86 15 0 0 0 0 0 58 100 97 100 100 100 100 100 100 100 100 100 100 100 100 100 100 100 100 100 88 100 92 24 25 63 38 14 5 6 67 62 31 8 7 5 5 5
79 100 100 96 13 100 7 0 0 0 3 13 96 100 100 100 100 100 100 100 100 100 100 100 100 100 100 100 100 100 100 100 100 100 100 100 100 100 100 97 100 100 96 73 19 5 5 5 5
98 100 100 100 100 100 72 5 3 1 0 27 5 100 90 100 100 95 99 100 100 100 100 100 100 100 100 100 100 100 100 100 100 100 100 100 100 100 100 100 100 100 87 52 49 14 13 5 5
32 100 100 100 100 88 11 4 5 4 1 75 6 100 100 100 100 100 100 100 100 100 100 100 100 100 100 100 100 100 100 100 100 100 100 100 100 100 100 100 94 20 89 100 11 5 17 18 9
77 100 100 100 97 5 5 7 0 4 5 98 25 100 100 100 95 100 100 100 100 100 100 100 100 100 100 100 100 100 100 100 100 100 100 100 100 100 100 86 98 88 72 25 20 21 93 100 100
100 100 100 100 54 40 8 23 0 0 4 5 10 86 100 100 100 94 100 100 100 100 100 100 100 100 100 100 100 100 100 100 100 100 100 100 100 100 100 100 97 100 86 93 98 100 100 100 100
100 100 100 100 41 5 14 93 0 0 0 0 29 32 100 100 100 58 83 100 100 100 100 100 100 100 100 100 100 100 100 100 100 100 100 100 100 100 100 100 100 100 100 100 100 100 100 100 100
100 100 100 100 100 64 5 5 4 0 0 0 2 11 100 100 100 100 92 100 99 91 100 100 100 100 100 100 100 100 100 100 100 100 100 100 100 100 100 100 100 100 100 100 100 100 100 100 100
100 100 100 100 100 94 3 9 87 0 0 0 0 0 100 100 100 100 100 100 100 100 97 99 100 100 100 100 100 100 100 98 100 100 100 100 100 100 100 100 100 100 100 100 94 100 100 100 100
100 100 100 76 70 100 10 27 96 4 0 0 0 0 51 100 100 100 100 100 100 100 96 37 100 100 100 100 100 100 100 100 100 100 100 100 100 100 100 100 100 100 100 100 100 100 100 100 100
100 100 100 100 100 100 100 100 100 10 3 0 0 0 0 100 100 100 100 100 100 66 43 57 47 60 72 96 100 100 100 100 100 100 100 100 100 100 100 100 100 100 100 100 100 100 100 100 100
100 100 100 100 100 100 100 100 100 95 5 1 0 0 0 100 100 100 100 100 100 100 50 56 80 28 31 21 49 73 98 99 100 100 100 100 100 100 100 100 100 100 100 100 100 100 100 100 100
100 97 49 100 100 100 98 69 9 5 0 0 0 0 0 77 100 60 96 92 86 100 94 84 5 7 49 16 5 45 62 98 99 100 100 100 100 100 100 100 100 100 100 100 100 100 100 100 100
100 100 100 100 100 100 100 91 98 5 0 0 0 0 0 0 24 26 18 31 30 31 70 100 81 89 72 34 12 98 58 93 99 100 100 100 100 100 100 98 100 100 100 100 100 100 100 100 100

GFSSGP_prec_cloud_087.txt.gz
Cloud_Cover
0 83 100 100 99 5 8 37 100 100 96 2 0 5 2 5 3 0 5 16 3 12 37 24 4 5 1 83 100 66 8 0 2 4 6 6 0 9 5 5 6 66 72 29 16 35 17 7 3
5 3 88 100 62 5 30 98 100 100 98 5 1 4 3 5 5 56 58 57 0 24 38 35 5 5 4 8 92 95 97 8 1 0 5 5 2 6 5 5 0 0 1 0 0 1 5 0 12
5 5 27 91 43 5 16 100 100 100 99 7 5 4 5 6 13 47 6 36 27 61 46 32 5 5 5 5 66 44 62 39 9 5 5 12 6 18 5 1 0 0 0 0 0 0 1 1 5
82 69 69 5 31 52 94 100 100 100 58 13 5 5 5 20 68 5 34 92 76 74 34 16 0 3 5 1 69 4 32 6 9 5 5 6 13 8 32 0 0 0 0 0 0 0 0 0 3
100 83 97 5 0 86 96 100 100 100 100 20 3 4 21 100 100 47 24 100 100 89 39 34 0 0 0 0 0 1 22 11 12 5 9 6 3 1 11 0 0 0 0 0 0 4 2 5 5
99 98 61 5 0 2 100 100 88 96 100 99 5 5 5 88 100 100 88 54 100 84 42 36 1 0 0 0 0 0 15 92 98 83 99 24 0 0 23 8 0 0 0 2 1 5 5 5 5
91 95 5 0 0 4 61 100 100 50 100 100 76 5 5 58 100 100 100 95 92 52 5 36 11 0 1 0 0 0 0 100 100 90 13 0 0 0 13 19 3 0 3 5 5 5 5 5 5
11 73 22 7 2 0 0 90 100 87 100 100 100 42 5 5 96 100 100 100 23 51 23 2 19 33 30 5 1 0 0 0 0 0 0 0 0 0 5 51 79 5 5 1 0 0 5 5 5
33 100 23 2 3 0 1 0 99 44 100 91 100 100 12 100 100 100 100 100 100 43 44 29 50 36 27 28 5 1 0 0 0 0 0 0 0 5 5 9 100 99 6 0 0 5 5 1 5
66 93 1 4 4 0 0 0 5 99 91 100 48 99 100 98 100 100 100 100 100 88 100 100 98 39 37 30 3 5 3 3 0 0 0 0 0 0 4 6 65 78 5 4 1 2 1 0 0
50 4 18 15 2 4 0 0 5 64 69 44 99 71 100 100 100 100 100 100 100 100 100 100 100 70 55 44 5 5 2 5 2 5 3 0 0 0 0 0 98 94 7 5 5 2 0 0 0
8 100 97 30 9 5 3 0 0 7 7 95 100 100 100 100 100 100 100 100 100 100 100 100 100 92 61 21 5 5 7 5 5 5 5 5 0 0 0 0 3 16 13 4 0 0 0 0 0
54 11 100 88 100 5 8 1 0 1 100 12 100 100 100 94 98 100 100 100 100 100 100 100 100 88 71 22 5 15 6 18 5 5 16 9 2 1 2 0 4 10 15 0 0 0 0 0 0
7 92 100 100 74 92 18 5 0 0 8 100 100 64 100 100 100 100 100 100 100 100 100 100 100 98 82 29 7 5 19 34 78 8 21 29 67 38 5 5 5 5 6 1 5 0 0 0 0
88 73 100 100 98 12 5 1 0 0 6 100 98 97 87 100 100 100 100 100 100 100 100 100 100 100 71 31 40 5 91 75 74 47 13 5 5 22 14 5 5 5 5 5 5 5 0 0 4
100 100 96 40 98 36 2 0 0 0 0 98 100 100 50 100 100 100 100 100 100 100 100 100 100 100 100 100 34 64 81 57 71 43 8 5 7 54 47 6 6 5 7 5 5 1 6 6 7
100 64 21 57 6 88 30 1 0 0 0 31 100 96 66 94 100 100 100 54 87 100 100 100 100 100 100 100 100 94 32 94 100 80 12 22 47 51 30 38 64 36 39 74 40 51 100 99 100
37 100 48 20 87 100 100 7 0 0 0 0 22 100 89 10 100 100 100 92 37 100 100 100 100 100 100 100 100 100 100 92 41 42 63 91 100 56 10 41 86 99 100 100 100 100 100 100 90
100 100 90 100 100 92 95 26 5 0 0 0 0 2 96 61 100 100 100 100 84 100 100 100 100 100 86 100 100 100 100 100 100 100 100 100 100 100 60 98 100 100 100 100 100 100 100 100 47
100 95 100 100 100 86 96 91 5 0 0 0 0 0 71 100 70 98 100 100 100 100 100 100 100 100 100 100 100 100 100 100 100 100 100 100 100 100 100 100 100 100 100 100 100 100 100 99 100
100 100 54 97 100 98 100 99 5 1 0 0 0 0 3 100 27 83 100 100 99 100 100 100 100 100 100 100 100 100 100 100 100 100 100 100 100 100 100 100 100 100 100 100 100 100 100 100 100
100 100 100 100 81 91 100 94 5 0 0 0 0 0 1 11 76 100 100 100 100 100 100 100 100 100 100 100 100 100 100 100 100 100 100 100 100 100 100 100 100 100 100 100 92 68 99 100 93
100 100 100 100 99 82 75 52 5 0 0 0 0 0 0 33 97 100 100 100 100 98 98 100 100 100 100 100 100 100 100 100 100 100 100 100 100 100 100 100 100 100 100 100 100 100 100 64 99
100 100 100 69 100 82 26 18 5 0 0 0 0 0 62 95 78 100 100 100 66 100 100 100 100 100 100 100 100 100 100 100 100 100 100 100 100 100 100 100 100 100 100 100 100 100 96 100 100
100 100 100 100 85 68 23 11 37 0 0 0 0 0 28 99 6 100 100 100 100 100 100 100 100 100 100 100 100 100 100 100 100 100 100 100 100 100 100 100 100 96 100 100 97 100 100 100 100
100 66 18 24 42 43 100 24 65 0 0 0 0 0 0 28 8 52 100 100 100 100 91 100 100 100 100 100 100 100 100 100 100 100 100 100 100 99 100 100 100 100 100 88 100 100 100 100 100
97 97 100 14 52 100 100 100 100 33 0 0 0 0 0 0 0 12 100 100 100 97 86 53 83 100 100 100 100 100 100 100 100 100 100 100 100 100 100 100 100 100 100 100 100 100 100 100 100
100 88 98 92 100 100 100 100 100 71 1 0 0 0 0 0 0 0 82 100 100 100 100 94 100 91 64 98 100 100 100 100 100 100 100 100 100 100 100 100 100 100 100 100 100 100 100 100 100
100 99 78 100 100 100 100 100 100 91 5 0 0 0 0 0 0 0 0 3 100 100 100 100 100 97 97 95 58 38 44 100 100 100 100 100 100 100 100 100 100 100 100 100 100 100 100 100 100
100 74 100 100 100 100 100 100 100 96 3 5 0 0 0 0 0 0 0 0 100 100 100 100 100 60 82 56 53 5 11 6 48 70 100 100 100 100 100 100 100 100 100 100 100 100 100 100 96

GFSSGP_prec_cloud_090.txt.gz
Cloud_Cover
20 6 100 100 98 13 18 23 99 100 74 0 5 5 0 2 5 36 0 0 0 5 84 5 26 6 5 87 74 4 0 13 5 1 0 0 0 1 4 2 4 5 5 6 21 1 4 0 2
5 4 9 100 41 35 5 73 100 100 94 10 5 5 5 5 9 41 6 0 0 1 88 26 6 5 5 5 57 27 2 52 98 81 5 5 0 0 0 3 5 5 5 5 5 0 0 0 0
11 45 10 6 65 5 6 92 100 100 100 83 5 5 5 5 34 100 45 5 3 4 100 54 2 4 5 5 5 5 3 33 89 53 79 7 11 4 1 2 4 5 5 5 0 0 0 0 0
100 81 56 5 2 90 26 78 100 100 100 72 5 5 7 6 8 73 48 6 0 1 88 18 0 0 0 5 5 2 3 5 3 5 5 55 29 12 5 5 5 5 5 0 0 0 0 5 6
100 90 92 5 1 44 91 100 100 100 100 92 8 5 48 100 80 60 53 48 8 2 41 13 0 4 0 5 6 5 0 38 26 0 4 12 7 57 5 4 0 0 0 1 0 0 0 0 4
98 82 65 5 3 2 83 100 100 96 100 100 30 5 48 100 100 100 81 100 100 62 98 76 15 0 0 0 0 2 13 95 98 43 1 7 13 45 5 4 0 0 0 0 0 0 0 9 5
77 93 5 4 5 16 0 92 100 92 100 100 100 13 25 100 100 100 100 100 100 97 100 47 17 0 12 0 0 0 0 100 11 89 2 2 1 1 53 0 0 0 4 3 2 1 4 4 6
100 94 22 6 60 4 0 1 85 100 100 100 100 94 59 77 100 100 100 100 100 99 100 93 86 74 42 22 4 0 0 24 13 0 0 0 0 0 43 36 21 5 5 5 5 1 3 0 0
99 96 84 10 37 17 38 0 5 27 100 100 100 99 100 100 100 100 100 100 100 100 100 100 80 98 92 100 35 5 2 0 0 0 0 0 0 0 5 82 100 48 4 5 5 5 0 0 0
100 88 5 86 75 100 99 13 5 5 57 100 100 98 100 100 100 100 100 100 100 100 100 90 88 100 77 100 59 74 32 1 0 0 0 0 0 0 0 26 100 100 62 3 3 0 0 0 0
100 68 14 96 100 100 100 95 0 5 1 77 100 100 100 100 100 100 97 100 100 100 100 99 89 100 89 86 100 100 63 20 4 0 0 0 0 0 4 5 100 100 20 63 18 17 8 0 3
100 8 100 100 77 61 100 100 14 5 5 2 89 100 99 86 100 100 100 100 100 100 100 100 100 95 79 92 88 91 51 31 5 5 5 3 1 0 0 0 6 73 97 100 70 31 27 3 0
100 100 97 100 100 61 100 100 100 1 5 4 5 99 100 96 87 100 100 100 100 100 100 100 98 90 72 100 100 86 55 10 6 19 41 5 5 5 5 2 4 4 8 1 2 0 2 4 0
100 100 100 100 100 98 100 100 98 4 3 5 5 9 100 100 100 100 100 100 100 100 100 100 100 99 56 65 86 85 54 74 53 18 37 22 42 5 5 6 5 5 4 3 4 5 4 5 5
100 84 100 100 100 96 100 100 9 5 0 5 5 5 17 100 100 100 100 100 100 100 100 100 83 100 54 100 97 75 74 58 54 70 49 33 65 81 64 73 83 38 5 54 49 64 38 8 6
100 100 100 94 99 100 100 100 98 68 5 1 5 6 5 12 100 100 100 100 100 100 100 100 100 100 100 100 100 80 71 27 21 59 47 49 54 77 99 100 92 52 16 69 81 81 86 81 47
100 20 83 96 100 81 100 100 100 68 17 3 0 74 28 16 50 100 100 100 100 100 100 100 100 100 100 100 100 100 100 100 68 36 80 22 64 60 73 78 98 100 100 96 80 44 28 96 100
88 87 95 100 100 94 99 100 100 100 86 5 0 0 47 63 5 98 100 100 100 100 99 100 100 100 100 100 100 100 100 100 100 100 88 66 85 99 93 41 87 96 87 65 92 81 100 100 100
100 100 98 100 100 100 100 100 100 100 40 6 0 0 0 12 48 21 100 100 100 100 100 88 100 100 100 100 100 100 100 100 100 100 100 100 100 95 39 71 97 100 66 72 100 100 100 100 100
69 99 97 100 100 100 100 100 100 95 5 5 0 0 0 29 25 5 68 100 100 100 100 96 47 79 100 100 100 100 100 100 100 100 100 100 100 100 100 100 100 100 100 100 100 100 100 100 100
86 92 100 74 100 100 100 100 96 52 21 5 0 0 0 0 100 96 89 62 100 100 100 54 86 100 100 100 100 100 100 100 100 100 100 100 100 100 100 100 100 100 100 100 100 100 100 100 100
100 100 100 89 100 100 100 100 73 53 77 5 0 0 0 0 54 100 71 64 100 100 100 100 98 100 100 100 100 100 100 100 100 100 100 100 100 100 100 100 100 100 100 100 100 100 100 100 100
100 98 100 100 100 100 100 100 100 96 5 5 0 0 0 0 0 10 100 100 95 32 95 94 100 100 100 100 100 100 100 100 100 100 100 100 100 100 100 100 100 100 100 100 100 100 100 100 100
100 99 100 100 100 99 100 93 29 93 100 21 0 0 0 0 0 2 56 95 92 70 100 100 100 100 100 100 100 100 100 100 100 100 100 100 100 100 100 100 100 100 100 100 100 100 100 100 100
100 100 100 100 97 51 100 78 5 87 100 100 4 0 0 0 0 0 3 72 75 100 100 100 100 100 100 100 100 100 100 100 100 100 100 100 100 100 100 100 100 100 100 100 100 100 100 100 100
100 98 100 80 56 92 100 8 98 100 100 99 3 0 0 0 0 1 6 6 100 100 77 100 100 100 100 100 100 100 100 100 100 100 100 100 100 100 100 100 100 100 100 100 100 100 100 100 100
100 100 99 100 75 100 100 100 100 100 100 24 3 0 0 0 0 5 3 100 100 98 100 100 100 100 100 100 100 100 100 100 100 100 100 90 97 100 100 100 100 100 100 100 100 100 100 100 100
100 98 82 98 97 100 100 100 100 99 99 9 0 0 0 0 3 5 0 99 100 76 100 99 100 100 100 100 100 100 100 100 100 100 100 100 100 100 100 100 100 100 100 100 100 100 100 100 100
100 100 88 100 100 100 84 94 100 100 71 18 2 0 0 0 0 0 0 0 98 100 100 100 100 100 93 100 100 82 100 100 100 100 100 100 100 100 100 100 100 100 100 100 100 100 100 100 100
97 90 58 100 100 100 100 100 100 100 71 5 0 0 0 0 0 0 0 0 0 16 4 100 100 100 100 79 96 100 40 61 100 100 100 100 100 100 100 100 100 100 100 100 100 100 100 100 100

GFSSGP_prec_cloud_093.txt.gz
Cloud_Cover
5 5 74 100 100 5 31 68 86 77 46 37 40 5 21 26 97 53 3 0 0 3 5 0 1 5 1 0 4 5 5 0 0 4 5 5 3 5 5 5 5 2 5 4 3 2 5 5 5
7 28 5 96 80 38 14 100 95 100 97 21 73 55 75 6 5 9 2 0 0 2 6 11 0 2 5 2 23 13 5 17 2 3 5 5 5 3 4 17 0 0 4 0 3 1 5 5 3
100 78 82 26 79 23 20 40 100 100 86 100 89 100 48 5 5 3 1 1 5 6 2 8 5 2 8 4 4 2 5 44 39 79 4 4 35 24 49 58 73 5 5 5 0 5 5 12 2
100 100 71 70 31 6 100 99 96 100 100 100 63 72 19 84 5 5 1 5 5 8 4 19 1 1 0 1 5 4 0 1 7 59 23 1 15 8 20 60 59 5 41 18 5 7 6 11 9
100 100 98 70 5 3 94 79 7 100 100 100 80 12 43 90 30 21 7 5 6 16 98 0 0 0 0 0 0 0 0 0 0 5 5 24 24 28 5 5 5 5 5 5 4 3 1 4 7
100 100 99 24 5 5 98 16 100 100 100 100 100 5 31 100 100 97 99 16 5 24 80 30 16 2 0 0 0 0 0 0 10 1 6 13 90 5 5 5 4 4 4 4 5 3 1 2 3
100 100 92 5 27 80 69 5 100 100 100 100 93 35 74 100 100 100 100 98 22 51 84 67 36 2 0 0 3 0 14 7 0 0 0 0 3 88 2 4 0 0 2 0 0 0 0 0 0
100 100 100 25 100 98 24 2 3 100 100 100 100 22 99 100 100 100 100 100 100 84 100 100 65 36 29 29 6 5 0 0 0 0 0 0 0 56 11 0 0 0 0 0 0 0 0 5 0
100 100 100 35 100 63 48 19 9 38 35 100 100 88 96 100 100 100 100 100 100 100 100 100 100 96 79 70 30 34 6 0 2 0 0 0 0 2 16 28 1 0 0 2 5 5 3 5 0
100 99 100 100 79 99 100 64 6 0 61 100 100 100 100 100 100 100 100 88 100 100 100 100 84 100 79 63 19 81 48 2 5 1 0 0 0 0 67 25 99 85 30 2 5 0 5 2 0
100 61 100 100 100 100 100 100 64 5 2 89 100 100 100 100 100 100 100 100 100 100 100 100 85 96 100 100 56 100 100 17 11 0 0 0 0 0 2 32 100 100 94 24 13 1 5 4 0
34 58 100 100 100 100 100 100 59 88 29 15 97 99 100 100 100 100 100 100 74 100 100 97 83 86 100 100 90 99 82 17 8 5 2 0 0 0 0 8 38 100 82 100 73 30 25 6 1
35 98 100 100 100 99 100 100 100 72 91 47 0 99 100 100 100 100 100 97 100 100 100 97 70 88 100 100 100 90 100 5 14 5 5 5 5 5 5 3 18 26 28 33 22 7 23 16 4
87 100 100 100 100 100 100 76 100 98 75 46 0 0 96 100 100 100 100 100 95 100 100 100 54 74 100 100 100 100 100 65 26 14 5 5 5 5 7 24 62 40 10 9 11 5 5 5 5
100 100 100 100 86 100 100 100 100 99 97 10 3 0 0 99 100 100 100 100 100 100 100 100 96 7 93 100 100 100 100 67 96 24 22 48 43 61 60 64 89 52 17 68 71 70 76 43 18
100 97 100 100 100 100 100 20 100 100 68 20 5 5 2 0 99 100 100 100 100 100 100 100 100 100 76 95 100 100 100 100 100 30 22 29 14 65 58 71 43 10 49 87 100 92 86 88 100
100 98 82 100 100 100 100 99 100 100 71 5 5 5 5 5 2 98 100 100 100 100 100 100 100 93 100 57 89 100 100 100 100 99 81 42 26 64 39 81 88 73 37 66 74 100 100 100 83
100 56 99 100 100 100 100 100 100 100 5 92 12 5 5 5 3 2 99 100 100 100 100 100 100 100 100 56 22 55 100 100 100 100 100 100 91 78 71 56 51 31 82 96 47 38 80 100 100
100 100 100 100 100 100 96 100 100 100 100 100 32 0 5 5 5 5 5 98 100 100 100 100 100 100 100 100 86 66 100 100 100 100 100 100 100 100 100 100 100 98 42 5 6 5 5 41 94
100 95 100 100 100 100 100 100 100 100 100 100 100 15 1 0 5 78 0 36 87 100 100 100 100 100 100 100 100 100 100 100 100 100 100 100 100 100 100 100 100 100 100 100 100 100 97 100 100
100 100 100 100 87 100 100 100 100 100 100 51 15 24 5 4 0 29 8 8 97 75 100 100 100 100 100 94 61 100 100 100 100 100 100 100 100 100 100 100 100 100 100 100 100 100 100 100 100
100 100 100 100 91 100 100 99 100 100 100 41 100 88 40 17 5 10 83 0 73 96 86 86 100 97 100 100 94 100 100 100 100 100 100 100 100 100 100 100 100 100 100 100 100 100 100 100 100
100 89 92 100 100 100 100 100 100 99 96 92 100 30 5 5 0 0 0 0 0 58 14 88 100 100 100 100 100 100 100 100 100 100 100 100 100 100 100 100 100 100 100 100 100 100 100 100 100
98 90 100 100 100 100 100 97 100 100 100 100 87 41 5 5 1 2 0 0 0 48 34 77 58 100 100 100 98 100 100 100 100 100 100 100 100 100 100 100 100 100 100 100 100 100 100 100 100
100 100 100 100 100 100 100 82 100 50 98 100 91 36 26 5 1 0 57 0 0 48 94 100 47 93 100 100 100 90 100 100 100 100 100 100 100 100 100 100 100 100 100 100 100 100 100 100 100
100 100 100 100 100 98 63 87 100 100 100 100 46 30 5 5 5 0 0 0 0 78 67 95 99 100 82 100 100 76 85 100 100 100 100 100 100 100 100 100 100 100 100 100 100 100 100 100 100
100 100 100 89 100 100 13 85 100 100 100 100 100 25 84 6 0 0 0 0 0 3 64 70 100 100 100 66 100 100 99 97 100 100 100 100 100 100 100 100 100 100 100 100 100 100 100 100 100
100 97 100 97 100 100 81 100 100 100 100 100 76 100 100 8 1 0 0 0 0 5 1 63 100 100 94 97 95 96 100 91 100 100 100 100 100 100 100 100 100 100 100 100 100 100 100 100 100
100 100 85 100 100 100 100 100 100 100 100 100 100 100 100 8 0 0 0 0 0 10 5 58 30 100 100 99 100 96 100 100 100 100 100 100 100 100 100 98 95 100 100 100 100 100 100 100 100
95 84 100 100 100 100 100 100 100 100 100 100 100 100 96 5 0 0 0 0 1 76 48 78 34 60 100 100 100 100 100 100 100 100 100 72 100 100 100 100 99 100 100 100 100 100 100 100 100

GFSSGP_prec_cloud_096.txt.gz
Cloud_Cover
94 100 100 100 100 69 42 70 94 98 97 100 39 50 56 98 100 41 2 0 0 0 3 0 0 0 1 4 1 20 30 5 5 5 5 2 5 1 1 2 5 5 5 5 0 0 5 0 0
100 100 100 100 73 74 44 96 100 100 84 5 62 100 56 22 12 32 3 2 0 0 1 0 0 0 0 4 6 4 18 7 18 6 5 2 2 5 5 1 4 5 5 5 5 5 4 3 2
100 100 91 85 14 8 56 100 100 99 69 34 100 100 57 9 5 100 8 0 0 0 0 0 0 0 0 2 46 4 5 5 6 33 5 4 0 3 5 4 5 5 6 6 29 5 4 19 9
100 100 93 8 4 4 100 100 100 100 100 100 100 100 5 100 77 100 27 24 0 1 0 0 5 4 56 9 0 0 0 5 5 5 67 48 5 5 5 5 5 13 13 5 7 6 0 14 1
100 100 100 14 0 0 91 100 100 99 100 100 100 83 49 100 99 56 16 97 1 42 0 0 2 5 5 0 0 0 0 0 5 0 5 8 51 28 28 11 5 5 5 8 5 4 1 13 0
100 100 95 52 0 0 32 100 100 75 100 100 98 10 100 100 95 62 91 96 5 16 1 0 0 0 2 0 0 0 0 16 0 2 15 65 2 4 19 37 5 4 3 0 0 1 0 0 0
100 100 71 39 54 3 39 68 95 70 100 100 100 28 89 100 100 92 96 99 85 5 4 4 6 5 5 3 0 0 12 87 17 0 0 1 82 0 0 4 4 1 4 2 0 11 0 0 0
100 100 100 100 99 100 100 17 5 99 100 100 100 8 98 100 100 100 96 100 99 22 32 4 21 15 6 5 5 4 32 59 0 0 0 0 85 8 0 0 3 5 4 0 0 0 0 0 0
100 100 100 100 100 100 100 78 78 87 100 100 100 7 84 100 100 100 100 98 100 88 85 30 5 28 66 51 23 20 4 0 0 0 0 0 4 2 0 0 0 0 0 0 0 0 0 0 1
100 100 100 100 100 100 100 95 79 30 6 100 73 97 92 100 100 100 100 100 100 100 100 100 43 46 46 100 87 5 5 0 0 0 0 0 0 0 7 0 5 0 0 0 0 0 0 0 2
100 84 100 100 100 100 100 100 100 30 0 19 100 100 100 100 100 100 100 100 100 100 100 100 83 66 25 48 99 76 5 5 0 0 0 0 0 0 100 3 44 0 1 0 0 0 0 0 5
86 100 100 100 100 100 100 100 100 97 6 5 2 88 100 100 100 100 84 98 100 100 100 100 99 97 46 60 71 100 100 34 20 5 1 0 0 0 0 0 0 9 48 36 0 1 4 5 5
83 100 100 100 100 100 100 100 100 74 100 100 7 4 28 100 100 100 100 63 100 100 92 100 100 78 98 100 25 62 100 100 41 6 5 3 0 0 0 0 0 0 2 3 2 11 35 5 5
66 100 100 100 100 100 100 100 100 100 100 90 92 0 5 96 100 100 100 100 88 77 100 100 100 77 16 100 98 5 97 100 100 63 19 5 5 4 0 0 1 5 34 5 14 55 46 14 31
100 100 96 100 100 100 100 100 100 82 100 84 60 6 0 7 100 100 100 98 100 90 97 99 100 100 98 100 100 60 99 100 100 100 68 22 6 5 5 5 5 5 5 5 52 63 62 33 62
100 84 100 99 100 100 100 100 100 100 100 88 54 61 0 0 51 100 100 100 100 100 100 100 100 100 100 100 100 100 98 86 100 100 100 64 90 15 5 5 5 16 53 52 39 52 52 66 93
100 100 78 100 100 100 100 100 100 100 100 100 6 79 4 0 0 73 100 100 100 100 100 100 100 100 100 98 100 100 100 99 42 100 100 100 100 74 29 88 85 73 36 22 31 25 5 5 11
93 67 100 100 100 100 100 98 100 100 100 99 83 31 13 5 2 0 83 100 100 100 100 100 100 100 100 98 47 100 100 100 100 100 100 100 100 100 100 100 100 100 100 100 99 53 5 17 5
100 100 100 100 100 100 100 100 100 100 81 40 71 6 90 5 4 0 0 98 100 100 100 100 100 100 92 100 100 87 59 98 100 100 100 100 100 100 100 100 100 100 100 100 100 100 100 100 100
100 100 98 100 100 100 100 100 100 97 100 89 84 62 100 78 100 2 0 3 27 100 100 100 100 100 100 99 100 95 100 49 100 100 100 100 100 100 100 100 100 100 100 100 100 100 100 100 100
100 100 100 84 100 100 99 100 100 100 66 100 100 63 100 92 17 6 0 1 5 6 85 100 100 100 100 97 78 100 99 100 100 99 100 100 100 100 100 100 100 100 100 100 100 100 100 100 100
100 100 100 100 78 100 88 100 100 98 94 66 77 95 60 74 5 1 0 0 0 0 6 51 100 94 100 100 55 100 100 90 87 96 100 100 100 100 100 100 100 100 100 100 100 100 100 99 90
99 100 100 89 99 100 100 100 100 100 73 100 90 100 40 6 24 54 0 2 4 0 0 23 37 100 100 100 100 85 100 100 84 90 100 100 100 100 100 100 100 100 100 100 100 100 100 100 100
100 94 100 100 100 100 100 68 100 61 13 75 14 90 100 100 96 100 9 2 5 0 0 0 0 5 98 100 100 100 100 100 100 100 100 100 100 100 100 100 100 100 100 100 100 100 100 100 100
100 100 100 100 100 83 100 66 100 100 99 81 8 100 100 100 100 67 2 17 2 0 0 0 0 0 7 88 100 100 100 99 100 100 100 100 100 100 100 100 100 100 100 100 100 100 100 100 100
100 100 99 100 100 98 100 44 100 99 97 65 38 100 100 30 28 36 15 5 0 0 0 0 0 0 5 30 55 100 100 100 100 100 100 100 100 100 100 100 100 100 100 100 98 100 100 100 100
100 100 96 100 100 96 48 90 54 68 87 100 100 100 100 100 100 100 7 3 0 0 0 0 0 0 42 60 94 22 94 100 100 99 100 100 100 100 100 100 100 100 100 100 100 100 100 100 100
98 92 85 88 96 100 100 100 100 90 71 100 100 100 100 100 100 100 63 0 0 0 0 0 0 0 45 100 68 72 90 100 100 100 100 83 100 100 98 100 100 100 100 100 82 96 100 100 100
99 84 100 95 91 96 100 72 100 97 74 86 100 100 100 100 100 100 38 5 0 0 0 0 0 10 55 97 99 75 100 99 100 100 100 95 100 100 100 100 100 100 100 100 100 100 100 100 100
94 100 100 100 100 96 100 99 89 100 100 100 100 100 100 100 100 100 82 8 4 0 0 0 0 5 78 96 100 100 100 99 100 100 100 39 100 100 100 100 100 100 100 100 100 100 100 100 100

GFSSGP_prec_cloud_099.txt.gz
Cloud_Cover
100 100 90 30 100 35 5 65 100 100 100 75 11 8 63 74 73 29 3 100 21 23 0 1 6 0 0 0 51 18 5 3 9 5 5 39 99 90 18 10 4 0 4 4 5 4 5 7 49
100 100 58 71 20 9 9 93 100 100 100 89 89 74 33 78 98 99 44 10 0 22 0 0 0 0 0 5 63 0 2 0 35 6 5 5 5 3 3 0 2 5 5 3 2 5 40 9 4
100 100 69 96 10 5 7 100 100 100 97 99 91 16 12 78 65 46 97 30 10 42 21 3 9 0 0 0 0 0 0 0 5 3 5 5 43 25 5 2 0 0 5 3 0 11 5 5 0
100 100 92 78 5 2 99 100 100 100 100 100 99 73 94 99 100 95 100 46 100 27 22 0 0 0 50 18 0 0 0 0 0 2 5 5 25 41 38 5 5 0 5 5 5 43 40 4 0
100 100 100 70 0 0 98 100 100 100 60 100 100 100 98 100 100 100 100 100 90 4 5 0 0 0 23 0 0 0 0 0 0 0 2 5 5 5 5 74 81 16 19 5 5 5 5 0 5
100 100 100 100 0 0 48 100 100 100 100 100 100 60 33 100 67 100 100 100 21 5 56 0 0 0 6 3 0 0 0 0 0 0 0 0 2 0 0 5 5 5 9 7 36 6 3 5 3
65 100 100 72 4 0 21 100 96 100 100 100 100 87 17 60 36 38 100 99 25 38 92 48 1 0 3 4 0 0 0 0 1 4 0 0 0 0 2 5 5 5 0 5 5 5 5 0 0
97 100 100 96 7 92 97 100 92 86 100 100 100 100 89 100 28 11 100 100 100 100 100 88 5 5 1 2 16 1 56 0 0 3 37 1 0 0 0 0 0 4 5 5 0 0 0 0 0
100 100 99 100 52 100 100 93 6 70 100 100 100 100 100 100 100 100 100 100 100 100 84 68 41 7 5 5 5 20 67 5 0 0 3 31 0 0 0 0 0 0 0 0 0 0 0 0 0
99 98 100 100 100 100 100 100 100 98 49 100 93 74 100 100 100 89 100 100 100 100 100 100 100 63 5 5 60 80 58 5 5 4 0 0 0 0 0 0 0 0 0 0 0 0 0 0 0
99 77 100 100 100 100 100 100 100 99 15 100 97 100 100 100 100 64 82 100 100 100 100 100 100 100 75 55 25 6 80 94 61 5 5 4 2 1 0 20 10 3 0 0 0 0 0 0 0
10 12 100 100 100 100 100 100 100 36 99 45 100 96 100 100 100 80 96 99 100 100 100 100 100 100 71 92 99 86 100 64 97 94 6 5 5 3 78 14 13 14 8 6 0 0 0 0 4
65 91 100 100 100 100 100 100 100 100 99 21 3 5 39 100 100 58 66 99 63 100 100 100 100 100 100 100 100 96 100 90 27 99 100 37 5 5 4 5 7 0 0 1 0 0 5 5 5
91 100 99 100 100 100 100 100 100 100 96 5 0 0 5 100 100 99 22 44 43 100 100 100 100 100 98 44 99 100 100 100 27 48 100 100 84 5 5 5 5 4 2 0 0 2 5 5 5
88 91 100 100 100 100 100 100 100 100 77 32 5 0 0 93 100 100 76 65 68 100 94 100 100 100 100 68 86 100 100 100 100 91 62 100 100 100 42 13 19 30 6 8 5 5 5 5 5
100 96 100 100 100 100 100 100 100 100 100 100 72 12 7 2 71 100 100 100 100 99 100 61 94 100 100 100 54 78 100 100 98 100 88 42 99 100 100 96 6 36 11 40 82 10 35 5 7
100 100 77 100 100 100 100 100 100 100 100 100 97 79 5 5 2 51 100 100 100 100 100 100 100 100 100 100 100 91 85 100 100 96 100 47 51 88 100 100 82 95 96 99 86 99 32 5 14
76 100 100 100 100 100 100 100 100 100 100 100 100 100 22 5 3 5 14 100 100 100 100 100 100 100 100 100 100 92 92 100 100 100 89 90 49 23 63 100 100 100 100 100 100 100 100 68 80
100 100 100 100 100 100 100 100 100 100 100 100 100 63 100 6 9 5 2 0 100 100 100 100 100 100 100 100 100 100 54 100 100 100 100 100 81 93 44 94 100 100 100 100 100 100 100 100 100
100 100 100 100 100 100 100 100 100 100 100 100 100 82 94 89 25 5 4 20 1 90 100 100 100 100 100 100 100 100 100 91 100 100 100 100 100 89 98 100 100 100 100 100 100 100 100 100 100
100 100 100 92 91 100 100 100 100 100 100 100 100 99 58 6 99 7 0 5 4 0 18 97 100 100 100 100 49 100 100 100 100 74 100 100 99 100 100 100 100 100 100 100 100 100 100 100 100
100 100 41 94 98 100 100 100 100 100 100 100 100 100 100 5 14 24 91 4 2 3 0 0 71 100 93 100 100 100 100 70 97 100 98 100 100 100 100 100 100 100 100 100 100 100 100 100 100
100 100 100 100 99 100 100 100 100 100 100 96 100 100 100 62 27 100 100 73 55 100 55 5 0 17 100 7 51 100 100 94 61 100 100 100 100 100 100 100 100 100 100 100 100 100 100 100 100
100 100 100 100 100 94 92 100 100 100 100 100 100 100 100 100 9 32 99 88 100 86 35 5 0 5 13 14 8 97 100 100 100 100 100 100 100 100 100 100 100 100 100 100 100 100 100 100 100
100 100 100 100 100 100 100 100 100 100 100 97 100 100 100 86 7 91 100 100 100 100 92 2 0 32 12 0 2 94 100 100 100 100 100 100 96 100 100 100 100 100 100 100 100 100 100 100 100
100 100 100 100 100 89 100 100 94 71 87 98 85 60 25 1 0 8 80 94 100 88 39 56 5 4 0 0 0 0 10 100 100 100 91 47 98 99 100 100 100 100 100 100 100 100 100 100 100
100 100 100 100 96 100 36 80 80 10 5 27 65 48 4 5 12 12 15 99 59 100 100 89 5 0 0 0 0 0 0 2 46 100 100 100 100 100 100 100 100 100 95 53 99 100 100 100 100
86 100 94 100 100 100 23 5 79 32 13 5 13 62 32 19 80 100 100 93 100 100 100 93 67 3 0 0 0 2 5 9 5 30 100 100 100 100 100 99 99 100 100 86 96 100 100 100 100
100 64 100 76 64 100 25 10 60 26 5 4 54 100 77 18 79 97 100 100 100 100 88 43 8 2 0 0 0 2 5 7 27 59 58 96 74 100 100 100 91 100 89 100 100 100 100 100 100
100 98 78 42 23 41 5 93 100 100 99 74 72 100 100 100 100 100 100 100 100 100 90 45 5 0 0 0 1 21 15 100 100 73 72 56 100 100 100 100 100 100 90 39 93 97 93 100 100

GFSSGP_prec_cloud_102.txt.gz
Cloud_Cover
100 100 100 97 83 10 7 4 100 100 100 100 49 93 27 5 11 42 40 10 39 43 31 4 8 0 0 0 0 11 5 25 69 100 66 35 89 100 92 8 5 5 5 5 0 0 5 0 0
100 98 100 96 42 5 3 22 100 100 100 96 98 96 84 5 38 83 95 36 68 27 29 31 5 4 0 0 0 0 0 9 4 40 99 100 100 86 7 5 5 0 0 2 4 2 0 1 0
82 100 100 80 64 0 0 90 100 100 100 93 99 90 88 5 65 95 63 48 11 17 81 19 4 17 77 0 0 0 0 0 7 2 45 25 29 6 5 3 5 5 4 4 1 16 5 5 5
5 100 100 100 24 0 0 100 100 100 100 95 100 99 23 16 9 95 55 52 23 9 10 95 4 0 0 0 0 0 0 0 0 0 0 0 1 5 5 5 5 5 3 36 13 5 5 5 5
4 99 100 100 7 0 0 86 100 100 99 92 100 100 100 97 24 60 94 41 54 35 32 4 1 0 0 0 0 0 0 0 0 0 0 0 0 0 0 5 5 5 5 5 5 5 4 5 4
3 65 100 100 8 0 0 85 100 100 99 100 34 100 100 100 45 65 100 69 78 45 5 0 4 0 0 0 0 0 0 0 0 0 0 0 0 1 0 19 8 4 5 6 5 5 1 0 0
23 67 100 100 8 0 2 89 100 100 100 49 57 100 99 100 95 100 100 100 96 29 6 2 5 8 2 4 1 0 0 0 0 0 0 0 5 6 0 2 0 0 1 12 11 4 0 0 0
6 40 93 100 22 5 36 100 100 100 100 91 99 100 85 98 100 100 100 100 100 96 94 91 5 54 5 5 5 5 5 2 1 0 0 0 0 0 0 0 0 0 0 0 0 0 3 0 0
28 90 72 100 95 54 100 100 100 100 100 100 95 17 100 100 100 100 95 100 100 100 54 99 92 77 57 60 8 5 7 5 33 3 4 0 0 0 0 0 0 0 0 0 0 0 0 0 0
100 82 70 99 97 100 100 100 100 100 97 100 100 98 100 100 100 100 100 100 100 100 97 100 100 94 100 100 50 5 5 5 5 6 8 5 2 0 0 0 0 0 0 0 0 0 0 0 0
100 47 32 100 100 100 100 85 100 100 99 34 100 100 92 97 100 100 100 100 100 100 100 100 100 100 100 100 100 92 53 5 5 17 18 18 12 6 8 17 6 0 0 5 0 0 0 0 0
100 93 89 100 100 100 100 100 100 100 93 71 100 100 100 98 100 100 100 100 100 100 100 100 100 100 100 100 100 100 96 61 59 11 17 100 73 31 28 26 13 5 7 2 0 0 0 0 0
75 69 94 100 100 100 100 100 100 100 5 96 95 60 43 100 67 99 97 93 96 100 100 100 100 100 100 100 100 100 100 100 99 100 55 52 100 90 43 28 27 14 9 4 1 0 0 0 0
100 5 97 100 100 100 100 100 100 100 96 15 87 100 82 96 100 100 92 100 100 100 100 100 100 100 100 100 100 100 100 100 100 100 100 100 90 98 54 96 37 13 14 5 5 5 5 5 5
90 97 84 100 100 100 100 100 100 100 97 25 34 60 100 84 78 100 94 100 100 100 100 100 98 100 100 100 94 100 100 100 100 100 100 100 100 81 94 100 100 100 61 28 54 16 5 5 5
100 100 90 100 100 100 100 100 100 100 99 12 5 60 100 100 100 100 95 70 67 100 88 100 70 100 100 100 100 100 100 100 100 100 100 100 100 95 61 32 44 95 100 93 99 62 70 30 20
100 100 77 100 100 100 100 100 100 100 100 100 5 5 40 100 100 100 100 100 84 84 100 100 100 100 100 100 100 100 100 100 100 100 100 100 98 99 9 53 26 12 65 100 100 99 100 100 100
100 100 56 100 100 100 100 100 100 100 100 100 35 5 1 20 100 100 100 100 100 100 91 100 100 100 100 100 100 100 100 97 100 100 98 97 65 100 89 90 97 100 100 100 100 100 100 100 100
100 100 35 100 100 100 100 100 100 100 100 100 100 97 40 5 86 58 100 100 100 100 100 100 86 100 100 100 100 100 100 82 100 100 100 100 100 100 100 85 100 100 100 100 100 100 100 100 100
100 35 98 98 100 100 100 100 100 100 100 100 100 100 88 58 88 6 5 25 100 100 100 100 100 100 100 100 100 100 100 100 64 100 100 100 100 100 100 96 100 100 100 100 100 100 100 100 100
100 71 23 92 100 100 100 100 100 100 100 100 100 100 100 100 56 79 23 56 33 96 100 100 100 100 100 100 100 100 96 99 100 100 100 100 100 100 100 100 100 100 100 100 100 100 100 100 100
100 98 100 100 100 100 100 100 100 100 100 100 100 100 100 100 100 100 100 44 70 5 36 100 100 100 100 100 100 100 100 100 100 99 100 100 100 100 100 100 100 100 100 100 100 100 100 100 100
100 100 89 100 91 100 100 100 100 100 100 100 100 100 100 100 100 82 100 82 5 10 9 5 28 98 100 100 100 100 99 95 99 100 100 100 100 100 100 100 100 100 100 100 100 100 100 100 100
100 100 94 69 100 100 100 100 100 100 100 100 100 100 100 100 100 100 85 78 5 5 51 5 4 91 30 85 81 100 100 84 57 86 100 100 100 100 100 100 100 100 100 100 100 100 100 100 100
100 100 100 100 100 100 100 100 100 100 100 100 100 100 100 100 90 99 58 13 22 69 66 100 83 78 89 40 20 32 100 100 97 100 100 100 99 100 99 100 100 100 100 100 100 100 100 100 100
100 100 100 100 58 100 100 100 100 100 100 100 100 100 100 100 100 100 90 100 100 18 1 8 23 98 51 39 6 4 0 12 100 100 100 100 100 50 85 100 100 100 100 100 100 100 100 100 100
100 100 100 57 7 96 100 100 100 100 100 100 100 100 100 100 100 100 100 100 100 72 93 69 90 38 100 100 72 5 5 2 5 8 96 100 100 100 100 96 100 100 100 96 100 100 100 100 100
100 100 100 100 97 80 42 100 100 100 100 100 100 100 98 99 100 100 100 100 83 100 87 4 31 82 62 10 11 3 0 0 0 0 0 7 62 97 100 98 71 94 100 100 100 100 97 94 85
100 100 88 100 78 5 32 92 100 100 100 100 100 100 100 63 56 92 100 100 100 100 100 100 100 79 7 5 0 4 5 0 0 2 3 5 5 65 80 20 88 100 100 100 100 100 97 100 100
100 95 22 6 6 65 9 11 100 59 100 100 100 81 100 100 100 100 100 98 26 9 85 100 20 93 8 5 6 9 1 0 5 19 5 67 53 5 5 40 26 17 86 89 100 100 100 100 100

GFSSGP_prec_cloud_105.txt.gz
Cloud_Cover
5 100 86 99 42 47 0 1 15 100 100 100 100 65 46 5 3 5 52 21 23 60 33 3 0 5 5 43 85 99 100 38 100 54 17 28 99 93 83 6 1 0 0 0 41 14 0 0 0
0 100 100 89 81 44 0 1 97 100 100 100 100 100 70 7 14 98 90 53 29 45 38 32 0 5 19 9 5 2 17 44 6 17 19 40 98 87 6 0 3 4 2 5 2 5 4 6 0
0 92 100 100 74 17 0 0 98 100 100 88 100 100 98 5 32 96 21 62 47 54 37 26 2 4 8 40 26 2 0 26 9 8 92 100 100 22 5 2 1 5 5 5 8 5 3 0 0
2 31 100 100 88 0 0 0 100 100 100 63 100 100 100 75 94 16 86 70 76 61 44 5 95 47 5 5 5 17 0 1 0 99 100 100 87 0 0 0 0 0 5 5 5 13 5 1 0
56 2 80 100 100 0 0 0 100 100 100 92 100 100 98 100 95 100 85 56 64 97 100 61 100 95 100 43 6 2 0 3 8 59 26 37 2 0 0 0 0 0 0 2 17 4 4 0 0
100 4 49 100 100 1 0 3 88 100 100 63 100 98 100 98 100 100 96 53 34 81 98 100 99 34 94 100 22 2 0 0 1 14 1 0 0 0 0 3 0 0 2 5 4 0 0 0 0
100 83 10 12 100 46 2 88 5 100 100 67 100 94 100 100 100 100 100 85 95 18 92 96 29 5 6 80 100 4 4 0 0 0 0 0 0 0 66 5 0 15 30 7 8 0 0 0 0
89 100 5 2 94 80 5 100 100 99 100 68 27 100 97 100 100 100 98 93 57 51 81 100 82 8 79 5 23 5 5 5 5 0 0 0 0 0 0 0 0 0 0 4 0 0 0 0 0
10 100 96 2 89 100 98 100 100 100 100 99 17 50 100 100 100 100 100 100 100 100 100 97 100 50 57 38 10 26 5 12 5 5 1 0 2 1 0 0 0 0 0 0 0 0 0 0 0
48 98 36 3 14 100 100 100 100 100 100 100 100 87 100 100 100 100 100 100 100 100 90 100 100 100 84 100 76 46 44 38 47 6 5 6 11 8 6 3 0 0 0 0 0 0 0 0 0
15 37 73 13 1 100 100 93 100 100 100 49 54 99 100 100 100 94 100 100 100 100 100 100 100 100 100 100 85 64 97 37 49 47 39 16 18 12 32 32 25 8 0 1 0 0 0 0 0
92 5 65 36 32 100 100 100 100 100 97 44 67 78 100 100 100 100 88 100 100 100 100 100 100 99 100 100 100 100 100 100 100 82 34 12 29 26 27 31 18 4 6 2 5 1 0 0 0
100 38 36 98 33 100 100 100 100 100 100 7 94 100 72 100 100 100 100 100 100 100 100 100 100 86 69 100 100 100 100 100 100 100 79 20 32 24 22 14 79 12 16 7 16 5 5 5 5
100 99 100 100 100 100 100 100 100 98 100 99 89 64 99 63 99 100 100 100 100 100 100 100 100 100 100 100 100 100 100 100 100 100 100 100 100 96 80 96 100 100 24 23 100 100 15 23 5
100 100 100 100 100 100 100 100 100 99 100 99 6 39 100 100 100 44 13 98 100 100 100 100 100 100 99 100 67 96 100 100 94 100 100 100 100 100 100 100 76 57 42 54 30 100 100 99 93
100 100 100 95 100 100 100 100 100 100 100 100 86 83 100 100 100 100 100 100 100 98 100 100 100 94 100 98 100 100 100 100 97 99 100 100 100 99 100 100 100 53 36 46 100 91 98 100 100
100 78 100 99 98 100 100 100 100 100 100 100 83 66 68 94 100 100 100 100 100 100 100 100 100 100 99 97 81 94 100 100 100 100 100 100 100 99 100 100 100 100 100 98 94 100 100 100 100
100 89 100 100 94 100 100 100 100 100 100 100 100 100 89 100 100 100 100 100 100 100 100 100 100 100 100 100 100 100 100 100 100 100 100 100 100 100 100 100 100 100 100 100 100 94 100 100 100
100 100 100 100 100 100 100 100 100 100 100 100 100 100 100 100 100 100 100 100 100 100 100 100 100 100 100 100 100 100 100 100 100 100 100 100 100 100 100 100 100 100 100 100 100 100 100 100 100
100 100 100 100 100 100 100 100 100 100 100 100 100 100 99 100 100 100 100 100 100 100 100 100 100 100 100 100 100 100 100 100 100 100 100 100 100 100 100 100 100 100 100 97 100 100 100 100 100
100 81 100 100 98 100 100 100 100 100 100 100 100 71 89 89 100 94 29 100 100 100 100 100 100 100 100 100 100 100 100 100 100 100 100 100 99 100 100 100 100 100 100 100 100 100 100 100 100
100 100 91 100 100 100 100 100 100 100 100 100 100 100 80 95 98 100 100 57 100 100 100 100 100 100 100 100 100 100 100 100 100 100 100 100 100 100 100 100 100 100 100 100 100 100 100 100 100
100 100 83 100 100 100 100 100 100 100 100 100 100 86 31 98 14 77 100 100 100 100 100 100 100 100 100 100 100 100 100 100 100 100 100 100 100 100 100 100 100 100 100 100 100 100 100 100 100
100 99 98 100 100 100 100 100 100 100 100 100 100 100 97 85 77 99 100 100 100 100 100 100 100 100 100 100 100 100 100 100 100 100 100 71 98 100 100 100 100 100 100 100 100 100 100 100 100
100 95 100 100 100 100 100 100 100 100 100 100 100 100 100 100 100 74 100 100 60 99 100 100 100 100 100 100 100 64 73 100 100 100 100 100 100 100 100 100 100 95 100 100 100 93 100 100 100
100 100 100 100 100 100 100 100 100 100 100 100 100 100 100 100 100 99 99 100 69 50 100 100 71 100 100 97 98 97 100 100 100 100 100 100 100 100 100 100 100 100 74 85 100 100 98 100 100
100 99 100 100 100 100 100 100 100 100 100 100 100 100 100 100 100 100 66 82 100 97 82 71 87 100 99 43 16 68 64 78 100 100 100 100 100 100 100 85 78 59 73 76 100 100 100 100 100
100 100 100 26 99 100 100 100 100 100 100 100 100 100 100 100 100 100 100 100 70 45 34 7 9 72 56 19 5 11 36 80 89 43 66 100 65 54 71 93 100 100 82 99 84 99 98 100 100
100 100 100 73 14 100 100 100 100 100 100 100 100 100 100 100 100 100 100 100 96 58 26 3 4 7 32 7 5 38 43 85 100 53 60 63 94 25 5 7 3 9 53 20 90 100 100 100 100
100 60 100 98 70 84 99 100 100 100 100 100 100 100 100 99 100 100 100 100 100 97 25 34 5 73 94 90 58 36 11 5 11 7 5 5 5 30 65 5 5 0 5 8 74 96 96 100 100

GFSSGP_prec_cloud_108.txt.gz
Cloud_Cover
0 0 3 70 55 100 56 0 0 1 5 99 100 73 26 41 5 2 52 12 12 49 34 1 0 0 4 4 5 17 6 84 30 98 97 100 100 88 100 6 0 0 11 100 74 0 9 20 0
0 0 32 100 100 99 7 0 0 0 100 100 100 100 49 39 12 67 98 78 7 50 43 27 0 0 13 0 5 27 25 98 100 100 78 87 71 96 6 5 3 0 4 52 0 0 3 0 3
0 0 6 100 100 66 3 0 0 0 94 100 100 42 94 5 19 85 75 65 58 61 26 19 5 2 0 1 5 28 25 8 66 40 12 90 95 1 1 1 2 1 4 13 6 2 0 0 0
0 11 1 99 100 85 0 0 0 0 9 100 74 100 87 96 97 89 52 69 87 95 31 9 5 0 0 0 0 30 34 51 5 3 100 100 73 0 0 0 0 0 0 0 5 0 0 2 2
50 60 42 16 54 100 6 0 2 1 0 96 74 100 100 95 55 89 100 100 100 91 62 50 62 7 1 0 0 5 16 22 12 100 100 100 39 0 0 0 0 0 0 0 0 0 0 0 0
100 29 92 0 1 100 20 1 66 75 16 93 50 99 100 100 26 97 100 100 100 100 58 63 25 5 5 5 6 7 12 30 99 100 100 81 0 0 0 0 0 0 0 2 0 0 0 0 0
9 98 100 5 0 44 47 14 95 100 100 100 24 33 100 100 100 100 100 100 100 78 42 49 71 95 50 5 14 69 99 85 96 99 20 0 0 2 0 0 0 0 14 0 0 0 0 0 0
10 56 99 37 2 3 100 97 33 100 100 100 99 44 100 100 100 92 100 100 99 51 10 61 53 96 100 100 98 100 100 100 100 10 3 0 2 0 0 0 3 8 0 0 0 0 0 0 0
19 85 86 19 5 0 100 93 89 100 100 100 100 5 100 100 100 100 100 100 98 47 42 16 22 51 98 100 100 100 90 29 6 14 4 5 34 28 0 0 60 22 0 0 0 0 0 0 0
11 52 5 2 3 4 89 100 100 100 100 100 15 16 100 100 100 94 99 100 99 89 100 100 89 90 100 100 100 97 6 13 5 38 8 13 22 8 2 0 0 0 0 0 0 0 0 0 0
5 45 4 1 5 5 21 100 100 100 100 100 82 70 100 100 100 74 100 98 100 100 84 100 100 100 98 56 94 100 46 19 16 15 16 27 30 33 37 38 33 19 4 16 1 0 0 0 0
26 5 0 0 5 37 16 100 100 100 100 100 28 100 100 100 100 100 100 100 100 100 100 100 100 100 100 100 100 100 100 96 38 29 52 37 48 48 46 41 29 18 13 5 5 5 5 5 5
97 13 5 5 5 59 100 100 100 100 100 100 100 100 85 100 42 100 100 100 100 98 100 100 100 94 96 100 100 100 100 100 79 84 100 100 100 99 44 50 36 16 30 6 17 55 12 6 14
90 64 4 1 5 68 85 100 100 94 100 100 100 100 97 100 55 100 100 100 75 100 100 100 100 100 100 100 82 91 100 100 99 100 100 100 100 100 100 100 95 100 64 75 66 20 8 6 5
91 97 60 5 5 94 100 100 100 100 100 100 100 68 100 100 100 74 100 100 100 100 100 100 100 100 100 100 45 100 100 100 100 100 100 100 100 100 100 100 100 100 100 70 72 94 16 5 24
100 100 99 8 4 73 100 96 100 100 100 100 100 25 100 100 100 91 79 94 100 100 100 100 100 100 92 49 8 47 64 53 94 100 100 100 100 100 100 96 77 99 100 100 100 100 93 6 24
100 100 94 63 5 96 84 100 100 100 100 100 99 15 100 100 100 100 74 25 53 100 100 100 100 100 100 65 35 7 72 92 60 44 88 100 100 83 100 100 100 100 100 100 100 100 96 62 98
100 100 100 78 100 92 83 100 100 100 100 100 100 30 100 98 93 100 100 100 100 100 100 100 100 100 100 90 91 99 49 17 20 68 88 100 100 78 100 100 100 100 100 100 100 100 100 98 100
100 100 100 100 100 100 100 100 100 100 100 100 100 92 100 47 100 100 100 100 100 100 100 100 100 100 100 100 100 100 100 100 100 100 100 100 100 100 100 100 100 100 99 78 100 100 100 100 100
100 100 100 49 100 100 100 100 100 100 100 100 100 100 99 100 100 100 100 100 100 100 100 100 100 100 100 100 100 100 100 100 100 100 100 100 100 100 100 100 100 100 100 100 100 100 100 100 100
100 100 97 29 100 100 100 100 100 100 100 100 100 100 97 100 100 100 100 100 100 100 100 100 100 100 100 100 100 100 100 100 100 100 100 100 100 100 100 100 100 100 64 100 100 100 100 100 100
98 100 100 100 100 100 100 100 100 100 100 97 100 100 100 100 100 100 100 100 100 100 100 100 100 100 100 100 100 100 100 100 100 100 100 100 100 100 100 100 99 98 98 100 100 100 100 100 100
100 100 100 100 100 100 100 100 100 100 100 100 100 100 47 100 100 100 100 100 100 100 100 100 100 100 100 100 100 100 100 100 100 100 100 100 100 100 100 99 100 100 100 100 100 100 100 100 100
100 90 100 100 100 100 100 100 100 100 100 100 100 100 100 96 100 100 100 100 100 100 100 100 100 100 100 100 100 100 100 100 100 100 100 100 100 69 95 100 100 100 100 100 100 100 100 100 85
100 100 100 100 100 98 100 100 100 100 100 100 100 100 96 90 100 100 88 100 100 100 100 100 100 100 100 100 100 100 100 100 100 100 100 100 100 100 100 100 100 100 100 100 72 93 100 100 100
100 100 100 100 100 99 100 100 100 100 100 100 100 100 100 72 100 100 100 100 100 100 100 100 100 100 100 100 100 100 100 100 100 100 100 100 100 100 100 100 100 100 100 100 100 100 100 100 100
100 100 100 100 100 96 100 100 100 100 100 100 100 100 100 100 100 100 100 100 100 100 100 100 100 100 100 100 100 100 100 100 100 100 100 100 100 100 100 100 100 100 100 100 100 100 100 100 100
100 97 100 100 100 100 100 100 100 100 100 100 100 100 100 100 100 87 100 100 100 100 100 100 100 100 100 100 100 100 100 100 100 100 100 100 100 100 100 100 100 100 100 100 100 100 100 96 88
100 94 100 100 100 100 100 100 100 100 100 100 100 100 100 100 100 100 95 100 100 100 100 100 100 100 99 100 99 100 100 100 100 100 100 100 100 100 100 100 100 100 100 100 100 100 100 100 91
100 100 100 100 100 100 100 100 100 60 100 100 100 100 100 100 100 100 100 100 100 89 100 100 90 100 100 100 100 100 100 100 100 100 100 100 100 100 100 94 15 5 5 5 1 2 5 5 14

GFSSGP_prec_cloud_111.txt.gz
Cloud_Cover
0 0 0 0 0 46 1 0 0 0 0 0 25 62 10 5 5 5 34 40 0 5 33 26 6 5 4 5 5 5 3 2 5 5 5 5 92 92 100 38 5 79 98 0 8 0 22 0 38
1 0 0 14 61 66 1 0 0 0 0 3 64 65 100 29 5 46 93 54 20 21 42 57 5 2 2 4 5 5 4 4 5 6 9 62 94 100 6 30 5 47 25 5 2 2 0 0 2
0 0 0 0 69 95 46 3 0 0 0 0 100 99 100 43 8 15 99 59 78 42 46 64 3 0 0 1 5 4 1 1 5 5 99 89 100 100 44 11 6 13 1 0 0 0 1 0 0
20 0 0 84 1 4 63 71 0 0 0 3 100 100 13 97 57 21 100 86 80 91 62 28 5 0 0 0 2 0 0 0 0 2 9 99 100 78 7 0 0 0 0 0 0 0 0 0 0
60 62 33 47 2 0 16 65 0 0 5 5 97 84 14 99 98 99 62 97 99 98 69 93 75 5 0 0 0 1 0 0 0 6 100 100 39 35 0 0 4 2 0 0 0 0 0 0 0
0 1 77 94 0 0 4 2 3 0 8 63 100 100 37 100 100 100 100 100 100 100 80 61 87 31 4 0 4 5 0 0 1 88 91 100 8 0 0 0 26 0 0 0 0 0 0 0 0
4 28 18 5 11 0 0 1 1 1 6 70 66 38 37 99 100 100 100 100 100 100 96 65 39 100 72 5 5 5 4 0 4 100 100 59 4 4 0 0 0 0 0 0 0 0 0 0 0
34 78 89 39 6 0 0 0 90 75 8 70 92 5 9 51 100 100 99 100 100 100 99 65 46 36 93 73 70 6 5 5 100 100 99 9 5 10 0 0 0 2 0 0 0 0 0 0 0
0 60 92 6 27 4 0 1 2 90 35 100 65 2 21 100 100 100 100 100 100 100 100 73 37 44 44 48 99 89 60 53 94 95 96 58 5 10 6 2 75 100 6 0 0 0 0 0 0
1 37 5 0 1 5 36 16 5 56 98 100 80 4 3 98 100 83 78 100 100 100 100 98 84 32 40 33 100 100 100 86 90 62 19 55 57 42 6 34 99 40 2 5 4 0 0 0 0
5 6 0 0 0 5 24 35 7 97 100 68 99 1 5 51 100 100 100 100 100 100 100 100 99 100 100 98 100 100 100 100 100 94 27 76 78 53 51 54 46 37 12 10 5 5 5 3 0
37 4 0 0 1 15 31 64 76 100 100 100 100 3 5 98 100 100 100 100 100 100 100 100 100 96 100 100 77 80 100 100 100 100 97 68 78 75 72 62 59 21 5 5 5 5 5 5 5
5 7 4 5 5 3 5 85 74 100 100 100 100 18 3 79 100 100 83 100 100 100 100 100 100 100 100 100 100 100 100 95 38 72 67 48 56 54 84 80 33 91 73 10 5 5 5 5 10
33 16 17 12 5 5 2 72 69 92 100 100 95 18 1 87 100 95 100 100 100 100 100 100 100 100 100 100 100 100 100 100 100 60 79 100 71 90 100 100 100 100 100 100 100 81 5 5 5
30 100 99 13 10 11 5 23 95 100 100 100 100 13 3 81 100 100 100 100 100 100 100 100 100 100 100 100 100 100 100 100 49 31 82 100 100 100 100 93 64 100 100 100 94 68 100 100 96
95 84 41 5 13 10 5 4 95 65 100 100 100 73 5 90 100 100 100 100 100 100 100 100 100 100 100 100 100 100 100 71 10 9 39 100 100 100 100 98 94 100 100 100 57 97 100 100 100
98 33 5 5 5 77 40 13 100 75 100 100 100 96 96 84 100 100 100 100 100 100 100 100 100 100 100 100 100 100 100 100 43 26 87 100 100 100 100 100 100 100 100 100 100 100 100 100 100
39 78 23 39 68 56 94 24 100 100 100 100 100 100 100 98 100 100 100 100 100 100 100 100 100 100 100 100 100 92 5 6 56 100 100 100 100 100 100 100 100 100 100 100 100 100 100 100 100
68 100 86 29 100 100 67 76 100 100 100 100 100 100 100 100 100 100 100 100 100 100 100 100 100 100 100 100 100 100 38 28 10 76 100 100 100 100 100 100 100 100 100 100 100 100 100 100 100
99 100 54 73 54 100 100 100 100 100 100 96 100 100 100 100 100 100 100 100 100 100 100 100 100 100 100 100 100 100 100 83 58 99 100 100 100 100 100 100 100 100 100 100 100 100 99 100 100
100 100 100 100 100 100 100 100 100 100 100 100 100 100 100 100 100 100 100 100 100 100 100 100 100 100 100 100 100 100 100 100 100 100 100 100 100 100 100 100 100 78 100 90 59 96 100 100 100
100 100 100 100 100 100 100 100 100 100 100 100 98 100 100 100 100 100 100 100 100 100 100 100 100 100 100 100 100 100 100 92 88 100 100 100 100 100 100 100 95 100 100 100 90 98 100 100 100
100 100 100 100 100 100 100 100 100 100 100 100 100 98 100 100 100 100 100 100 100 100 100 100 100 100 100 100 100 100 100 100 100 100 100 100 100 100 100 100 100 94 100 100 100 100 100 100 100
100 100 85 100 100 100 100 100 100 100 100 100 100 100 100 97 97 100 100 100 100 100 100 100 100 100 100 100 100 100 100 100 100 100 100 100 100 100 100 100 100 100 100 100 100 100 100 100 100
100 100 99 100 100 100 100 100 100 100 100 100 100 100 100 65 100 100 100 100 100 100 100 100 100 100 100 100 100 100 100 100 100 100 100 100 100 100 100 100 100 100 100 100 100 100 100 100 100
100 100 94 100 100 100 100 100 100 100 100 100 100 100 100 100 100 100 100 100 100 100 100 100 100 100 100 100 100 100 100 100 100 100 100 100 100 100 100 100 100 100 100 100 99 100 100 100 100
100 100 100 100 100 100 100 100 100 100 100 100 100 100 100 100 100 70 100 100 100 100 100 100 100 100 100 100 100 100 100 100 100 100 100 100 100 100 100 100 100 100 100 100 100 100 100 100 100
100 100 100 100 100 100 100 100 100 100 100 100 100 90 100 100 100 100 100 100 100 100 100 100 100 100 100 100 100 100 100 100 100 100 100 100 100 100 100 100 100 100 100 100 100 100 100 100 100
100 100 100 100 100 100 100 100 100 100 94 100 100 100 100 100 100 100 100 100 100 100 100 100 100 100 100 100 100 100 100 100 100 100 100 100 100 100 100 100 100 100 100 100 100 100 100 100 100
100 100 100 100 100 99 100 100 100 100 100 100 99 100 100 100 100 100 100 100 100 100 100 100 100 100 100 100 100 100 100 100 100 100 100 100 100 100 100 100 100 100 100 100 100 100 100 100 100

GFSSGP_prec_cloud_114.txt.gz
Cloud_Cover
0 0 0 0 0 0 0 0 0 0 0 0 0 0 17 73 14 4 17 5 56 87 89 10 6 96 7 0 4 12 5 4 3 4 0 5 5 84 6 95 96 17 6 4 2 16 47 41 94
0 0 0 3 2 0 0 0 5 0 0 0 0 0 12 93 22 7 6 5 15 90 100 76 5 28 9 5 0 3 5 2 0 2 0 5 6 94 6 5 5 54 31 5 3 5 12 100 100
0 0 0 0 1 0 0 4 4 6 0 0 0 0 62 62 88 72 54 6 80 86 100 100 5 18 5 5 5 4 5 5 0 0 0 5 63 88 34 5 91 79 41 5 1 0 5 29 42
8 7 0 0 0 0 0 1 99 4 0 0 0 0 4 5 76 82 100 29 90 100 100 100 90 6 5 24 5 5 3 5 0 0 0 0 87 32 58 14 37 5 5 0 2 0 0 0 3
0 9 3 0 0 0 0 4 5 32 0 0 0 0 0 9 52 100 80 96 100 100 100 94 100 100 59 54 8 5 3 5 2 0 0 14 4 3 28 32 5 2 0 0 0 0 0 0 0
19 5 4 1 0 0 0 1 66 19 5 0 0 0 0 0 28 81 100 96 88 100 100 98 100 100 99 63 77 5 5 3 0 0 100 51 14 0 3 10 5 4 0 0 0 0 0 0 0
5 5 0 1 0 3 5 2 5 5 5 2 0 0 0 0 56 77 100 100 99 100 100 100 42 80 100 66 39 30 5 5 0 63 100 93 0 0 0 5 3 0 0 0 0 0 0 0 0
18 78 30 5 5 4 32 5 0 5 2 31 4 5 0 0 76 56 100 100 100 78 100 100 95 92 79 100 18 20 6 5 74 100 100 48 0 0 5 4 0 0 4 0 0 0 0 0 0
2 47 22 5 1 0 5 9 5 1 4 85 91 89 2 4 39 65 72 100 100 98 84 71 96 59 77 100 100 75 62 30 64 98 100 5 6 5 11 33 0 5 3 0 0 0 0 0 0
10 78 5 1 2 5 52 54 77 26 5 57 74 48 53 0 41 84 60 100 88 100 100 82 85 61 75 69 93 98 100 77 100 100 66 55 53 80 45 65 94 3 1 0 0 0 0 0 0
41 26 3 3 5 5 6 91 80 99 24 45 84 96 94 4 67 42 100 100 100 100 97 83 100 100 91 96 100 100 100 100 100 100 62 63 41 70 57 98 100 30 12 0 0 0 0 0 0
5 5 5 5 5 5 10 27 97 82 66 87 11 98 100 5 85 100 100 100 100 100 100 100 100 96 43 54 61 82 100 100 95 82 91 100 100 100 91 100 100 100 5 5 5 0 2 0 0
9 5 5 5 5 5 10 5 32 62 5 59 56 100 100 12 1 100 100 75 66 100 100 100 100 100 94 85 83 84 81 100 100 100 99 100 100 100 100 98 46 30 69 82 40 91 19 10 14
56 57 68 52 9 95 70 5 83 5 5 58 55 100 81 51 72 80 99 100 43 100 100 100 100 100 100 100 96 98 92 100 100 100 94 100 46 96 100 98 76 88 100 100 100 100 100 95 85
53 24 28 5 5 33 98 70 44 0 3 70 63 98 93 8 88 18 98 97 95 100 100 100 100 99 100 100 100 100 100 100 100 100 100 100 100 53 63 72 98 98 100 100 99 72 93 100 100
92 69 17 0 26 6 73 14 10 4 17 1 54 100 100 99 49 91 92 100 98 100 100 100 100 88 100 100 100 100 100 100 100 100 100 100 100 64 76 95 100 100 100 95 99 100 100 100 100
96 56 6 19 47 86 74 70 94 2 5 3 93 100 88 100 100 92 97 100 100 100 100 100 100 100 100 100 100 100 100 100 100 100 100 100 100 77 100 100 100 100 100 100 100 100 100 100 100
32 95 84 86 100 100 98 48 57 2 27 83 100 100 100 100 92 100 100 100 100 100 100 100 100 100 100 99 90 100 100 100 100 100 100 100 100 32 78 100 100 100 100 100 100 100 100 100 100
100 100 93 76 88 81 84 56 57 44 98 100 100 100 100 100 100 100 100 100 100 100 100 100 100 100 100 100 94 100 100 100 100 100 97 43 100 100 100 100 100 100 100 100 100 100 100 100 100
100 100 100 100 44 86 24 72 90 23 86 100 100 100 72 89 100 100 100 100 100 100 100 100 100 100 100 100 73 99 100 100 100 99 100 100 100 100 100 100 100 100 100 100 100 100 100 100 99
100 100 100 100 100 55 97 100 84 83 100 50 100 74 71 99 100 100 100 100 100 100 100 100 100 100 100 99 69 86 99 98 91 100 100 100 100 100 100 100 100 100 100 100 100 89 100 97 96
100 100 100 100 100 95 86 99 75 97 97 89 99 30 100 100 100 100 100 100 100 100 100 100 100 100 100 100 100 100 100 100 89 100 100 100 100 100 100 100 100 100 94 100 100 94 58 99 90
100 100 100 100 100 100 64 100 100 100 100 96 79 99 99 100 100 100 100 100 100 100 100 100 100 100 100 100 100 100 100 100 100 100 100 100 100 100 100 100 100 100 88 93 99 100 100 100 99
100 100 100 100 100 100 100 100 100 100 100 95 88 100 100 99 100 100 100 100 100 100 100 100 100 100 100 100 100 100 100 100 100 100 100 100 100 100 100 100 100 100 100 100 100 100 100 100 100
100 100 100 100 100 100 100 100 100 100 100 81 95 95 66 100 100 100 100 100 100 100 100 100 100 100 100 100 100 100 100 100 100 100 100 100 100 83 100 100 100 100 100 100 100 100 100 100 100
100 100 100 100 100 100 100 100 100 100 100 100 97 100 100 100 100 100 100 100 100 100 100 100 100 100 100 100 100 100 100 100 100 100 100 100 100 100 100 100 100 100 100 100 100 100 100 100 100
100 100 100 100 100 100 100 100 100 100 100 97 85 100 100 100 100 100 100 100 100 100 100 100 100 100 100 100 100 100 100 100 100 100 100 100 100 100 100 100 100 100 100 100 100 100 100 100 100
100 100 100 100 100 100 100 100 100 100 100 100 100 100 100 100 100 100 100 100 100 100 100 100 100 100 100 100 100 100 100 100 100 100 100 100 100 100 100 100 100 100 100 100 100 100 100 100 100
100 100 96 100 100 100 100 100 100 100 100 100 100 100 100 100 100 100 100 100 100 100 100 100 100 100 100 100 100 100 100 100 100 100 100 100 100 100 100 100 100 100 100 100 100 100 100 100 100
100 100 94 97 98 78 100 100 100 100 100 100 100 100 100 100 100 100 100 100 100 100 100 100 100 100 100 100 100 100 100 100 100 100 100 100 100 100 100 100 100 100 100 100 100 100 100 100 100

GFSSGP_prec_cloud_117.txt.gz
Cloud_Cover
0 0 0 0 2 0 0 0 0 0 0 0 5 3 3 43 75 67 10 3 17 8 15 5 5 5 5 0 0 0 5 5 4 0 9 37 5 5 5 11 45 63 33 50 16 54 98 16 1
0 0 0 0 1 0 0 0 0 0 1 0 0 5 0 0 95 8 100 6 9 65 36 5 6 14 5 4 0 0 2 26 19 2 0 0 0 0 5 86 40 5 14 56 18 7 12 32 67
2 0 0 0 2 0 0 0 0 0 5 1 0 0 0 0 21 3 53 28 3 85 81 100 24 84 5 5 5 0 1 45 100 5 0 0 15 18 2 10 5 19 5 36 56 21 100 100 99
5 0 0 0 0 0 0 0 0 5 54 5 3 0 0 0 11 0 43 30 5 21 100 89 8 83 25 5 5 4 5 5 28 5 0 0 87 12 31 26 70 64 5 62 27 10 72 33 21
0 4 5 0 0 0 0 0 0 0 4 10 0 0 0 2 2 0 0 98 5 40 98 94 0 99 79 19 5 1 2 5 5 5 2 0 78 2 1 5 24 24 5 4 2 5 0 0 0
5 5 4 0 0 0 0 0 0 0 2 30 3 5 0 7 5 0 0 78 71 64 100 100 7 42 98 100 34 5 3 5 5 5 1 6 2 0 0 0 4 5 0 3 3 0 0 0 0
5 5 2 0 0 0 0 0 1 0 3 7 5 5 0 4 5 0 0 39 100 17 100 100 29 48 34 100 100 7 5 5 5 27 7 24 3 0 0 0 0 0 0 5 3 0 0 0 0
5 7 4 4 2 0 0 0 2 4 0 6 43 37 9 10 84 3 6 0 100 100 92 100 34 62 5 92 100 91 25 19 5 43 100 39 13 0 0 0 0 0 3 5 0 0 0 0 0
5 26 5 5 0 0 0 0 5 5 5 3 27 67 77 87 5 72 12 7 100 100 100 100 77 83 17 70 96 100 39 5 6 87 89 1 0 3 6 3 0 26 3 0 0 0 0 0 0
39 49 5 3 5 5 5 4 5 17 35 8 29 27 97 100 4 20 31 8 96 100 100 100 100 100 58 34 62 87 100 8 93 100 98 5 4 20 100 34 5 37 5 3 1 0 0 0 0
85 69 5 52 16 30 50 12 6 7 5 10 59 1 8 4 100 21 9 24 97 100 100 100 100 100 99 68 49 85 100 100 100 100 31 12 5 20 100 89 14 5 13 3 5 0 0 8 6
72 82 56 54 51 99 77 34 10 53 14 31 6 35 61 100 67 25 93 100 92 90 57 100 95 100 100 100 24 80 88 100 100 100 30 13 6 20 100 27 5 6 5 3 0 0 2 5 8
98 57 84 60 78 45 47 15 5 11 5 5 69 6 99 62 100 29 95 100 100 100 99 82 100 99 100 100 35 65 54 100 99 100 36 17 59 70 98 97 100 100 100 98 6 8 56 95 100
90 100 94 67 88 62 88 46 91 8 0 5 5 87 8 19 100 100 98 97 100 100 100 100 100 100 100 99 100 76 29 92 84 99 73 90 92 100 95 100 98 100 100 96 5 78 48 92 100
55 32 38 5 6 39 87 77 31 0 28 8 5 5 5 9 78 100 71 100 87 100 100 100 100 100 100 100 100 100 100 100 74 71 29 100 81 82 100 37 72 60 20 6 5 5 82 100 100
98 89 77 0 14 3 78 5 0 14 24 5 5 97 67 11 100 95 81 68 100 100 100 100 100 100 100 100 100 100 100 100 100 100 78 87 86 100 100 100 100 100 5 7 10 90 100 100 100
96 69 5 5 7 82 97 43 0 5 56 5 5 3 9 5 100 82 100 6 100 100 100 100 100 100 100 100 100 100 100 100 100 100 100 100 100 100 100 100 100 100 44 90 56 100 100 100 100
71 90 42 64 43 97 100 12 94 77 98 5 5 12 33 52 28 100 83 19 100 100 100 100 100 100 100 99 100 97 100 100 100 100 100 100 100 100 100 100 100 100 73 98 100 100 100 100 100
96 96 93 37 47 98 80 90 5 82 81 91 44 97 92 89 100 100 86 100 100 100 100 100 100 100 100 100 100 100 100 100 100 100 100 100 100 100 100 100 100 100 100 100 100 100 100 100 100
19 78 69 62 100 96 93 67 100 100 5 34 61 6 5 100 83 62 77 100 100 100 100 100 100 100 100 100 100 100 100 100 100 99 100 100 100 100 100 100 100 100 100 100 100 100 100 100 100
100 100 100 100 95 94 62 64 96 95 71 98 21 61 72 100 87 100 98 91 100 100 100 100 100 100 100 100 100 100 100 100 100 100 100 100 100 100 100 100 100 100 100 100 100 93 100 99 100
98 100 100 99 100 95 91 87 85 92 19 48 19 39 100 100 91 100 100 58 100 100 100 100 100 100 100 100 100 100 100 100 100 100 100 95 96 99 100 100 100 100 100 100 94 100 100 100 100
100 100 100 100 100 100 100 100 100 100 92 40 95 84 100 100 98 86 72 100 100 100 100 100 100 100 100 100 100 100 100 100 100 100 100 94 100 100 100 100 100 100 100 100 100 100 100 100 100
100 100 100 100 100 100 100 100 100 100 100 62 100 96 100 99 100 87 100 100 100 100 100 100 100 100 100 100 100 100 100 100 100 100 100 100 100 100 100 100 100 100 100 100 98 100 100 100 100
100 100 100 100 100 100 100 100 100 100 100 100 100 100 100 100 98 100 100 100 100 100 100 100 100 100 100 100 100 100 100 100 100 100 100 100 100 100 100 100 100 100 100 100 100 100 100 100 100
100 100 100 100 100 91 99 100 100 100 100 100 100 100 100 100 100 100 100 100 100 100 100 100 100 100 100 100 100 100 100 100 100 100 100 100 100 100 100 100 100 100 100 100 100 100 100 100 100
100 100 100 100 100 100 100 100 100 100 100 100 100 100 100 100 100 100 100 100 100 100 100 100 100 100 100 100 100 100 100 100 100 100 100 100 100 100 100 100 100 100 100 100 100 100 100 100 100
100 100 100 100 100 100 100 100 100 100 100 100 100 100 100 100 100 100 100 100 100 100 100 100 100 100 100 100 100 100 100 100 100 100 100 100 100 100 100 100 100 100 100 100 100 100 100 100 100
100 100 100 100 100 100 100 100 100 100 100 100 100 100 100 100 100 100 100 100 100 100 100 100 100 100 100 100 100 100 100 100 100 100 100 100 100 100 100 100 100 100 100 100 100 100 100 100 100
100 100 100 100 100 100 100 100 100 100 100 100 100 100 100 100 100 100 100 100 100 100 100 100 100 100 100 100 100 100 100 100 100 100 100 100 100 100 100 100 100 100 100 100 100 100 100 100 95

GFSSGP_prec_cloud_120.txt.gz
Cloud_Cover
0 0 0 0 11 0 0 0 0 0 0 0 0 0 0 4 99 65 0 94 31 0 1 0 0 0 0 5 5 0 2 4 1 5 1 5 5 5 30 5 5 5 5 28 38 44 5 3 5
0 0 0 0 0 2 4 5 0 0 0 0 0 0 0 0 11 68 11 2 62 59 0 19 0 0 1 5 5 5 4 0 5 0 0 0 1 0 1 4 5 5 11 20 9 6 4 5 6
0 0 0 0 0 0 0 0 1 4 0 0 0 0 0 0 13 5 2 4 51 100 87 0 0 0 0 9 33 5 4 2 3 5 0 0 0 0 0 0 0 5 14 6 8 20 9 78 5
5 1 0 0 0 2 0 0 0 0 0 0 0 0 0 0 0 19 0 0 5 100 82 4 0 0 0 5 50 16 5 5 4 5 5 5 3 0 0 0 0 3 5 6 5 96 99 64 4
0 0 5 0 0 0 0 0 0 0 0 0 4 0 0 0 0 2 4 2 0 98 100 96 3 0 1 5 5 22 5 5 5 3 9 30 67 0 0 0 0 5 43 6 15 98 19 1 0
5 5 4 4 0 0 0 0 0 0 0 0 47 47 0 0 3 0 0 1 0 1 74 72 5 6 0 5 9 5 5 5 5 5 1 5 46 0 0 0 0 0 0 5 5 3 0 0 0
5 6 2 0 0 0 0 0 0 0 0 0 0 10 1 0 4 1 1 0 0 0 67 9 2 5 2 0 53 80 9 5 3 5 5 3 3 14 0 0 0 0 0 0 0 0 0 1 0
5 5 5 5 5 0 0 0 0 0 0 0 0 2 22 1 1 2 29 0 0 0 2 55 5 5 5 0 1 86 100 17 5 5 5 5 45 36 0 0 0 0 0 0 0 0 0 0 0
5 19 5 5 1 0 0 0 0 0 0 0 0 0 4 85 0 0 15 32 0 0 0 48 8 4 5 35 17 1 94 98 5 6 41 51 83 5 5 0 0 3 0 0 0 0 0 0 0
64 8 5 5 3 4 3 3 0 0 0 0 0 0 0 5 13 0 5 1 7 23 0 2 80 42 7 68 97 86 10 100 100 31 100 100 14 15 0 4 0 0 5 4 3 5 0 0 0
52 21 54 8 44 76 67 5 5 0 0 0 2 0 0 5 51 2 0 2 4 80 7 0 98 100 47 25 54 100 100 80 100 100 100 64 5 5 5 2 4 1 8 5 4 5 4 3 0
12 26 8 5 31 83 7 5 5 5 0 0 2 4 1 5 5 5 5 3 16 100 80 2 100 100 95 98 100 100 100 100 93 100 100 100 46 5 5 1 5 5 5 5 5 5 14 20 5
98 52 65 92 6 5 5 2 0 0 0 0 1 2 0 4 0 36 32 4 1 88 92 1 86 100 100 100 100 72 100 100 100 100 100 100 64 7 6 6 5 8 37 6 63 95 100 77 6
27 43 64 31 5 18 81 63 22 10 2 0 0 0 0 0 0 5 5 69 4 38 100 51 95 100 100 100 100 100 100 100 100 100 78 75 100 26 99 5 36 78 35 31 69 99 100 100 71
97 63 6 5 2 5 5 31 0 0 0 0 0 0 0 1 0 5 84 86 100 6 100 100 100 100 100 100 100 100 100 100 100 100 100 60 13 62 81 27 49 89 100 100 73 75 42 50 56
10 5 5 2 2 19 50 19 0 0 0 0 0 0 0 0 0 2 5 8 96 4 97 100 100 100 100 100 100 100 100 100 100 100 100 100 87 77 68 98 94 100 100 100 100 100 100 74 25
5 17 5 5 0 73 37 91 44 0 0 2 4 1 0 0 0 0 6 76 100 13 89 100 100 100 100 100 100 100 100 100 100 100 100 100 100 100 90 62 97 100 100 100 100 100 100 100 73
5 5 6 1 0 1 1 13 0 7 3 27 5 5 1 0 6 55 33 100 82 5 100 100 100 100 100 100 100 100 100 100 100 100 100 100 100 100 100 100 100 100 100 100 100 100 100 100 100
60 26 5 4 0 94 1 0 0 26 13 12 90 74 62 1 5 11 27 29 5 80 100 100 100 100 100 100 100 100 100 100 100 100 100 100 100 100 100 100 100 100 100 100 100 100 100 100 100
5 5 85 58 72 99 44 6 57 71 28 3 10 100 85 11 91 28 77 0 5 100 100 100 100 100 100 100 100 100 100 100 100 100 100 100 100 100 100 97 100 100 100 100 100 100 100 100 100
5 70 27 85 95 64 78 8 0 0 6 63 53 43 53 80 67 49 5 24 69 100 100 100 100 100 100 100 100 100 100 100 100 100 100 100 100 100 100 100 98 99 100 100 100 100 100 100 100
50 100 100 100 100 90 89 95 94 21 1 11 100 100 62 8 22 72 15 98 100 100 100 100 100 100 100 100 100 100 100 100 100 100 100 100 100 99 100 97 90 100 100 100 100 100 100 100 100
20 87 100 100 100 100 96 100 93 57 5 51 66 100 99 13 100 78 100 100 100 100 100 100 100 100 100 100 100 100 100 100 100 100 100 100 100 100 100 100 100 100 100 100 100 100 100 100 100
100 100 100 100 100 100 100 100 100 100 100 91 48 100 40 86 98 97 20 100 100 100 100 100 100 100 100 100 100 100 100 100 100 100 100 100 100 100 100 100 98 100 100 100 100 100 100 100 100
100 100 99 100 99 100 100 100 100 100 100 100 90 100 96 93 98 13 36 95 100 100 100 100 100 100 100 100 100 100 100 100 100 100 100 64 100 100 100 100 100 100 100 100 100 100 100 100 100
100 100 100 100 100 100 100 100 100 100 100 100 100 100 100 96 64 35 98 100 100 100 100 100 100 100 100 100 100 100 100 100 100 100 100 100 100 100 100 100 96 100 100 100 100 100 100 100 100
100 100 100 100 98 100 100 100 100 100 100 100 100 100 100 100 100 11 46 100 100 100 100 100 100 100 100 100 100 100 100 100 100 100 100 100 100 100 100 100 98 100 100 100 100 100 100 100 100
100 100 100 100 100 100 100 100 100 100 100 100 100 100 100 100 100 89 98 100 100 100 100 100 100 100 100 100 100 100 100 100 100 100 100 100 100 100 100 100 100 100 100 100 100 100 100 100 100
100 100 100 100 100 100 100 100 100 100 100 100 100 100 100 100 100 100 100 100 100 100 100 100 100 100 100 100 100 100 100 100 100 100 100 100 100 100 100 100 100 100 100 100 100 100 100 100 100
100 100 100 100 100 100 100 100 100 100 100 100 100 100 100 100 100 100 100 100 100 100 100 100 100 100 100 100 100 100 100 100 100 100 100 100 100 100 100 100 100 100 100 100 100 100 100 100 100